     2              OBSERVATION DATA    GPS                 RINEX VERSION / TYPE
ASRINEXO V2.9.5 UX USGS 26-APR-99 13:36                     PGM / RUN BY / DATE
                                                            COMMENT
BIT 2 OF LLI (+4) FLAGS DATA COLLECTED UNDER "AS" CONDITION COMMENT
BIT 2 OF LLI (+4) FLAGS DATA COLLECTED UNDER "AS" CONDITION COMMENT
BIT 2 OF LLI (+4) FLAGS DATA COLLECTED UNDER "AS" CONDITION COMMENT
BIT 2 OF LLI (+4) FLAGS DATA COLLECTED UNDER "AS" CONDITION COMMENT
BIT 2 OF LLI (+4) FLAGS DATA COLLECTED UNDER "AS" CONDITION COMMENT
BIT 2 OF LLI (+4) FLAGS DATA COLLECTED UNDER "AS" CONDITION COMMENT
Original Marker Name: 13dd 13_D_1576_1948_USGS              COMMENT
Campaign Name: USGS Yucca Profile                           COMMENT
4-Character Station Name: 13DD                              COMMENT
6-Character Antenna Code: DMRCHT                            COMMENT
Vertical Measurement Point: BCR                             COMMENT
Vertical Offset to Rinex Ref. Point: 0.0348                 COMMENT
Radial Measurement Point: ECF                               COMMENT
Radial Offset to Rinex Ref. Point: 0.1897                   COMMENT
Antenna Height from Field Measurement: 1.1850 m             COMMENT
Additional Antenna Identification Info.:                    COMMENT
Turborogue and Ashtech Choke Ring                           COMMENT
Original XYZ: -2369274.2378 -4566000.4362 3758845.3745      COMMENT
New XYZ position is based on association with SCEC monument COMMENT
E1F4R3Y5+0011. Position of that monument is believed to be  COMMENT
valid to within 1 m horizontally; vertical accuracy         COMMENT
should be no worse than 3-times this value.                 COMMENT
                                                            COMMENT
Revised Rinex header created by UCSD GPS archive for        COMMENT
GSAC on 08-Aug-2000 (2000:221) 00:03:07 GMT                 COMMENT
For assistance contact dagnew@ucsd.edu                      COMMENT
or anderson@python.ucsd.edu                                 COMMENT
                                                            COMMENT
13D 1948 1576                                               MARKER NAME
GDH US GEOLOGICAL SURVEY                                    OBSERVER / AGENCY
O4597 ASHTECH Z-XII3 CB00                                   REC # / TYPE / VERS
CR14244 DORNE-MARGOL. TYPE T                                ANT # / TYPE
 -2369256.5966 -4566031.6283  3758877.0539                  APPROX POSITION XYZ
        1.1349        0.0000        0.0000                  ANTENNA: DELTA H/E/N
     1     1     0                                          WAVELENGTH FACT L1/2
     5    C1    L1    L2    P1    P2                        # / TYPES OF OBSERV
    30                                                      INTERVAL
  1999     4    18    15    38    0.000000                  TIME OF FIRST OBS
  1999     4    18    22    30    0.000000                  TIME OF LAST OBS
                                                            END OF HEADER
 99  4 18 15 38  0.0000000  0  7 19 15 02 07 27 13 26
  23479483.957      277644.819 9    192804.81549  23479484.071    23479490.8674
  23506085.120       35312.488 9     24128.40049  23506085.016    23506092.8264
  20993016.786      111692.828 9     80737.85149  20993015.078    20993020.3244
  20812150.776     -112682.781 9    -85651.97349  20812150.168    20812155.8344
  20327692.584      222757.609 9    162104.96549  20327691.402    20327696.3854
  22427766.420      433273.616 9    312600.36849  22427766.470    22427770.7194
  22708067.726      -47207.561 9    -37212.82249  22708067.262    22708073.0004
 99  4 18 15 38 30.0000000  0  7 19 15 02 07 27 13 26
  23497019.157      369790.030 9    264606.18749  23497017.823    23497025.7164
  23502760.915       17839.396 9     10512.99749  23502760.168    23502766.7064
  20993073.157      111989.809 9     80969.25049  20993071.739    20993077.1694
  20801981.055     -166126.424 9   -127296.34749  20801980.159    20801985.7354
  20333027.603      250792.880 9    183950.61449  20333026.659    20333031.6264
  22445094.294      524331.376 9    383554.40349  22445093.755    22445098.6094
  22700896.990      -84889.949 9    -66575.72349  22700896.706    22700902.2824
 99  4 18 15 39  0.0000000  0  7 19 15 02 07 27 13 26
  23514585.615      462102.753 9    336538.08849  23514585.601    23514592.9634
  23499531.341         866.294 9     -2712.80149  23499530.054    23499538.0954
  20993149.553      112391.398 9     81282.16349  20993148.186    20993153.7794
  20791890.586     -219152.840 9   -168615.61549  20791889.594    20791895.4244
  20338447.131      279272.494 9    206142.49849  20338446.217    20338451.1064
  22462470.668      615643.985 9    454707.01149  22462470.056    22462474.6634
  22693819.470     -122082.711 9    -95557.09549  22693818.786    22693824.3254
 99  4 18 15 39 30.0000000  0  7 19 15 02 07 27 13 26
  23532194.734      554639.402 9    408644.47949  23532193.671    23532201.4884
  23496401.487      -15581.957 9    -15529.62149  23496400.580    23496407.6224
  20993253.080      112935.401 9     81706.04949  20993251.554    20993256.9774
  20781884.480     -271735.646 9   -209589.21049  20781883.332    20781889.0974
  20343956.899      308226.381 9    228703.94549  20343955.922    20343960.8894
  22479895.831      707213.327 9    526059.67649  22479895.642    22479900.2674
  22686837.190     -158774.891 9   -124148.40549  22686836.620    22686841.9824
 99  4 18 15 40  0.0000000  0  7 19 15 02 07 27 13 26
  23549850.297      647419.721 9    480940.73649  23549849.109    23549856.7004
  23493374.494      -31489.051 9    -27924.77849  23493372.946    23493380.6594
  20993388.977      113649.709 9     82262.64349  20993387.510    20993392.9474
  20771965.321     -323861.149 9   -250206.46749  20771964.188    20771969.8964
  20349557.314      337656.778 9    251636.69949  20349556.315    20349561.3294
  22497372.029      799051.290 9    597621.64049  22497371.744    22497376.8414
  22679952.032     -194956.582 9   -152341.94149  22679951.496    22679957.2294
 99  4 18 15 40 30.0000000  0  7 19 15 02 07 27 13 26
  23567551.201      740438.123 9    553422.50249  23567551.284    23567558.6804
  23490452.810      -46843.050 9    -39888.93549  23490451.319    23490458.7414
  20993558.815      114542.383 9     82958.22049  20993557.553    20993563.0994
  20762134.502     -375522.495 9   -290462.04649  20762133.544    20762139.2314
  20355246.857      367555.205 9    274934.15449  20355245.867    20355250.8034
  22514898.644      891153.797 9    669389.74349  22514898.120    22514903.2774
  22673163.982     -230628.596 9   -180138.31849  22673164.405    22673168.9574
 99  4 18 15 41  0.0000000  0  7 19 15 02 07 27 13 26
  23585297.345      833694.290 9    626089.54549  23585295.760    23585304.8874
  23487637.418      -61637.921 9    -51417.41249  23487636.508    23487643.9984
  20993762.869      115614.562 9     83793.67349  20993761.651    20993767.1184
  20752388.469     -426738.203 9   -330370.37449  20752387.411    20752393.2424
  20361026.687      397928.365 9    298601.52549  20361025.745    20361030.7404
  22532475.175      983519.013 9    741362.56449  22532474.742    22532479.7224
  22666472.534     -265792.663 9   -207538.88949  22666472.018    22666477.6094
 99  4 18 15 41 30.0000000  0  7 19 15 02 07 27 13 26
  23603086.375      927176.512 9    698932.74349  23603086.193    23603094.1214
  23484928.205      -75874.610 9    -62510.95449  23484926.983    23484934.1264
  20994001.185      116866.871 9     84769.48749  20993999.926    20994005.2674
  20742725.271     -477518.883 9   -369939.72249  20742724.111    20742729.7054
  20366896.040      428771.715 9    322635.28749  20366895.082    20366900.0724
  22550101.538     1076145.743 9    813539.15449  22550100.710    22550106.0274
  22659879.131     -300441.715 9   -234538.14549  22659878.383    22659883.5184
 99  4 18 15 42  0.0000000  0  7 19 15 02 07 27 13 26
  23620914.043     1020861.465 9    771933.88749  23620912.962    23620921.3084
  23482325.938      -89549.695 9    -73166.87549  23482324.875    23482331.8944
  20994272.527      118292.521 9     85880.37049  20994271.059    20994276.7694
  20733145.494     -527861.286 9   -409167.55349  20733144.363    20733150.1024
  20372853.932      460080.411 9    347031.65549  20372852.977    20372858.1024
  22567775.350     1169021.675 9    885909.92449  22567775.214    22567780.0834
  22653385.728     -334565.188 9   -261127.86849  22653384.998    22653390.5794
 99  4 18 15 42 30.0000000  0  7 19 15 02 07 27 13 26
  23638780.568     1114750.103 9    845093.77049  23638780.023    23638787.6394
  23479831.558     -102658.269 9    -83381.36149  23479829.942    23479837.6504
  20994575.255      119883.028 9     87119.71649  20994574.059    20994579.4584
  20723647.748     -577772.337 9   -448059.26949  20723646.698    20723652.3004
  20378901.660      491861.300 9    371795.95849  20378900.631    20378905.6674
  22585493.297     1262129.847 9    958461.66149  22585493.039    22585498.2024
  22646992.794     -368160.681 9   -287306.17149  22646992.074    22646997.3644
 99  4 18 15 43  0.0000000  0  7 19 15 02 07 27 13 26
  23656685.109     1208838.329 9    918409.16849  23656684.498    23656692.5434
  23477443.525     -115207.620 9    -93160.06849  23477442.605    23477449.9784
  20994909.630      121639.880 9     88488.68049  20994908.477    20994913.8554
  20714230.092     -627262.675 9   -486623.15649  20714228.808    20714234.6134
  20385039.259      524114.617 9    396928.39349  20385038.432    20385043.4854
  22603254.450     1355465.106 9   1031190.36049  22603253.163    22603259.3254
  22640701.209     -401223.157 9   -313069.14949  22640700.359    22640706.0404
 99  4 18 15 43 30.0000000  0  7 19 15 02 07 27 13 26
  23674627.415     1303124.822 9    991879.06249  23674627.526    23674635.1494
  23475160.654     -127204.662 9   -102508.42749  23475160.255    23475167.0824
  20995274.715      123558.361 9     89983.58549  20995273.535    20995278.9524
  20704893.534     -676326.625 9   -524854.79649  20704892.191    20704897.8784
  20391265.769      556834.789 9    422424.60649  20391264.821    20391269.8784
  22621056.676     1449016.153 9   1104087.20149  22621056.668    22621062.2614
  22634512.562     -433744.449 9   -338410.42949  22634512.433    22634517.8144
 99  4 18 15 44  0.0000000  0  7 19 15 02 07 27 13 26
  23692607.999     1397612.329 9   1065505.60049  23692607.129    23692615.0004
  23472982.374     -138651.712 9   -111428.20849  23472981.663    23472987.9794
  20995667.619      125622.902 9     91592.30649  20995666.413    20995671.9114
  20695639.791     -724955.289 9   -562747.25049  20695638.588    20695644.4344
  20397581.028      590021.569 9    448284.41249  20397580.099    20397585.2984
  22638899.422     1542779.735 9   1177149.64949  22638899.836    22638903.7954
  22628425.613     -465731.581 9   -363335.47349  22628424.937    22628430.4384
 99  4 18 15 44 30.0000000  0  7 19 15 02 07 27 13 26
  23710626.436     1492299.360 9   1139287.59349  23710625.675    23710633.8974
  23470907.903     -149553.622 9   -119923.21649  23470906.799    23470913.1484
  20996086.642      127824.793 9     93308.05249  20996085.343    20996090.8614
  20686472.114     -773132.174 9   -600287.67149  20686471.024    20686476.6514
  20403984.243      623670.618 9    474504.42349  20403983.096    20403988.3374
  22656783.597     1636761.052 9   1250381.76949  22656783.355    22656788.4644
  22622440.186     -497184.812 9   -387844.49849  22622439.881    22622445.3794
 99  4 18 15 45  0.0000000  0  7 19 15 02 07 27 13 26
  23728682.715     1587185.251 9   1213224.54549  23728682.115    23728690.3454
  23468936.598     -159913.063 9   -127995.51849  23468934.705    23468942.7364
  20996530.178      130155.534 9     95124.20549  20996529.035    20996534.7064
  20677391.217     -820853.027 9   -637472.73849  20677390.071    20677395.8904
  20410475.274      657781.321 9    501084.16649  20410474.323    20410479.5954
  22674712.170     1730975.815 9   1323795.79349  22674711.694    22674716.8304
  22616555.194     -528110.784 9   -411942.67349  22616553.995    22616560.4704
 99  4 18 15 45 30.0000000  0  7 19 15 02 07 27 13 26
  23746776.881     1682269.914 9   1287316.38649  23746776.599    23746784.4964
  23467070.221     -169720.818 9   -135637.92649  23467068.527    23467076.1824
  20996998.114      132614.334 9     97040.13849  20996996.892    20997002.4694
  20668398.183     -868111.781 9   -674297.72749  20668396.897    20668402.6534
  20417056.073      692363.390 9    528031.20849  20417055.127    20417060.3834
  22692684.991     1825423.508 9   1397391.31549  22692684.641    22692689.6594
  22610768.099     -558522.245 9   -435639.92449  22610767.491    22610773.3784
 99  4 18 15 46  0.0000000  0  7 19 15 02 07 27 13 26
  23764908.185     1777550.223 9   1361560.69749  23764907.417    23764915.6274
  23465311.261     -178964.284 9   -142840.62949  23465310.873    23465317.7654
  20997493.101      135215.315 9     99066.86449  20997491.849    20997497.5464
  20659495.219     -914897.202 9   -710753.88549  20659494.050    20659499.7044
  20423727.267      727420.520 9    555348.42249  20423726.468    20423731.6084
  22710702.244     1920104.539 9   1471168.67449  22710701.718    22710706.6904
  22605078.715     -588420.718 9   -458937.45049  22605078.390    22605083.7104
 99  4 18 15 46 30.0000000  0  7 19 15 02 07 27 13 26
  23783076.565     1873026.002 9   1435957.30349  23783076.579    23783084.1954
  23463660.646     -187638.296 9   -149599.60649  23463659.706    23463666.6774
  20998019.105      137979.475 9    101220.74249  20998018.015    20998023.5784
  20650680.649     -961218.266 9   -746848.20449  20650679.372    20650685.0664
  20430489.553      762956.278 9    583038.59849  20430488.737    20430493.9034
  22728763.883     2015018.958 9   1545127.88949  22728763.644    22728768.5724
  22599489.036     -617795.034 9   -481826.52849  22599488.939    22599493.7004
 99  4 18 15 47  0.0000000  0  7 19 15 02 07 27 13 26
  23801282.723     1968700.407 9   1510508.67049  23801281.925    23801291.0504
  23462119.750     -195735.570 9   -155909.18249  23462118.713    23462126.4604
  20998579.448      140923.986 9    103515.15549  20998578.237    20998583.6784
  20641951.748    -1007088.976 9   -782591.60049  20641950.405    20641956.3624
  20437345.583      798984.931 9    611112.85049  20437344.541    20437349.5614
  22746869.409     2110164.195 9   1619266.95049  22746868.860    22746874.0624
  22593998.056     -646650.821 9   -504311.56649  22593997.641    22594002.5114
 99  4 18 15 47 30.0000000  0  7 19 15 02 07 27 13 26
  23819527.124     2064574.968 9   1585216.00249  23819527.294    23819534.3184
  23460689.268     -203252.498 9   -161766.53549  23460687.774    23460695.7904
  20999174.918      144052.984 9    105953.32949  20999173.775    20999179.2704
  20633311.694    -1052492.825 9   -817971.20349  20633310.536    20633316.1644
  20444295.157      835505.098 9    639570.10349  20444294.360    20444299.5504
  22765017.487     2205532.536 9   1693579.86449  22765017.696    22765021.8964
  22588608.089     -674975.577 9   -526382.80649  22588607.432    22588612.7694
 99  4 18 15 48  0.0000000  0  7 19 15 02 07 27 13 26
  23837810.680     2160654.890 9   1660083.36349  23837810.917    23837818.3994
  23459368.320     -210194.557 9   -167175.94249  23459367.848    23459375.9884
  20999804.441      147361.134 9    108531.09549  20999803.159    20999808.9444
  20624761.248    -1097425.910 9   -852983.98349  20624760.156    20624765.8514
  20451336.215      872505.993 9    668401.93949  20451335.645    20451340.8284
  22783209.084     2301129.387 9   1768070.83949  22783209.073    22783214.6944
  22583321.182     -702758.704 9   -548032.00549  22583321.192    22583326.3374
 99  4 18 15 48 30.0000000  0  7 19 15 02 07 27 13 26
  23856133.347     2256940.370 9   1735110.90249  23856132.433    23856141.0844
  23458155.019     -216570.550 9   -172144.25549  23458153.928    23458161.8084
  21000466.820      150841.753 9    111243.25749  21000465.670    21000471.3744
  20616297.129    -1141905.468 9   -887643.36749  20616296.055    20616301.5634
  20458468.244      909984.596 9    697606.01949  20458467.588    20458472.5864
  22801445.844     2396963.788 9   1842746.90649  22801445.418    22801450.5414
  22578134.968     -730012.389 9   -569268.64249  22578134.663    22578139.9014
 99  4 18 15 49  0.0000000  0  7 19 15 02 07 27 13 26
  23874496.857     2353440.589 9   1810305.75949  23874496.940    23874504.8684
  23457049.112     -222382.386 9   -176672.96849  23457047.934    23457055.1574
  21001159.361      154481.000 9    114079.02349  21001158.341    21001163.7334
  20607919.393    -1185930.979 9   -921948.93949  20607918.115    20607923.7404
  20465691.061      947940.363 9    727181.91749  20465690.367    20465695.3484
  22819728.276     2493037.786 9   1917609.68149  22819728.411    22819733.6124
  22573047.269     -756748.316 9   -590101.84149  22573046.675    22573052.2474
 99  4 18 15 49 30.0000000  0  7 19 15 02 07 27 13 26
  23892900.275     2450150.710 9   1885664.18149  23892899.850    23892907.8654
  23456049.615     -227635.079 9   -180765.99149  23456048.276    23456056.2414
  21001879.941      158267.495 9    117029.52749  21001878.922    21001884.6544
  20599627.725    -1229504.066 9   -955901.98049  20599626.455    20599632.0694
  20473002.241      986360.465 9    757119.63049  20473001.436    20473006.5624
  22838053.964     2589339.282 9   1992649.74249  22838053.435    22838059.3844
  22568058.812     -782962.929 9   -610528.82149  22568058.248    22568064.2574
 99  4 18 15 50  0.0000000  0  7 19 15 02 07 27 13 26
  23911342.372     2547064.188 9   1961181.06549  23911342.482    23911350.9484
  23455155.941     -232331.650 9   -184425.66049  23455154.984    23455160.9504
  21002631.115      162214.690 9    120105.25849  21002629.812    21002635.3874
  20591417.434    -1272649.450 9   -989521.74249  20591416.069    20591421.9184
  20480400.627     1025239.032 9    787414.59049  20480399.744    20480405.0174
  22856420.398     2685855.121 9   2067856.81749  22856419.680    22856425.2674
  22563168.868     -808660.039 9   -630552.54349  22563168.633    22563173.4494
 99  4 18 15 50 30.0000000  0  7 19 15 02 07 27 13 26
  23929820.836     2644168.214 9   2036846.43549  23929821.090    23929829.1084
  23454368.912     -236467.742 9   -187648.61749  23454368.389    23454375.3444
  21003412.459      166320.570 9    123304.63949  21003411.191    21003416.7544
  20583288.069    -1315369.191 9  -1022809.83449  20583286.837    20583292.4934
  20487887.709     1064583.811 9    818072.83749  20487886.881    20487891.9204
  22874824.387     2782568.076 9   2143217.48849  22874824.089    22874829.4134
  22558376.532     -833844.189 9   -650176.55949  22558376.511    22558381.2834
 99  4 18 15 51  0.0000000  0  7 19 15 02 07 27 13 26
  23948333.446     2741451.753 9   2112651.67749  23948333.094    23948341.3724
  23453689.785     -240036.786 9   -190429.71149  23453687.920    23453696.6834
  21004222.970      170579.847 9    126623.54449  21004221.710    21004227.3874
  20575242.964    -1357646.474 9  -1055753.16049  20575241.846    20575247.5874
  20495465.025     1104402.673 9    849100.49549  20495464.135    20495469.3544
  22893262.504     2879460.501 9   2218718.00349  22893262.434    22893267.9644
  22553685.132     -858497.824 9   -669387.19249  22553684.189    22553689.6994
 99  4 18 15 51 30.0000000  0  7 19 15 02 07 27 13 26
  23966876.567     2838895.066 9   2188581.41649  23966876.726    23966885.5444
  23453119.710     -243032.906 9   -192764.36849  23453118.284    23453126.3364
  21005065.213      175005.698 9    130072.24949  21005064.127    21005069.9194
  20567284.743    -1399467.520 9  -1088340.97449  20567283.526    20567289.3004
  20503133.449     1144700.423 9    880501.30549  20503132.737    20503137.8874
  22911732.583     2976521.437 9   2294349.82649  22911732.288    22911737.6644
  22549097.561     -882605.745 9   -688172.59149  22549097.275    22549102.5824
 99  4 18 15 52  0.0000000  0  7 19 15 02 07 27 13 26
  23985450.689     2936501.383 9   2264638.17149  23985449.529    23985458.9794
  23452660.473     -245446.684 9   -194645.25649  23452659.692    23452667.1054
  21005940.056      179602.845 9    133654.43249  21005939.011    21005944.5424
  20559414.758    -1440824.523 9  -1120567.19049  20559413.644    20559419.1314
  20510894.179     1185482.971 9    912279.88649  20510893.434    20510898.5864
  22930237.238     3073763.650 9   2370122.90249  22930237.187    22930242.4544
  22544614.317     -906165.617 9   -706530.93449  22544613.699    22544619.5014
 99  4 18 15 52 30.0000000  0  7 19 15 02 07 27 13 26
  24004057.166     3034278.854 9   2340828.27549  24004057.077    24004064.9754
  23452312.891     -247272.671 9   -196068.13349  23452311.513    23452319.8604
  21006844.103      184353.726 9    137356.41149  21006842.855    21006848.4294
  20551637.909    -1481692.309 9  -1152412.19949  20551636.848    20551642.4694
  20518748.676     1226758.446 9    944442.56749  20518747.786    20518752.9664
  22948776.954     3171190.229 9   2446039.63749  22948776.982    22948781.6704
  22540235.284     -929177.939 9   -724462.61049  22540234.690    22540239.9914
 99  4 18 15 53  0.0000000  0  7 19 15 02 07 27 13 26
  24022699.211     3132243.749 9   2417164.44849  24022699.071    24022706.5574
  23452077.155     -248511.272 9   -197033.29849  23452075.636    23452083.0034
  21007777.924      189260.880 9    141180.15449  21007776.889    21007782.5494
  20543955.791    -1522062.058 9  -1183869.13149  20543954.546    20543960.1574
  20526696.420     1268523.818 9    976986.98349  20526695.764    20526701.0644
  22967352.268     3268803.536 9   2522101.87049  22967351.344    22967357.3744
  22535961.394     -951637.331 9   -741963.43949  22535961.269    22535965.7184
 99  4 18 15 53 30.0000000  0  7 19 15 02 07 27 13 26
  24041380.543     3230414.297 9   2493660.85849  24041379.889    24041387.9954
  23451953.150     -249162.936 9   -197541.11049  23451952.121    23451959.0374
  21008741.535      194324.307 9    145125.67249  21008740.602    21008746.0544
  20536367.971    -1561936.334 9  -1214939.97949  20536366.769    20536372.3914
  20534734.394     1310763.466 9   1009900.96649  20534733.650    20534738.9384
  22985963.456     3366605.536 9   2598311.13749  22985962.849    22985968.7524
  22531791.500     -973550.091 9   -759038.31849  22531791.216    22531796.3304
 99  4 18 15 54  0.0000000  0  7 19 15 02 07 27 13 26
  24060103.534     3328804.217 9   2570328.20949  24060103.277    24060110.7484
  23451940.372     -249230.047 9   -197593.42249  23451939.080    23451947.7894
  21009731.909      199528.556 9    149180.92449  21009730.846    21009736.3214
  20528873.121    -1601322.110 9  -1245630.18049  20528871.898    20528877.5314
  20542862.736     1353477.942 9   1043184.94549  20542862.102    20542867.4214
  23004610.755     3464597.402 9   2674668.34649  23004610.809    23004616.6224
  22527722.673     -994932.022 9   -775699.56949  22527723.152    22527727.6164
 99  4 18 15 54 30.0000000  0  7 19 15 02 07 27 13 26
  24078866.878     3427405.692 9   2647160.42249  24078866.897    24078875.2794
  23452037.312     -248720.641 9   -197196.51049  23452036.483    23452044.5344
  21010748.890      204872.679 9    153345.16349  21010747.832    21010753.3684
  20521469.039    -1640230.924 9  -1275948.72249  20521468.013    20521473.3144
  20551081.704     1396668.518 9   1076839.91249  20551080.973    20551086.2844
  23023292.670     3562770.921 9   2751167.12249  23023292.166    23023298.3674
  22523755.047    -1015782.461 9   -791946.66949  22523754.619    22523760.4414
 99  4 18 15 55  0.0000000  0  7 19 15 02 07 27 13 26
  24097666.317     3526196.155 9   2724139.86049  24097665.803    24097674.6194
  23452243.333     -247637.375 9   -196352.43849  23452242.291    23452249.9934
  21011794.595      210367.644 9    157626.94349  21011793.568    21011799.1604
  20514152.138    -1678681.536 9  -1305910.22649  20514150.799    20514156.3264
  20559390.899     1440333.421 9   1110864.48349  20559390.170    20559395.3914
  23042009.482     3661128.047 9   2827808.96249  23042009.859    23042015.3704
  22519888.896    -1036099.218 9   -807777.90549  22519888.406    22519893.5974
 99  4 18 15 55 30.0000000  0  7 19 15 02 07 27 13 26
  24116497.307     3625153.485 9   2801249.33049  24116496.877    24116505.5044
  23452558.892     -245979.192 9   -195060.35449  23452558.122    23452566.2924
  21012870.775      216022.908 9    162033.63349  21012869.733    21012875.2084
  20506919.751    -1716687.758 9  -1335525.45049  20506918.696    20506924.0634
  20567790.990     1484475.994 9   1145261.26549  20567790.145    20567795.4774
  23060760.327     3759663.871 9   2904590.04649  23060760.018    23060765.8964
  22516124.083    -1055883.337 9   -823194.10549  22516123.702    22516129.3154
 99  4 18 15 56  0.0000000  0  7 19 15 02 07 27 13 26
  24135356.610     3724259.242 9   2878474.45949  24135356.101    24135364.0464
  23452983.425     -243748.285 9   -193322.01449  23452982.868    23452990.7684
  21013978.085      221841.590 9    166567.66049  21013977.136    21013982.8234
  20499771.837    -1754250.116 9  -1364794.80649  20499770.684    20499776.2554
  20576283.755     1529105.769 9   1180037.68449  20576283.026    20576288.3984
  23079544.514     3858375.061 9   2981507.78049  23079544.054    23079549.3324
  22512461.823    -1075128.863 9   -838190.62349  22512461.827    22512466.6874
 99  4 18 15 56 30.0000000  0  7 19 15 02 07 27 13 26
  24154242.209     3823503.175 9   2955807.25749  24154242.336    24154250.8104
  23453517.643     -240941.962 9   -191135.28949  23453516.528    23453524.5404
  21015118.317      227833.314 9    171236.52249  21015117.157    21015122.9014
  20492709.626    -1791362.063 9  -1393713.19149  20492708.263    20492714.1614
  20584868.725     1574219.964 9   1215191.56949  20584867.942    20584873.1124
  23098360.325     3957252.596 9   3058555.12449  23098360.768    23098364.6684
  22508903.882    -1093825.767 9   -852759.64749  22508903.171    22508909.0814
 99  4 18 15 57  0.0000000  0  7 19 15 02 07 27 13 26
  24173156.085     3922895.521 9   3033255.72049  24173156.632    24173163.7854
  23454162.810     -237551.889 9   -188493.70149  23454160.992    23454168.6174
  21016291.399      233997.755 9    176039.96849  21016290.335    21016296.0584
  20485736.692    -1828004.942 9  -1422266.06749  20485735.570    20485741.3424
  20593545.480     1619816.464 9   1250721.28349  20593544.746    20593550.0764
  23117206.212     4056288.331 9   3135725.75249  23117205.542    23117211.4824
  22505450.801    -1111971.779 9   -866899.40149  22505450.611    22505455.7704
 99  4 18 15 57 30.0000000  0  7 19 15 02 07 27 13 26
  24192102.537     4022458.853 9   3110837.42449  24192102.856    24192110.6784
  23454919.949     -233573.446 9   -185393.63149  23454918.957    23454926.9694
  21017498.285      240340.015 9    180981.97649  21017497.090    21017502.6964
  20478854.686    -1864170.255 9  -1450446.81549  20478853.685    20478859.3494
  20602313.504     1665892.511 9   1286624.67449  20602312.986    20602318.1874
  23136079.612     4155468.385 9   3213008.82049  23136078.976    23136084.8644
  22502103.019    -1129564.546 9   -880608.05449  22502102.918    22502107.9164
 99  4 18 15 58  0.0000000  0  7 19 15 02 07 27 13 26
  24211083.262     4122202.667 9   3188559.74549  24211082.806    24211091.3224
  23455789.084     -229006.387 9   -181834.89649  23455787.366    23455795.3814
  21018737.406      246851.725 9    186056.02449  21018736.252    21018741.9984
  20472065.128    -1899849.629 9  -1478248.91049  20472063.865    20472069.5914
  20611172.435     1712446.160 9   1322900.21249  20611171.643    20611176.8524
  23154982.039     4254800.823 9   3290410.63949  23154982.000    23154988.0504
  22498860.317    -1146605.345 9   -893886.60549  22498860.483    22498865.3914
 99  4 18 15 58 30.0000000  0  7 19 15 02 07 27 13 26
  24230099.774     4222134.731 9   3266428.75949  24230099.691    24230108.2014
  23456770.598     -223848.666 9   -177815.92049  23456769.157    23456776.0494
  21020007.606      253526.601 9    191257.21249  21020006.652    21020012.2914
  20465367.180    -1935047.561 9  -1505675.85649  20465366.292    20465371.8924
  20620121.266     1759472.507 9   1359544.09349  20620120.508    20620125.9304
  23173913.364     4354285.055 9   3367930.73949  23173912.754    23173920.2154
  22495722.321    -1163096.062 9   -906736.52549  22495721.776    22495727.2804
 99  4 18 15 59  0.0000000  0  7 19 15 02 07 27 13 26
  24249153.251     4322261.104 9   3344449.17049  24249152.641    24249162.0184
  23457863.577     -218105.041 9   -173340.38549  23457862.260    23457869.6164
  21021307.649      260358.093 9    196580.44049  21021306.702    21021312.4254
  20458760.064    -1969768.371 9  -1532731.01949  20458758.986    20458764.8284
  20629158.250     1806961.973 9   1396548.84249  20629157.481    20629162.9674
  23192872.911     4453917.509 9   3445566.34249  23192873.218    23192878.1444
  22492687.591    -1179043.943 9   -919163.45149  22492687.786    22492692.4934
 99  4 18 15 59 30.0000000  0  7 19 15 02 07 27 13 26
  24268243.166     4422578.934 9   3422618.76049  24268243.005    24268251.4804
  23459066.582     -211783.032 9   -168414.17649  23459065.387    23459073.7934
  21022636.732      267342.383 9    202022.73449  21022635.652    21022641.2884
  20452241.326    -2004024.815 9  -1559424.33649  20452240.119    20452245.9114
  20638282.150     1854908.291 9   1433909.57949  20638281.425    20638286.7134
  23211861.098     4553700.541 9   3523319.26049  23211861.143    23211866.9124
  22489755.845    -1194450.900 9   -931168.87649  22489756.146    22489760.9934
 99  4 18 16  0  0.0000000  0  7 19 15 02 07 27 13 26
  24287366.897     4523073.958 9   3500926.43049  24287367.605    24287374.8884
  23460378.246     -204890.303 9   -163043.23249  23460377.788    23460386.1304
  21023989.896      274453.089 9    207563.53049  21023988.975    21023994.5304
  20445810.576    -2037818.665 9  -1585757.19449  20445809.690    20445815.1934
  20647492.223     1903307.509 9   1471623.22049  20647491.589    20647496.9124
  23230878.275     4653635.979 9   3601190.93949  23230878.537    23230883.8124
  22486927.253    -1209315.629 9   -942751.78949  22486927.154    22486932.3914
 99  4 18 16  0 30.0000000  0  7 19 15 02 07 27 13 26
  24306523.640     4623742.548 9   3579369.34549  24306523.624    24306532.1404
  23461797.963     -197430.014 9   -157230.04649  23461796.916    23461804.7284
  21025367.611      281692.774 9    213204.83449  21025366.642    21025372.3224
  20439466.593    -2071156.619 9  -1611734.80649  20439465.482    20439471.2504
  20656786.127     1952147.028 9   1509679.96049  20656785.425    20656790.9774
  23249920.380     4753702.743 9   3679164.95749  23249920.995    23249926.5514
  22484201.239    -1223641.340 9   -953914.69149  22484201.201    22484206.0124
 99  4 18 16  1  0.0000000  0  7 19 15 02 07 27 13 26
  24325711.945     4724577.304 9   3657941.73749  24325712.500    24325721.6194
  23463325.118     -189405.120 9   -150976.89649  23463324.598    23463332.3864
  21026772.244      289073.991 9    218956.42449  21026771.229    21026776.9174
  20433208.717    -2104041.882 9  -1637359.67449  20433207.675    20433213.3884
  20666163.489     2001425.198 9   1548078.50649  20666163.023    20666168.2924
  23268986.641     4853896.273 9   3757237.75149  23268986.266    23268992.2644
  22481576.633    -1237433.578 9   -964661.89749  22481575.919    22481582.0984
 99  4 18 16  1 30.0000000  0  7 19 15 02 07 27 13 26
  24344928.497     4825560.278 9   3736629.62649  24344928.777    24344937.3544
  23464959.649     -180816.191 9   -144284.24649  23464959.277    23464966.8194
  21028203.315      296594.139 9    224816.26749  21028202.408    21028207.9224
  20427034.564    -2136487.459 9  -1662641.93149  20427033.599    20427039.1244
  20675626.453     2051153.154 9   1586827.53349  20675625.852    20675631.2134
  23288077.705     4954219.723 9   3835411.78249  23288078.039    23288083.4524
  22479055.916    -1250679.789 9   -974983.62749  22479055.744    22479060.7104
 99  4 18 16  2  0.0000000  0  7 19 15 02 07 27 13 26
  24364170.317     4926676.000 9   3815420.97849  24364168.527    24364179.7804
  23466702.073     -171660.074 9   -137149.61149  23466701.880    23466707.7554
  21029661.141      304254.954 9    230785.72849  21029659.909    21029665.7904
  20420943.049    -2168498.584 9  -1687585.65149  20420942.056    20420947.8054
  20685176.278     2101337.536 9   1625932.21749  20685175.771    20685181.1444
  23307191.845     5054665.088 9   3913680.81049  23307190.947    23307197.4294
  22476637.525    -1263388.806 9   -984886.76149  22476637.078    22476642.4194
 99  4 18 16  2 30.0000000  0  7 19 15 02 07 27 13 26
  24383437.270     5027924.074 9   3894315.42249  24383437.268    24383446.2804
  23468553.916     -161928.753 9   -129566.77449  23468551.960    23468560.2754
  21031148.509      312071.068 9    236876.19949  21031147.540    21031153.0404
  20414933.758    -2200077.893 9  -1712192.89149  20414932.746    20414938.4304
  20694815.590     2151992.249 9   1665403.39249  20694814.908    20694820.2524
  23326329.649     5155234.662 9   3992046.61249  23326329.668    23326334.7844
  22474318.811    -1275573.872 9   -994381.61749  22474318.153    22474324.0354
 99  4 18 16  3  0.0000000  0  7 19 15 02 07 27 13 26
  24402729.214     5129302.948 9   3973311.81149  24402727.743    24402737.7214
  23470516.630     -151614.649 9   -121529.82649  23470515.900    23470522.7954
  21032662.481      320026.943 9    243075.57649  21032661.342    21032667.0184
  20409007.872    -2231218.529 9  -1736458.30549  20409006.869    20409012.5214
  20704546.622     2203129.053 9   1705250.22449  20704545.961    20704551.2194
  23345492.505     5255935.658 9   4070514.83649  23345492.732    23345499.0364
  22472101.800    -1287224.349 9  -1003459.91949  22472101.308    22472106.4884
 99  4 18 16  3 30.0000000  0  7 19 15 02 07 27 13 26
  24422047.181     5230819.205 9   4052415.25849  24422046.879    24422056.2574
  23472590.360     -140717.027 9   -113038.16649  23472589.055    23472596.5294
  21034200.621      328109.709 9    249373.82849  21034199.667    21034205.2844
  20403165.308    -2261921.373 9  -1760382.58549  20403164.273    20403169.9744
  20714367.907     2254740.249 9   1745466.70449  20714367.402    20714372.7564
  23364676.720     5356749.233 9   4149070.77349  23364676.001    23364681.5734
  22469988.144    -1298331.972 9  -1012115.21649  22469988.071    22469993.1634
 99  4 18 16  4  0.0000000  0  7 19 15 02 07 27 13 26
  24441391.889     5332475.576 9   4131627.86249  24441392.396    24441400.7234
  23474775.615     -129233.098 9   -104089.63949  23474774.902    23474782.4424
  21035763.446      336322.367 9    255773.29249  21035762.455    21035768.0044
  20397410.867    -2292161.357 9  -1783946.19749  20397409.847    20397415.4954
  20724276.799     2306811.425 9   1786041.60749  20724276.142    20724281.7464
  23383879.558     5457660.561 9   4227702.89749  23383878.788    23383885.7954
  22467975.123    -1308910.683 9  -1020358.37349  22467975.114    22467980.4204
 99  4 18 16  4 30.0000000  0  7 19 15 02 07 27 13 26
  24460764.984     5434280.776 9   4210956.46949  24460765.075    24460773.3954
  23477073.152     -117159.345 9    -94681.51949  23477072.691    23477080.1454
  21037353.089      344676.024 9    262282.63149  21037352.224    21037357.5774
  20391748.789    -2321915.890 9  -1807131.53549  20391747.607    20391753.1354
  20734271.383     2359333.124 9   1826967.57349  20734270.833    20734276.2744
  23403100.976     5558669.307 9   4306410.90149  23403101.390    23403108.5244
  22466065.137    -1318947.728 9  -1028179.45449  22466064.657    22466070.0394
 99  4 18 16  5  0.0000000  0  7 19 15 02 07 27 13 26
  24480166.720     5536236.363 9   4290402.23849  24480166.863    24480175.9614
  23479482.415     -104498.375 9    -84815.82949  23479481.343    23479488.3494
  21038973.126      353189.073 9    268916.17349  21038972.003    21038977.7644
  20386181.434    -2351172.452 9  -1829928.84049  20386180.371    20386185.9804
  20744349.039     2412291.186 9   1868233.56649  20744348.416    20744353.8384
  23422338.848     5659764.207 9   4385186.06149  23422337.873    23422344.0834
  22464261.619    -1328425.395 9  -1035564.65749  22464261.196    22464266.5294
 99  4 18 16  5 30.0000000  0  7 19 15 02 07 27 13 26
  24499596.562     5638339.999 9   4369963.36949  24499596.562    24499604.9514
  23482003.037      -91252.518 9    -74494.37849  23482002.808    23482010.0104
  21040628.425      361887.720 9    275694.33649  21040627.577    21040633.3404
  20380708.730    -2379931.922 9  -1852338.80549  20380707.720    20380713.3044
  20754511.073     2465692.615 9   1909845.03449  20754510.451    20754515.7954
  23441595.676     5760958.743 9   4464038.84149  23441595.311    23441601.9954
  22462562.742    -1337353.367 9  -1042521.52549  22462562.362    22462568.0314
 99  4 18 16  6  0.0000000  0  7 19 15 02 07 27 13 26
  24519052.629     5740581.673 9   4449632.06649  24519052.793    24519061.5114
  23484636.231      -77415.601 9    -63712.35549  23484635.675    23484643.0194
  21042322.593      370790.284 9    282631.39349  21042321.764    21042327.3104
  20375332.277    -2408185.379 9  -1874354.47249  20375331.152    20375336.7444
  20764762.630     2519564.670 9   1951823.22249  20764762.034    20764767.4444
  23460876.453     5862279.234 9   4542989.78749  23460876.823    23460883.3394
  22460965.892    -1345744.998 9  -1049060.46749  22460965.637    22460971.2934
 99  4 18 16  6 30.0000000  0  7 19 15 02 07 27 13 26
  24538539.123     5842983.555 9   4529425.58249  24538538.793    24538547.8934
  23487382.607      -62983.332 9    -52466.43149  23487382.314    23487389.2704
  21044057.428      379906.579 9    289734.99349  21044056.423    21044061.9474
  20370048.490    -2435951.956 9  -1895990.75249  20370047.580    20370053.2194
  20775107.849     2573928.839 9   1994184.87749  20775107.153    20775112.7164
  23480184.562     5963743.505 9   4622052.75549  23480185.406    23480190.5054
  22459473.121    -1353589.614 9  -1055173.16249  22459472.431    22459478.6404
 99  4 18 16  7  0.0000000  0  7 19 15 02 07 27 13 26
  24558056.352     5945547.040 9   4609345.02649  24558055.972    24558065.2184
  23490241.364      -47961.085 9    -40760.77749  23490240.835    23490248.2224
  21045830.284      389222.881 9    296994.44449  21045829.395    21045835.1904
  20364852.847    -2463255.396 9  -1917266.14149  20364851.936    20364857.5014
  20785547.736     2628790.672 9   2036934.32649  20785547.155    20785552.6944
  23499518.977     6065346.147 9   4701223.55349  23499519.501    23499524.6824
  22458084.409    -1360887.227 9  -1060859.61549  22458084.512    22458089.7084
 99  4 18 16  7 30.0000000  0  6 15 02 07 27 13 26
  23493213.152      -32344.369 9    -28591.89949  23493212.797    23493220.3674
  21047637.052      398717.164 9    304392.58049  21047636.125    21047641.5414
  20359744.241    -2490101.500 9  -1938185.16549  20359743.293    20359748.8864
  20796084.555     2684161.797 9   2080080.62049  20796083.991    20796089.3824
  23518879.984     6167088.623 9   4780503.30249  23518879.888    23518886.1194
  22456797.303    -1367650.998 9  -1066130.09649  22456797.173    22456802.4174
 99  4 18 16  8  0.0000000  0  6 15 02 07 27 13 26
  23496298.311      -16132.105 9    -15958.95949  23496296.822    23496304.7914
  21049474.160      408371.115 9    311915.13349  21049473.223    21049478.7124
  20354723.709    -2516484.927 9  -1958743.66249  20354722.759    20354728.3024
  20806716.371     2740032.064 9   2123615.85949  20806715.710    20806721.1974
  23538262.854     6268945.486 9   4859872.20149  23538262.580    23538268.3064
  22455613.098    -1373874.315 9  -1070979.43649  22455612.663    22455618.1314
 99  4 18 16  8 30.0000000  0  6 15 02 07 27 13 26
  23499494.191         662.432 9     -2872.30049  23499493.359    23499499.8024
  21051335.378      418151.528 9    319536.22549  21051334.574    21051340.0004
  20349789.184    -2542416.018 9  -1978949.69349  20349788.085    20349793.8424
  20817436.356     2796365.601 9   2167512.08949  20817435.839    20817441.2774
  23557662.134     6370888.916 9   4939308.52249  23557662.689    23557668.0084
  22454533.212    -1379549.428 9  -1075401.61049  22454532.690    22454538.2994
 99  4 18 16  9  0.0000000  0  6 15 02 07 27 13 26
  23502800.613       18037.906 9     10667.03949  23502799.740    23502807.4384
  21053217.602      428042.579 9    327243.53149  21053216.551    21053222.2754
  20344942.938    -2567883.175 9  -1998794.21749  20344942.000    20344947.4444
  20828242.196     2853150.385 9   2211759.93949  20828241.648    20828247.3114
  23577075.957     6472908.817 9   5018804.44649  23577075.540    23577081.5074
  22453556.457    -1384682.408 9  -1079401.33949  22453556.057    22453561.3254
 99  4 18 16  9 30.0000000  0  6 15 02 07 27 13 26
  23506217.835       35995.586 9     24660.01049  23506217.015    23506223.7754
  21055121.149      438045.565 9    335038.05849  21055119.964    21055125.5994
  20340185.052    -2592886.300 9  -2018277.16049  20340183.964    20340189.4394
  20839135.092     2910392.791 9   2256364.37549  20839134.517    20839140.1444
  23596505.208     6575009.547 9   5098363.37249  23596504.490    23596511.0674
  22452681.007    -1389282.816 9  -1082986.08049  22452680.842    22452686.0424
 99  4 18 16 10  0.0000000  0  6 15 02 07 27 13 26
  23509745.054       54531.768 9     39103.78249  23509744.403    23509752.4964
  21057048.357      448173.156 9    342929.68249  21057047.329    21057052.9254
  20335515.057    -2617427.433 9  -2037400.11049  20335514.007    20335519.4984
  20850112.977     2968081.633 9   2301316.68449  20850112.497    20850118.0264
  23615948.734     6677185.161 9   5177980.62749  23615949.358    23615954.5244
  22451909.166    -1393339.169 9  -1086146.88749  22451909.656    22451915.1574
 99  4 18 16 10 30.0000000  0  6 15 02 07 27 13 26
  23513381.323       73640.403 9     53993.61349  23513379.386    23513387.7834
  21059001.977      458439.306 9    350929.27549  21059000.897    21059006.3414
  20330931.778    -2641512.708 9  -2056167.84349  20330930.540    20330936.2124
  20861176.243     3026219.249 9   2346618.69349  20861175.679    20861181.2404
  23635406.403     6779435.696 9   5257656.26149  23635407.388    23635412.9804
  22451238.740    -1396862.523 9  -1088892.36749  22451238.151    22451244.1504
 99  4 18 16 11  0.0000000  0  6 15 02 07 27 13 26
  23517126.574       93322.090 9     69329.98949  23517126.102    23517133.7904
  21060986.851      468869.930 9    359057.02849  21060986.153    21060991.3344
  20326434.673    -2665144.920 9  -2074582.53949  20326433.743    20326439.2404
  20872327.502     3084819.175 9   2392280.93849  20872326.819    20872332.2994
  23654877.957     6881759.023 9   5337388.63449  23654878.728    23654882.9964
  22450668.189    -1399860.832 9  -1091228.72549  22450668.006    22450673.1074
 99  4 18 16 11 30.0000000  0  6 15 02 07 27 13 26
  23520980.983      113577.058 9     85113.06949  23520980.174    23520987.1584
  21063006.121      479481.070 9    367325.44549  21063005.195    21063010.7204
  20322024.269    -2688321.669 9  -2092642.33049  20322023.136    20322028.9104
  20883566.180     3143878.559 9   2438301.20249  20883565.618    20883571.1944
  23674362.184     6984149.052 9   5417172.98149  23674362.540    23674368.2864
  22450199.976    -1402321.210 9  -1093145.91249  22450199.760    22450205.2824
 99  4 18 16 12  0.0000000  0  6 15 02 07 27 13 26
  23524945.285      134409.124 9    101345.83649  23524944.120    23524952.5644
  21065062.156      490285.373 9    375744.37749  21065061.172    21065066.9724
  20317703.097    -2711029.655 9  -2110336.84849  20317702.227    20317707.7404
  20894890.525     3203387.911 9   2484672.09249  20894889.829    20894895.3134
  23693858.631     7086602.986 9   5497007.11049  23693858.253    23693863.6424
  22449836.081    -1404233.566 9  -1094636.07249  22449835.692    22449840.9764
 99  4 18 16 12 30.0000000  0  6 15 02 07 27 13 26
  23529020.905      155826.481 9    118034.67349  23529018.989    23529028.2114
  21067154.804      501282.134 9    384313.26949  21067153.903    21067159.4164
  20313471.205    -2733268.400 9  -2127665.72949  20313470.297    20313475.9054
  20906302.236     3263356.739 9   2531401.01049  20906301.639    20906307.2444
  23713368.436     7189127.199 9   5576896.00849  23713368.237    23713374.3834
  22449576.585    -1405597.519 9  -1095698.90449  22449576.612    22449582.3424
 99  4 18 16 13  0.0000000  0  6 15 02 07 27 13 26
  23533208.663      177832.669 9    135182.33449  23533206.670    23533215.0284
  21069281.125      512455.928 9    393020.11549  21069280.211    21069285.7034
  20309328.952    -2755036.343 9  -2144627.74849  20309328.065    20309333.6794
  20917800.152     3323778.607 9   2578482.95149  20917799.549    20917805.1584
  23732891.015     7291719.209 9   5656837.72649  23732891.951    23732897.8054
  22449423.573    -1406401.651 9  -1096325.51149  22449423.238    22449429.1794
 99  4 18 16 13 30.0000000  0  6 15 02 07 27 13 26
  23537508.117      200426.359 9    152787.79649  23537507.283    23537514.2694
  21071437.636      523788.420 9    401850.61749  21071436.828    21071442.2414
  20305275.465    -2776337.808 9  -2161226.28249  20305274.421    20305279.9554
  20929383.437     3384649.052 9   2625914.42549  20929382.600    20929388.2094
  23752426.130     7394376.373 9   5736830.22549  23752426.068    23752432.5504
  22449375.795    -1406653.085 9  -1096521.44749  22449375.331    22449381.3154
 99  4 18 16 14  0.0000000  0  6 15 02 07 27 13 26
  23541918.966      223605.125 9    170849.14249  23541918.099    23541926.2544
  21073622.468      535269.358 9    410796.79249  21073621.356    21073626.9304
  20301311.310    -2797169.687 9  -2177458.90249  20301310.175    20301315.7874
  20941053.249     3445974.057 9   2673700.10949  20941052.681    20941058.1284
  23771972.610     7497093.355 9   5816869.32149  23771972.986    23771979.2164
  22449429.947    -1406368.919 9  -1096300.03249  22449429.983    22449434.5554
 99  4 18 16 14 30.0000000  0  6 15 02 07 27 13 26
  23546440.879      247367.834 9    189365.51449  23546441.068    23546448.6174
  21075835.240      546897.375 9    419857.57249  21075834.333    21075839.8464
  20297437.972    -2817524.207 9  -2193319.55449  20297437.037    20297442.4474
  20952810.591     3507758.859 9   2721844.06949  20952810.181    20952815.6614
  23791529.529     7599865.014 9   5896951.03149  23791529.167    23791536.7254
  22449585.705    -1405550.699 9  -1095662.48149  22449585.096    22449590.6074
 99  4 18 16 15  0.0000000  0  6 15 02 07 27 13 26
  23551074.582      271718.340 9    208339.90349  23551072.981    23551079.8424
  21078077.202      558678.586 9    429037.72949  21078076.271    21078081.8004
  20293659.291    -2837381.339 9  -2208792.62949  20293658.393    20293663.8454
  20964655.986     3570006.579 9   2770348.75049  20964655.431    20964660.9384
  23811098.287     7702698.281 9   5977080.73949  23811098.300    23811106.0854
  22449842.915    -1404199.225 9  -1094609.39149  22449842.048    22449848.0424
 99  4 18 16 15 30.0000000  0  6 15 02 07 27 13 26
  23555821.519      296663.699 9    227777.82849  23555820.705    23555828.2644
  21080350.365      570624.051 9    438345.87249  21080349.418    21080354.8074
  20289976.879    -2856732.518 9  -2223871.45749  20289975.802    20289981.3404
  20976590.397     3632722.073 9   2819217.92649  20976589.929    20976595.1794
  23830680.264     7805601.717 9   6057265.09649  23830679.874    23830686.6474
  22450201.755    -1402313.587 9  -1093140.08449  22450201.829    22450207.2974
 99  4 18 16 16  0.0000000  0  6 15 02 07 27 13 26
  23560682.371      322207.503 9    247682.06449  23560681.240    23560689.1514
  21082656.820      582744.444 9    447790.32249  21082656.021    21082661.3594
  20286392.615    -2875567.996 9  -2238548.44249  20286391.633    20286397.1424
  20988613.295     3695902.258 9   2868449.20249  20988612.656    20988618.3204
  23850275.571     7908575.158 9   6137504.02649  23850275.328    23850281.9074
  22450664.674    -1399880.952 9  -1091244.53649  22450664.738    22450669.9824
 99  4 18 16 16 30.0000000  0  6 15 02 07 27 13 26
  23565657.747      348352.627 9    268054.86249  23565656.955    23565663.8884
  21084998.116      595047.626 9    457377.20449  21084997.160    21085002.7434
  20282904.344    -2893899.119 9  -2252832.42549  20282903.218    20282908.6414
  21000723.885     3759543.678 9   2918039.87949  21000723.282    21000728.7734
  23869884.619     8011620.833 9   6217799.22549  23869885.622    23869891.4184
  22451233.843    -1396890.286 9  -1088914.16549  22451233.175    22451239.2464
 99  4 18 16 17  0.0000000  0  6 15 02 07 27 13 26
  23570747.547      375099.268 9    288896.38949  23570746.772    23570754.9504
  21087371.437      607519.473 9    467095.51449  21087370.377    21087376.0734
  20279508.869    -2911742.482 9  -2266736.33149  20279507.829    20279513.3594
  21012921.303     3823641.437 9   2967986.14749  21012920.578    21012926.2924
  23889507.458     8114739.163 9   6298151.04449  23889506.829    23889513.8364
  22451909.497    -1393339.678 9  -1086147.46949  22451909.237    22451914.7694
 99  4 18 16 17 30.0000000  0  6 15 02 07 27 13 26
  23575948.291      402428.652 9    310191.97649  23575947.931    23575955.3334
  21089775.156      620150.966 9    476938.22649  21089774.233    21089779.6964
  20276198.090    -2929140.623 9  -2280293.31649  20276197.131    20276202.4444
  21025203.226     3888183.406 9   3018278.55349  21025202.715    21025208.0874
  23909139.549     8217906.014 9   6378540.68349  23909140.057    23909146.8344
  22452692.467    -1389225.522 9  -1082941.65649  22452692.594    22452697.9954
 99  4 18 16 18  0.0000000  0  6 15 02 07 27 13 26
  23581256.061      430320.149 9    331925.58049  23581255.966    23581262.9204
  21092207.834      632934.769 9    486899.62149  21092206.899    21092212.4214
  20272966.934    -2946120.621 9  -2293524.47049  20272965.938    20272971.4014
  21037568.606     3953163.701 9   3068912.50849  21037567.955    21037573.5834
  23928776.950     8321100.989 9   6458952.23249  23928777.212    23928784.3104
  22453579.043    -1384566.755 9  -1079311.47049  22453578.901    22453583.7594
 99  4 18 16 18 30.0000000  0  6 15 02 07 27 13 26
  23586669.036      458765.146 9    354090.48749  23586667.910    23586675.3844
  21094667.980      645862.884 9    496973.46749  21094666.846    21094672.6404
  20269811.870    -2962700.798 9  -2306444.07749  20269810.922    20269816.4674
  21050015.954     4018574.871 9   3119882.21449  21050015.278    21050020.9144
  23948417.682     8424313.148 9   6539377.17449  23948417.725    23948425.5394
  22454566.604    -1379376.824 9  -1075267.38749  22454566.357    22454571.9344
 99  4 18 16 19  0.0000000  0  7 09 15 02 07 27 13 26
  24518429.781    -3445729.200 9  -2138575.23249  24518429.105    24518437.0674
  23592181.522      487732.780 9    376662.65449  23592180.913    23592188.1554
  21097150.401      658908.170 9    507138.61249  21097149.367    21097155.0014
  20266726.276    -2978915.805 9  -2319079.13749  20266725.278    20266730.7664
  21062540.785     4084392.942 9   3171168.97649  21062540.277    21062545.9274
  23968054.856     8527506.396 9   6619787.36249  23968055.391    23968062.4314
  22455647.296    -1373698.096 9  -1070842.41749  22455647.019    22455652.6824
 99  4 18 16 19 30.0000000  0  7 09 15 02 07 27 13 26
  24499328.625    -3546106.238 9  -2216791.12449  24499328.128    24499336.0224
  23597800.057      517258.045 9    399669.33449  23597799.024    23597806.8574
  21099664.395      672119.218 9    517432.92549  21099663.577    21099669.2284
  20263718.022    -2994724.209 9  -2331397.36149  20263716.921    20263722.5684
  21075150.222     4150655.552 9   3222802.14049  21075149.727    21075155.1694
  23987694.258     8630711.655 9   6700206.93849  23987693.295    23987701.0404
  22456823.808    -1367515.923 9  -1066025.16049  22456824.214    22456828.6754
 99  4 18 16 20  0.0000000  0  7 09 15 02 07 27 13 26
  24480235.727    -3646439.552 9  -2294972.87949  24480234.556    24480241.5284
  23603527.268      547354.159 9    423120.83049  23603525.809    23603534.4134
  21102210.451      685498.547 9    527858.36349  21102209.504    21102215.1304
  20260794.200    -3010089.061 9  -2343369.96149  20260793.135    20260798.7054
  21087845.973     4217371.889 9   3274788.85449  21087845.428    21087850.9994
  24007337.775     8733938.956 9   6780643.66449  24007338.395    24007345.2254
  22458093.461    -1360843.748 9  -1060826.08749  22458093.415    22458099.0744
 99  4 18 16 20 30.0000000  0  7 09 15 02 07 27 13 26
  24461153.992    -3746713.584 9  -2373108.44449  24461152.976    24461160.0464
  23609364.112      578026.605 9    447021.41049  23609362.888    23609371.5424
  21104786.867      699037.702 9    538408.34549  21104785.771    21104791.4944
  20257957.994    -3024993.347 9  -2354983.67649  20257956.828    20257962.5014
  21100626.706     4284534.776 9   3327123.53249  21100626.300    21100631.6834
  24026985.951     8837190.576 9   6861099.36149  24026984.725    24026993.0004
  22459457.752    -1353674.180 9  -1055239.43449  22459457.591    22459463.3784
 99  4 18 16 21  0.0000000  0  7 09 15 02 07 27 13 26
  24442084.388    -3846923.964 9  -2451194.40949  24442083.897    24442091.9054
  23615310.378      609274.650 9    471370.50949  23615309.631    23615316.3374
  21107393.000      712732.907 9    549079.92349  21107392.077    21107397.7564
  20255212.674    -3039420.213 9  -2366225.37949  20255211.719    20255217.1074
  21113493.412     4352149.396 9   3379810.20649  21113493.063    21113498.3294
  24046639.347     8940469.099 9   6941576.00849  24046639.478    24046646.1594
  22460915.975    -1346011.181 9  -1049268.28649  22460915.722    22460921.2514
 99  4 18 16 21 30.0000000  0  7 09 15 02 07 27 13 26
  24423028.403    -3947062.400 9  -2529224.31649  24423027.140    24423033.5254
  23621366.810      641101.514 9    496170.63049  23621365.289    23621373.0244
  21110027.874      726579.225 9    559869.24649  21110027.102    21110032.4824
  20252561.318    -3053353.328 9  -2377082.34449  20252560.174    20252565.7274
  21126444.050     4420205.228 9   3432840.68149  21126443.348    21126449.2624
  24066300.109     9043786.464 9   7022082.91449  24066300.287    24066305.9224
  22462472.670    -1337830.960 9  -1042894.11549  22462472.394    22462477.9584
 99  4 18 16 22  0.0000000  0  7 09 15 02 07 27 13 26
  24403986.237    -4047128.188 9  -2607197.60049  24403984.713    24403992.3194
  23627534.198      673511.583 9    521425.19949  23627533.129    23627540.5734
  21112693.017      740584.448 9    570782.40049  21112692.137    21112697.9004
  20250004.769    -3066788.157 9  -2387551.03449  20250003.784    20250009.2164
  21139477.006     4488693.924 9   3486208.46249  21139476.345    21139481.9954
  24085965.823     9147130.090 9   7102610.29349  24085965.743    24085974.7074
  22464132.470    -1329109.056 9  -1036097.85049  22464132.345    22464137.6384
 99  4 18 16 22 30.0000000  0  7 09 15 02 07 27 13 26
  24384959.033    -4147115.733 9  -2685109.91049  24384958.475    24384966.9574
  23633813.382      706508.762 9    547137.25349  23633811.892    23633820.2804
  21115391.518      754765.100 9    581832.24549  21115390.539    21115396.3254
  20247541.260    -3079734.120 9  -2397638.78949  20247540.150    20247545.5734
  21152591.688     4557611.869 9   3539910.71849  21152590.886    21152596.8434
  24105635.222     9250492.685 9   7183152.43849  24105635.276    24105641.8114
  22465898.808    -1319826.878 9  -1028865.00549  22465898.332    22465904.0344
 99  4 18 16 23  0.0000000  0  7 09 15 02 07 27 13 26
  24365947.513    -4247021.291 9  -2762958.34349  24365947.675    24365955.4674
  23640203.630      740089.836 9    573304.29949  23640202.298    23640210.8164
  21118124.977      769129.510 9    593025.28449  21118123.987    21118129.6324
  20245169.067    -3092200.130 9  -2407352.55349  20245168.282    20245173.4134
  21165788.495     4626961.333 9   3593949.22349  21165788.110    21165793.8774
  24125306.181     9353863.255 9   7263700.78749  24125306.188    24125312.8004
  22467771.814    -1309984.100 9  -1021195.33349  22467771.855    22467777.3884
 99  4 18 16 23 30.0000000  0  7 09 15 02 07 27 13 26
  24346951.498    -4346845.564 9  -2840743.43949  24346951.086    24346960.2154
  23646704.929      774253.736 9    599925.47849  23646703.718    23646711.6494
  21120894.632      783683.865 9    604366.33349  21120893.710    21120899.2864
  20242885.382    -3104201.033 9  -2416703.89549  20242884.463    20242889.7074
  21179065.685     4696732.951 9   3648316.67849  21179065.048    21179070.8474
  24144977.975     9457237.737 9   7344252.18549  24144978.389    24144984.6354
  22469754.006    -1299568.191 9  -1013079.06249  22469754.023    22469759.0734
 99  4 18 16 24  0.0000000  0  7 09 15 02 07 27 13 26
  24327970.120    -4446593.113 9  -2918468.75249  24327969.907    24327977.5384
  23653315.508      808992.160 9    626994.34849  23653314.801    23653321.5184
  21123700.766      798430.220 9    615856.99049  21123699.677    21123705.3814
  20240688.411    -3115746.419 9  -2425700.29049  20240687.314    20240692.8674
  21192425.359     4766938.301 9   3703022.10049  21192424.880    21192430.4644
  24164647.091     9560598.913 9   7424793.23749  24164646.633    24164653.4844
  22471842.312    -1288594.255 9  -1004527.95949  22471842.437    22471847.7414
 99  4 18 16 24 30.0000000  0  7 09 15 02 07 27 13 26
  24309003.716    -4546262.660 9  -2996133.27449  24309003.417    24309012.2964
  23660032.991      844292.692 9    654501.21349  23660031.561    23660040.2524
  21126541.156      813356.432 9    627487.79349  21126540.271    21126546.0164
  20238576.260    -3126845.860 9  -2434349.19749  20238575.306    20238580.6814
  21205869.029     4837584.797 9   3758071.27749  21205868.653    21205874.2674
  24184316.406     9663961.293 9   7505335.20249  24184316.256    24184323.0184
  22474034.369    -1277075.055 9   -995551.99049  22474034.400    22474039.3374
 99  4 18 16 25  0.0000000  0  7 09 15 02 07 27 13 26
  24290050.197    -4645865.070 9  -3073745.49849  24290050.388    24290057.3254
  23666856.779      880151.495 9    682443.10849  23666856.366    23666863.4704
  21129413.303      828449.385 9    639248.53149  21129412.432    21129417.9304
  20236549.016    -3137499.258 9  -2442650.53249  20236547.869    20236553.3264
  21219396.841     4908673.796 9   3813465.25749  21219396.188    21219401.9474
  24203986.996     9767330.462 9   7585882.45849  24203987.768    24203993.5104
  22476327.056    -1265027.160 9   -986164.03349  22476326.883    22476332.5614
 99  4 18 16 25 30.0000000  0  7 09 15 02 07 27 13 26
  24271110.687    -4745394.112 9  -3151300.54149  24271110.280    24271117.2854
  23673786.379      916565.992 9    710817.98849  23673785.589    23673793.5024
  21132315.467      843700.245 9    651132.30749  21132314.543    21132320.0994
  20234605.284    -3147713.503 9  -2450609.67549  20234604.225    20234609.7584
  21233007.827     4980199.771 9   3869199.73949  21233007.365    21233013.1204
  24223658.910     9870706.531 9   7666435.11149  24223659.849    24223666.2724
  22478717.484    -1252465.601 9   -976375.83149  22478717.578    22478723.0074
 99  4 18 16 26  0.0000000  0  7 09 15 02 07 27 13 26
  24252186.192    -4844844.163 9  -3228794.04149  24252186.001    24252192.5504
  23680821.623      953535.801 9    739625.58449  23680820.729    23680827.1214
  21135245.872      859099.326 9    663131.58449  21135245.164    21135250.8154
  20232747.304    -3157477.163 9  -2458217.71049  20232746.321    20232751.7114
  21246702.273     5052164.108 9   3925275.80349  21246701.704    21246707.3964
  24243328.774     9974071.952 9   7746979.44649  24243329.232    24243336.7584
  22481202.848    -1239405.252 9   -966198.95649  22481202.317    22481207.9964
 99  4 18 16 26 30.0000000  0  7 09 15 02 07 27 13 26
  24233278.917    -4944203.052 9  -3306216.49349  24233278.540    24233285.6284
  23687964.623      991072.186 9    768874.67749  23687963.164    23687970.9374
  21138203.238      874640.421 9    675241.51849  21138202.137    21138208.1074
  20230977.109    -3166779.683 9  -2465466.41749  20230975.987    20230981.3814
  21260479.005     5124560.814 9   3981688.77449  21260478.247    21260483.9904
  24262997.376    10077431.242 9   7827519.01549  24262997.027    24263005.7844
  22483782.847    -1225847.534 9   -955634.52149  22483782.751    22483788.6664
 99  4 18 16 27  0.0000000  0  7 09 15 02 07 27 13 26
  24214388.674    -5043472.664 9  -3383569.38849  24214388.438    24214395.2654
  23695216.613     1029181.660 9    798570.32149  23695215.714    23695224.0244
  21141187.051      890320.162 9    687459.49049  21141186.061    21141191.8214
  20229296.752    -3175610.061 9  -2472347.22049  20229295.740    20229301.1004
  21274337.485     5197387.406 9   4038436.71449  21274336.813    21274342.5474
  24282663.755    10180778.578 9   7908049.25649  24282664.071    24282669.6194
  22486458.413    -1211787.164 9   -944678.40449  22486458.549    22486463.5684
 99  4 18 16 27 30.0000000  0  7 09 15 02 07 27 13 26
  24195517.754    -5142641.132 9  -3460843.47349  24195517.252    24195524.4204
  23702577.880     1067865.204 9    828713.28649  23702576.278    23702584.8494
  21144197.061      906137.834 9    699784.93449  21144196.068    21144201.7854
  20227707.669    -3183960.825 9  -2478854.30349  20227706.600    20227712.0074
  21288276.973     5270639.629 9   4095516.31749  21288276.593    21288282.6534
  24302326.319    10284105.345 9   7988563.45349  24302327.099    24302333.1354
  22489232.260    -1197211.007 9   -933320.38949  22489231.929    22489237.5824
 99  4 18 16 28  0.0000000  0  8 09 15 02 04 07 27 13 26
  24176664.929    -5241714.134 9  -3538043.15449  24176664.803    24176670.4284
  23710048.469     1107123.675 9    859304.24749  23710048.065    23710054.9294
  21147235.001      922102.370 9    712224.82149  21147233.955    21147239.6044
  24386720.958    -1323832.99549                  24386723.712    24386730.6344
  20226211.658    -3191822.379 9  -2484980.18149  20226210.636    20226215.9444
  21302297.727     5344318.928 9   4152928.70949  21302297.286    21302302.9594
  24321986.308    10387417.913 9   8069066.60849  24321985.780    24321993.6924
  22492106.257    -1182108.003 9   -921551.83849  22492106.129    22492111.9234
 99  4 18 16 28 30.0000000  0  8 09 15 02 04 07 27 13 26
  24157830.436    -5340690.486 9  -3615167.52749  24157829.982    24157836.6084
  23717627.908     1146953.887 9    890340.72049  23717627.358    23717635.3264
  21150302.957      938224.427 9    724787.45349  21150302.121    21150307.9144
  24366606.935    -1847979.811 9  -1406199.95849  24366605.540    24366616.0474
  20224805.825    -3199210.000 9  -2490736.76249  20224804.669    20224810.0354
  21316400.184     5418427.728 9   4210675.77149  21316399.344    21316405.4074
  24341645.783    10490728.803 9   8149568.45449  24341646.079    24341653.4384
  22495081.715    -1166472.139 9   -909368.06649  22495081.509    22495087.1644
 99  4 18 16 29  0.0000000  0  8 09 15 02 04 07 27 13 26
  24139012.194    -5439581.191 9  -3692225.17749  24139011.530    24139018.4994
  23725314.133     1187345.522 9    921814.66649  23725313.977    23725322.0684
  21153402.695      954513.620 9    737480.31949  21153401.705    21153407.5504
  24346478.503    -1953756.312 9  -1488623.04849  24346477.654    24346487.5484
  20223487.706    -3206136.834 9  -2496134.28649  20223486.751    20223492.1494
  21330584.600     5492967.084 9   4268758.34049  21330583.904    21330589.9944
  24361302.901    10594026.722 9   8230060.15749  24361303.471    24361311.1064
  22498158.462    -1150304.036 9   -896769.56249  22498158.279    22498163.9544
 99  4 18 16 29 30.0000000  0  8 09 15 02 04 07 27 13 26
  24120211.336    -5538380.248 9  -3769211.40549  24120211.035    24120217.1634
  23733107.103     1228297.579 9    953725.30149  23733106.662    23733114.1814
  21156537.263      970985.754 9    750315.74549  21156536.125    21156542.0154
  24326336.677    -2059602.519 9  -1571100.43849  24326336.338    24326345.4984
  20222254.676    -3212616.520 9  -2501183.37649  20222253.615    20222259.0944
  21344851.350     5567939.037 9   4327178.00149  21344850.967    21344856.6824
  24380956.031    10697303.674 9   8310535.54649  24380955.826    24380963.6234
  22501336.004    -1133606.026 9   -883758.14949  22501335.600    22501341.6194
 99  4 18 16 30  0.0000000  0  8 09 15 02 04 07 27 13 26
  24101427.224    -5637091.734 9  -3846129.40049  24101426.430    24101433.3764
  23741005.335     1269802.850 9    986067.01049  23741004.874    23741012.9104
  21159709.726      987657.113 9    763306.39249  21159708.918    21159714.7384
  24306182.181    -2165514.519 9  -1653629.11349  24306181.890    24306190.7854
  20221102.586    -3218670.733 9  -2505900.93849  20221101.633    20221107.0534
  21359201.301     5643348.344 9   4385938.44449  21359200.563    21359206.5874
  24400604.550    10800556.909 9   8390992.45849  24400604.613    24400611.1404
  22504613.132    -1116384.756 9   -870339.00249  22504613.230    22504618.6364
 99  4 18 16 30 30.0000000  0  8 09 15 02 04 07 27 13 26
  24082659.694    -5735715.754 9  -3922979.24949  24082658.972    24082665.3784
  23749007.649     1311854.652 9   1018834.58349  23749006.785    23749014.6254
  21162920.447     1004529.387 9    776453.60649  21162919.666    21162925.5614
  24286016.227    -2271487.164 9  -1736205.05049  24286015.751    24286024.0624
  20220028.585    -3224314.860 9  -2510298.94749  20220027.716    20220032.9164
  21373632.698     5719185.333 9   4445032.15149  21373632.212    21373638.2314
  24420244.963    10903767.319 9   8471415.98449  24420244.437    24420251.3394
  22507986.856    -1098655.796 9   -856524.25449  22507986.645    22507992.3814
 99  4 18 16 31  0.0000000  0  8 09 15 02 04 07 27 13 26
  24063909.798    -5834246.719 9  -3999756.56649  24063908.243    24063914.7774
  23757112.675     1354446.603 9   1052023.05649  23757111.434    23757119.5794
  21166168.456     1021597.556 9    789753.47049  21166167.647    21166173.2594
  24265840.363    -2377511.277 9  -1818821.08149  24265840.558    24265848.0274
  20219032.873    -3229547.507 9  -2514376.32249  20219031.985    20219037.1084
  21388142.879     5795436.499 9   4504448.60149  21388142.197    21388148.1284
  24439875.341    11006924.955 9   8551798.40449  24439875.626    24439883.4124
  22511453.813    -1080436.850 9   -842327.68949  22511453.235    22511459.3334
 99  4 18 16 31 30.0000000  0  8 09 15 02 04 07 27 13 26
  24045180.515    -5932669.230 9  -4076449.38849  24045179.309    24045185.7434
  23765320.272     1397576.958 9   1085631.04949  23765319.002    23765327.4804
  21169452.011     1038852.772 9    803199.07949  21169451.094    21169456.8664
  24245657.623    -2483571.887 9  -1901465.57149  24245657.331    24245665.8804
  20218115.881    -3234366.331 9  -2518131.24549  20218114.680    20218119.9784
  21402728.068     5872082.096 9   4564172.38949  21402727.430    21402733.6784
  24459496.314    11110033.339 9   8632142.44049  24459496.473    24459504.4384
  22515012.878    -1061733.726 9   -827753.85849  22515012.731    22515018.4904
 99  4 18 16 32  0.0000000  0  8 09 15 02 04 07 27 13 26
  24026472.523    -6030980.412 9  -4153055.45349  24026471.720    24026478.2024
  23773630.106     1441244.994 9   1119658.03249  23773629.099    23773638.3244
  21172766.831     1056272.238 9    816772.68149  21172765.869    21172771.5554
  24225468.986    -2589663.445 9  -1984134.19349  24225468.617    24225475.8884
  20217278.420    -3238767.240 9  -2521560.51849  20217277.450    20217282.7024
  21417386.920     5949114.558 9   4624197.63949  21417386.322    21417392.2004
  24479108.908    11213097.956 9   8712452.36349  24479108.176    24479115.8644
  22518663.876    -1042547.740 9   -812803.75549  22518663.604    22518669.1144
 99  4 18 16 32 30.0000000  0  8 09 15 02 04 07 27 13 26
  24007785.075    -6129183.766 9  -4229577.48349  24007783.827    24007790.5194
  23782043.403     1485457.269 9   1154109.08649  23782042.235    23782049.2654
  21176109.064     1073835.460 9    830458.30049  21176108.165    21176113.6214
  24205274.292    -2695786.442 9  -2066827.30549  24205273.308    24205281.6734
  20216523.227    -3242735.676 9  -2524652.79949  20216522.093    20216527.5574
  21432118.498     6026529.185 9   4684520.67149  21432118.063    21432123.6124
  24498713.984    11316122.284 9   8792730.88249  24498715.412    24498721.1664
  22522406.727    -1022879.348 9   -797477.75749  22522406.602    22522412.6804
 99  4 18 16 33  0.0000000  0  8 09 15 02 04 07 27 13 26
  23989117.407    -6227283.098 9  -4306018.46949  23989115.871    23989123.2374
  23790560.956     1530216.877 9   1188986.64449  23790559.249    23790567.9104
  21179475.517     1091526.232 9    844243.30649  21179474.565    21179480.1624
  24185073.123    -2801943.588 9  -2149547.02749  24185072.543    24185081.1964
  20215852.216    -3246261.830 9  -2527400.44549  20215851.008    20215856.5594
  21446924.181     6104333.499 9   4745147.35449  21446923.644    21446929.5934
  24518312.044    11419109.907 9   8872980.79649  24518312.875    24518318.1734
  22526244.590    -1002711.650 9   -781762.69149  22526244.905    22526250.2544
 99  4 18 16 33 30.0000000  0  8 09 15 02 04 07 27 13 26
  23970466.304    -6325295.056 9  -4382391.36649  23970464.972    23970472.7654
  23799183.003     1575525.619 9   1224292.10649  23799183.348    23799189.9284
  21182867.170     1109349.364 9    858131.45349  21182866.267    21182872.1144
  24164864.745    -2908138.758 9  -2232296.35849  24164864.522    24164872.1734
  20215264.318    -3249351.183 9  -2529807.72149  20215263.354    20215268.7024
  21461806.913     6182542.424 9   4806089.32149  21461806.151    21461812.3404
  24537902.225    11522055.852 9   8953198.23349  24537903.413    24537910.9314
  22530179.715     -982032.796 9   -765649.32549  22530179.561    22530184.5884
 99  4 18 16 34  0.0000000  0  8 09 15 02 04 07 27 13 26
  23951829.462    -6423231.896 9  -4458705.72949  23951829.064    23951835.6024
  23807909.203     1621381.526 9   1260023.90749  23807908.958    23807915.6294
  21186287.402     1127322.487 9    872136.47349  21186286.629    21186292.1054
  24144647.681    -3014379.482 9  -2315081.19549  24144646.519    24144655.3304
  20214759.320    -3252005.135 9  -2531875.73249  20214758.414    20214763.7294
  21476769.011     6261168.536 9   4867356.36749  21476768.642    21476774.2834
  24557480.691    11624940.322 9   9033367.77349  24557481.389    24557489.1174
  22534212.361     -960841.439 9   -749136.60349  22534212.160    22534217.3004
 99  4 18 16 34 30.0000000  0  8 09 15 02 04 07 27 13 26
  23933207.198    -6521092.367 9  -4534960.59249  23933206.406    23933212.8284
  23816738.805     1667781.731 9   1296179.84849  23816737.935    23816746.9334
  21189742.134     1145476.948 9    886282.80149  21189741.257    21189747.0544
  24124422.058    -3120665.186 9  -2397901.08949  24124420.931    24124429.2364
  20214339.118    -3254213.266 9  -2533596.34649  20214338.255    20214343.5424
  21491810.574     6340212.444 9   4928948.97049  21491809.740    21491816.1564
  24577046.308    11727756.969 9   9113484.47949  24577044.856    24577052.4184
  22538341.677     -939141.593 9   -732227.66249  22538341.381    22538347.4424
 99  4 18 16 35  0.0000000  0  8 09 15 02 04 07 27 13 26
  23914603.954    -6618852.760 9  -4611137.46249  23914603.055    23914609.3344
  23825671.843     1714724.852 9   1332758.86049  23825671.991    23825679.0864
  21193234.724     1163830.401 9    900584.18249  21193233.720    21193239.5474
  24104189.946    -3226985.302 9  -2480747.83449  24104188.657    24104198.6564
  20214005.484    -3255966.954 9  -2534962.85049  20214004.706    20214009.8584
  21506931.406     6419672.906 9   4990866.16349  21506930.822    21506936.9624
  24596598.473    11830503.349 9   9193546.40349  24596598.159    24596606.1744
  22542568.159     -916931.162 9   -714920.86349  22542568.155    22542573.9414
 99  4 18 16 35 30.0000000  0  8 09 15 02 04 07 27 13 26
  23896022.908    -6716496.345 9  -4687223.32249  23896022.398    23896028.8494
  23834708.731     1762213.678 9   1369763.08049  23834706.386    23834715.4714
  21196769.186     1182403.996 9    915057.10349  21196768.363    21196773.9044
  24083953.512    -3333328.274 9  -2563612.37449  24083952.756    24083961.4234
  20213759.167    -3257261.549 9  -2535971.62349  20213758.186    20213763.4914
  21522129.368     6499538.448 9   5053098.99349  21522128.950    21522134.9734
  24616137.109    11933179.104 9   9273553.29549  24616138.242    24616145.3834
  22546891.495     -894212.096 9   -697217.73049  22546891.462    22546897.5724
 99  4 18 16 36  0.0000000  0  8 09 15 02 04 07 27 13 26
  23877467.498    -6814005.306 9  -4763204.27549  23877466.444    23877473.6094
  23843850.226     1810251.515 9   1407195.10949  23843850.206    23843857.8224
  21200343.391     1201186.460 9    929692.78149  21200342.308    21200347.9824
  24063714.254    -3439685.470 9  -2646488.01049  24063713.138    24063722.8114
  20213603.574    -3258079.414 9  -2536608.91649  20213602.474    20213607.8434
  21537402.021     6579796.354 9   5115637.56749  21537401.697    21537407.5184
  24635663.985    12035792.849 9   9353511.87149  24635664.414    24635672.2074
  22551312.359     -870980.576 9   -679115.27349  22551312.201    22551317.6354
 99  4 18 16 36 30.0000000  0  8 09 15 02 04 07 27 13 26
  23858941.174    -6911361.519 9  -4839066.19049  23858940.289    23858947.2394
  23853096.632     1858840.890 9   1445056.89549  23853094.426    23853104.3254
  21203953.483     1220157.687 9    944475.54749  21203952.439    21203958.4194
  24043474.906    -3546043.399 9  -2729364.19449  24043472.920    24043482.8744
  20213540.276    -3258411.874 9  -2536867.97349  20213539.098    20213544.6454
  21552749.526     6660447.876 9   5178482.85649  21552748.942    21552755.2564
  24655182.735    12138364.249 9   9433437.45249  24655183.512    24655190.4774
  22555833.085     -847223.863 9   -660603.58049  22555832.622    22555838.6204
 99  4 18 16 37  0.0000000  0  8 09 15 02 04 07 27 13 26
  23840445.760    -7008555.579 9  -4914801.75849  23840445.313    23840450.8304
  23862448.164     1907983.109 9   1483349.48849  23862447.471    23862455.3734
  21207597.202     1239305.521 9    959395.93449  21207596.297    21207601.7084
  24023237.251    -3652392.456 9  -2812233.47749  24023236.390    24023245.7984
  20213567.597    -3258268.255 9  -2536756.05349  20213566.559    20213571.8764
  21568173.047     6741498.869 9   5241639.42349  21568172.635    21568178.5254
  24674691.982    12240885.223 9   9513323.71949  24674692.356    24674700.5304
  22560453.404     -822944.564 9   -641684.67949  22560452.903    22560458.9094
 99  4 18 16 37 30.0000000  0  8 09 15 02 04 07 27 13 26
  23821979.131    -7105598.969 9  -4990419.92049  23821978.457    23821985.4944
  23871904.434     1957676.283 9   1522071.38849  23871903.195    23871911.1294
  21211272.816     1258620.870 9    974446.84649  21211271.662    21211277.5754
  24003001.161    -3758733.034 9  -2895096.13549  24003000.698    24003009.5954
  20213683.016    -3257661.601 9  -2536283.33349  20213681.979    20213687.4964
  21583675.130     6822962.414 9   5305117.46149  21583674.453    21583680.6414
  24694191.154    12343352.677 9   9593168.30249  24694191.997    24694199.4894
  22565170.978     -798153.875 9   -622367.28649  22565170.857    22565176.4904
 99  4 18 16 38  0.0000000  0  8 09 15 02 04 07 27 13 26
  23803541.098    -7202491.428 9  -5065920.46949  23803540.382    23803546.4634
  23881463.651     2007910.590 9   1561214.94349  23881462.288    23881472.2414
  21214977.728     1278090.385 9    989617.89249  21214976.827    21214982.7014
  23982766.012    -3865069.103 9  -2977955.27249  23982764.797    23982774.8834
  20213885.142    -3256599.488 9  -2535455.70449  20213884.219    20213889.5534
  21599257.075     6904845.883 9   5368922.71449  21599256.706    21599262.4304
  24713680.729    12445769.967 9   9672973.77349  24713683.093    24713689.8464
  22569983.763     -772862.980 9   -602660.12849  22569983.635    22569989.1384
 99  4 18 16 38 30.0000000  0  7 09 15 02 04 07 27 26
  23785132.277    -7299230.504 9  -5141301.50849  23785132.256    23785138.4094
  23891124.980     2058681.585 9   1600776.69849  23891125.288    23891132.3054
  21218714.663     1297728.120 9   1004920.01549  21218713.530    21218719.7524
  23962532.314    -3971397.487 9  -3060808.43949  23962532.644    23962540.6844
  20214169.646    -3255104.371 9  -2534290.67849  20214168.812    20214174.0704
  21614920.231     6987156.091 9   5433060.47949  21614919.842    21614926.2144
  22574889.243     -747084.715 9   -582573.20149  22574889.409    22574894.6464
 99  4 18 16 39  0.0000000  0  7 09 15 02 04 07 27 26
  23766753.108    -7395813.353 9  -5216560.80449  23766752.220    23766758.0154
  23900891.332     2110003.755 9   1640767.95749  23900889.828    23900897.5034
  21222488.124     1317557.701 9   1020371.62449  21222487.348    21222492.9564
  23942302.764    -4077704.512 9  -3143644.96049  23942302.079    23942310.7584
  20214535.939    -3253179.760 9  -2532790.98049  20214535.099    20214540.2984
  21630666.314     7069901.903 9   5497537.68849  21630665.872    21630671.5834
  22579886.746     -720822.625 9   -562109.26049  22579886.470    22579892.8254
 99  4 18 16 39 30.0000000  0  7 09 15 02 04 07 27 26
  23748396.090    -7492279.918 9  -5291729.49249  23748395.628    23748401.7474
  23910755.333     2161839.774 9   1681159.60249  23910754.019    23910762.5394
  21226289.827     1337535.618 9   1035938.82449  21226288.926    21226294.7254
  23922070.525    -4184025.549 9  -3226492.38449  23922070.345    23922078.2774
  20214977.441    -3250859.973 9  -2530983.35349  20214976.513    20214981.5664
  21646487.326     7153041.635 9   5562321.83749  21646486.639    21646492.7114
  22584972.392     -694097.659 9   -541284.64149  22584971.729    22584977.7234
 99  4 18 16 40  0.0000000  0  7 09 15 02 04 07 27 26
  23730061.331    -7588629.865 9  -5366807.30949  23730060.561    23730067.3844
  23920716.593     2214187.285 9   1721949.82349  23920715.104    23920724.0754
  21230120.951     1357668.279 9   1051626.59949  21230119.824    21230125.7924
  23901836.612    -4290355.255 9  -3309346.57349  23901836.273    23901844.4544
  20215495.092    -3248139.786 9  -2528863.72649  20215494.135    20215499.1424
  21662380.033     7236558.105 9   5627399.55249  21662379.717    21662385.7634
  22590148.562     -666897.064 9   -520089.40749  22590148.186    22590154.3014
 99  4 18 16 40 30.0000000  0  7 09 15 02 04 07 27 26
  23711748.458    -7684863.999 9  -5441794.89449  23711748.038    23711753.5914
  23930776.342     2267051.828 9   1763142.92249  23930775.089    23930783.8904
  21233982.399     1377960.348 9   1067438.59249  21233981.421    21233987.1644
  23881603.689    -4396680.452 9  -3392197.22549  23881602.920    23881611.4604
  20216087.448    -3245026.853 9  -2526438.06049  20216086.435    20216091.6494
  21678344.294     7320450.752 9   5692770.39449  21678343.695    21678350.0384
  22595414.766     -639223.522 9   -498525.63349  22595414.220    22595420.2454
 99  4 18 16 41  0.0000000  0  7 09 15 02 04 07 27 26
  23693456.769    -7780987.102 9  -5516695.96249  23693455.812    23693462.3434
  23940934.143     2320431.601 9   1804737.49149  23940932.417    23940940.7304
  21237873.658     1398409.103 9   1083372.67049  21237872.667    21237878.5384
  23861370.981    -4503003.832 9  -3475046.47049  23861370.497    23861378.5694
  20216757.352    -3241506.442 9  -2523694.88549  20216756.351    20216761.6774
  21694377.395     7404705.219 9   5758423.16249  21694376.985    21694383.2764
  22600771.338     -611074.743 9   -476591.56149  22600770.432    22600776.6424
 99  4 18 16 41 30.0000000  0  7 09 15 02 04 07 27 26
  23675187.497    -7876992.360 9  -5591505.19049  23675186.340    23675192.5514
  23951190.239     2374327.978 9   1846734.61649  23951189.007    23951198.3654
  21241795.574     1419018.709 9   1099432.09249  21241794.732    21241800.6804
  23841140.739    -4609313.627 9  -3557885.15849  23841139.033    23841148.4264
  20217509.384    -3237554.562 9  -2520615.49549  20217508.350    20217513.7954
  21710480.048     7489324.775 9   5824360.42649  21710479.558    21710485.8234
  22606219.071     -582446.711 9   -454284.03849  22606218.621    22606224.1454
 99  4 18 16 42  0.0000000  0  7 09 15 02 04 07 27 26
  23656942.311    -7972871.002 9  -5666215.76049  23656940.371    23656948.8904
  23961546.876     2428751.907 9   1889142.83049  23961546.596    23961555.3204
  21245753.374     1439816.720 9   1115638.32249  21245752.741    21245758.3154
  23820917.447    -4715587.048 9  -3640695.48849  23820917.042    23820924.7344
  20218344.012    -3233168.552 9  -2517197.82249  20218342.972    20218348.4724
  21726653.376     7574315.506 9   5890586.91649  21726652.821    21726658.7434
  22611757.607     -553341.687 9   -431604.83149  22611757.106    22611762.7114
 99  4 18 16 42 30.0000000  0  7 09 15 02 04 07 27 26
  23638722.917    -8068614.264 9  -5740820.83849  23638721.174    23638728.8554
  23972003.643     2483701.911 9   1931960.95449  23972002.728    23972011.3244
  21249747.359     1460805.087 9   1131992.88549  21249746.367    21249752.1754
  23800699.643    -4821831.104 9  -3723482.92249  23800700.028    23800706.6994
  20219261.228    -3228348.717 9  -2513442.09849  20219260.068    20219265.6334
  21742898.025     7659681.435 9   5957105.76849  21742897.525    21742903.3504
  22617386.335     -523762.421 9   -408556.07949  22617386.249    22617391.8644
 99  4 18 16 43  0.0000000  0  7 09 15 02 04 07 27 26
  23620529.404    -8164221.174 9  -5815319.67149  23620528.838    23620535.2324
  23982561.041     2539181.044 9   1975191.40049  23982559.829    23982568.1674
  21253777.717     1481984.511 9   1148496.31949  21253776.777    21253782.6614
  23780487.139    -4928048.985 9  -3806249.99149  23780486.492    23780493.9384
  20220265.117    -3223073.294 9  -2509331.37849  20220264.192    20220269.5734
  21759214.537     7745425.099 9   6023918.95249  21759213.940    21759220.5384
  22623108.149     -493694.552 9   -385126.60649  22623107.938    22623113.8034
 99  4 18 16 43 30.0000000  0  7 09 15 02 04 07 27 26
  23602364.453    -8259677.841 9  -5889701.43449  23602363.544    23602369.8524
  23993219.640     2595191.099 9   2018835.53949  23993219.670    23993225.3024
  21257845.223     1503359.262 9   1165151.95649  21257844.391    21257850.1234
  23760281.208    -5034232.220 9  -3888990.04349  23760281.290    23760287.9884
  20221354.102    -3217350.862 9  -2504872.34149  20221353.129    20221358.3814
  21775607.405     7831569.925 9   6091044.73349  21775606.831    21775612.8914
  22628924.110     -463131.433 9   -361311.21349  22628924.512    22628929.6294
 99  4 18 16 44  0.0000000  0  7 09 15 02 04 07 27 26
  23584229.677    -8354976.493 9  -5963960.06749  23584228.408    23584235.0844
  24003977.895     2651725.311 9   2062888.11749  24003977.422    24003984.4334
  21261950.198     1524930.869 9   1181960.98749  21261949.299    21261955.0584
  23740079.473    -5140392.378 9  -3971712.13749  23740078.696    23740086.5794
  20222524.020    -3211203.033 9  -2500081.82649  20222523.069    20222528.4764
  21792075.735     7918111.351 9   6158479.55049  21792075.030    21792081.7264
  22634835.237     -432068.637 9   -337106.47549  22634835.549    22634840.6634
 99  4 18 16 44 30.0000000  0  7 09 15 02 04 07 27 26
  23566127.091    -8450105.996 9  -6038086.90549  23566126.310    23566132.2264
  24014833.843     2708772.638 9   2107340.53849  24014833.477    24014840.8974
  21266088.065     1546675.215 9   1198904.62449  21266086.884    21266092.7814
  23719878.796    -5246547.248 9  -4054430.07649  23719878.110    23719886.3074
  20223776.103    -3204623.234 9  -2494954.70949  20223775.002    20223780.2624
  21808619.631     8005049.944 9   6226223.84849  21808619.197    21808625.5334
  22640839.378     -400516.731 9   -312520.60649  22640839.193    22640844.7564
 99  4 18 16 45  0.0000000  0  7 09 15 02 04 07 27 26
  23548057.805    -8545060.581 9  -6112077.43749  23548057.159    23548063.3464
  24025787.427     2766333.697 9   2152193.27449  24025787.204    24025794.9294
  21270259.070     1568594.073 9   1215984.23949  21270258.167    21270263.8274
  23699683.494    -5352673.691 9  -4137125.87749  23699682.531    23699690.7574
  20225109.587    -3197615.645 9  -2489494.25149  20225108.479    20225113.7654
  21825238.732     8092383.309 9   6294275.75849  21825238.282    21825244.8764
  22646935.113     -368483.770 9   -287559.90149  22646934.633    22646940.7764
 99  4 18 16 45 30.0000000  0  7 09 15 02 04 07 27 26
  23530022.896    -8639834.355 9  -6185927.06649  23530022.275    23530028.8374
  24036836.992     2824399.157 9   2197439.02749  24036836.654    24036844.6154
  21274464.548     1590693.858 9   1233204.83949  21274463.775    21274469.3434
  23679493.905    -5458769.306 9  -4219797.67549  23679493.967    23679501.4074
  20226520.246    -3190202.530 9  -2483717.80049  20226519.362    20226524.5694
  21841931.062     8180101.715 9   6362627.70349  21841930.696    21841936.5614
  22653120.040     -335981.838 9   -262233.75349  22653119.861    22653125.5194
 99  4 18 16 46  0.0000000  0  7 09 15 02 04 07 27 26
  23512021.990    -8734429.081 9  -6259637.17949  23512021.866    23512027.0764
  24047981.559     2882963.974 9   2243073.88849  24047981.229    24047989.2074
  21278702.991     1612967.013 9   1250560.53249  21278702.151    21278707.8334
  23659310.338    -5564834.109 9  -4302445.47349  23659310.140    23659317.9244
  20228007.935    -3182384.709 9  -2477625.99549  20228006.932    20228012.2874
  21858691.969     8268180.713 9   6431260.62549  21858691.433    21858697.8674
  22659392.301     -303020.749 9   -236549.83649  22659391.909    22659397.6174
 99  4 18 16 46 30.0000000  0  7 09 15 02 04 07 27 26
  23494055.476    -8828843.587 9  -6333206.86549  23494055.754    23494060.9404
  24059220.805     2942026.010 9   2289096.18649  24059220.208    24059228.2584
  21282974.613     1635414.306 9   1268051.91449  21282973.894    21282979.5724
  23639135.240    -5670854.952 9  -4385059.01149  23639134.438    23639142.3334
  20229573.084    -3174159.834 9  -2471217.00149  20229572.119    20229577.3844
  21875519.644     8356610.482 9   6500166.86649  21875519.353    21875525.7774
  22665750.387     -269609.227 9   -210514.90649  22665750.927    22665756.1054
 99  4 18 16 47  0.0000000  0  7 09 15 02 04 07 27 26
  23476121.060    -8923089.914 9  -6406645.50349  23476120.460    23476127.5854
  24070554.237     3001583.403 9   2335504.46749  24070553.053    24070560.8394
  21287282.273     1658051.106 9   1285690.96149  21287281.372    21287287.3174
  23618970.477    -5776821.389 9  -4467630.16449  23618969.528    23618977.5174
  20231212.948    -3165542.407 9  -2464502.12749  20231212.163    20231217.4394
  21892412.994     8445385.215 9   6569341.91349  21892412.118    21892418.6224
  22672193.935     -235748.324 9   -184129.83749  22672193.647    22672198.9554
 99  4 18 16 47 30.0000000  0  7 09 15 02 04 07 27 26
  23458218.766    -9017167.191 9  -6479952.40649  23458217.394    23458224.4914
  24081980.928     3061630.892 9   2382294.65249  24081980.362    24081988.1184
  21291625.808     1680876.404 9   1303476.89449  21291624.735    21291630.7484
  23598813.731    -5882745.413 9  -4550168.25649  23598813.282    23598821.9434
  20232925.928    -3156540.659 9  -2457487.78349  20232924.938    20232930.2774
  21909372.178     8534506.239 9   6638786.80249  21909371.738    21909377.9824
  22678722.264     -201441.858 9   -157397.56249  22678721.688    22678727.5334
 99  4 18 16 48  0.0000000  0  7 09 15 02 04 07 27 26
  23440347.512    -9111080.872 9  -6553131.83149  23440346.886    23440353.1454
  24093499.801     3122162.431 9   2429462.01749  24093499.707    24093507.7594
  21296002.866     1703878.031 9   1321400.22549  21296001.975    21296007.7524
  23578666.573    -5988619.027 9  -4632667.06249  23578665.669    23578673.3624
  20234713.280    -3147147.851 9  -2450168.71649  20234712.450    20234717.7574
  21926397.443     8623974.386 9   6708502.17649  21926397.011    21926403.0204
  22685333.852     -166697.974 9   -130324.44049  22685334.240    22685339.2304
 99  4 18 16 48 30.0000000  0  7 09 15 02 04 07 27 26
  23422506.591    -9204835.219 9  -6626187.10049  23422505.757    23422512.5994
  24105110.407     3183176.283 9   2477005.20349  24105109.260    24105118.4104
  21300413.770     1727057.425 9   1339462.07649  21300412.671    21300418.5884
  23558530.143    -6094436.624 9  -4715122.22449  23558529.419    23558537.7374
  20236575.865    -3137360.041 9  -2442541.85449  20236575.061    20236580.3094
  21943490.899     8713800.514 9   6778496.49649  21943490.158    21943496.9714
  22692028.421     -131518.020 9   -102911.52949  22692028.246    22692034.2754
 99  4 18 16 49  0.0000000  0  7 09 15 02 04 07 27 26
  23404695.980    -9298430.492 9  -6699118.41349  23404694.607    23404701.6164
  24116813.869     3244678.697 9   2524929.06749  24116812.918    24116822.6374
  21304857.735     1750410.522 9   1357659.27849  21304856.855    21304862.5404
  23538403.501    -6200202.161 9  -4797536.82249  23538402.793    23538410.7614
  20238515.141    -3127169.322 9  -2434601.03849  20238514.148    20238519.5264
  21960654.156     8803993.898 9   6848776.98649  21960653.996    21960660.1644
  22698807.653      -95893.231 9    -75151.98949  22698807.602    22698813.3454
 99  4 18 16 49 30.0000000  0  7 09 15 02 04 07 27 26
  23386918.835    -9391849.943 9  -6771912.72449  23386918.713    23386925.1184
  24128610.959     3306672.936 9   2573236.21149  24128610.770    24128619.0624
  21309333.262     1773929.661 9   1375985.86449  21309332.306    21309338.1634
  23518286.916    -6305914.453 9  -4879909.94049  23518285.460    23518294.3764
  20240533.456    -3116563.232 9  -2426336.55549  20240532.561    20240537.7614
  21977886.539     8894550.557 9   6919340.55049  21977885.826    21977892.4684
  22705672.431      -59818.666 9    -47041.97349  22705672.190    22705677.9454
 99  4 18 16 50  0.0000000  0  7 09 15 02 04 07 27 26
  23369174.870    -9485094.856 9  -6844571.03549  23369174.447    23369180.9604
  24140503.338     3369167.182 9   2621932.96249  24140501.978    24140510.7034
  21313840.874     1797617.124 9   1394443.60749  21313839.986    21313845.8284
  23498182.790    -6411561.524 9  -4962232.22149  23498182.187    23498189.8534
  20242633.532    -3105527.353 9  -2417737.17549  20242632.577    20242637.8464
  21995187.126     8985465.636 9   6990183.39749  21995186.309    21995193.4814
  22712625.240      -23281.559 9    -18571.54449  22712625.217    22712630.7234
 99  4 18 16 50 30.0000000  0  7 09 15 02 04 07 27 26
  23351466.063    -9578155.072 9  -6917085.42349  23351465.497    23351471.9754
  24152492.390     3432169.659 9   2671025.73749  24152492.208    24152500.1564
  21318382.400     1821482.852 9   1413040.26349  21318381.512    21318387.1854
  23478090.907    -6517145.091 9  -5044505.01649  23478090.486    23478098.0124
  20244813.789    -3094070.220 9  -2408809.54149  20244812.728    20244817.9154
  22012555.657     9076737.728 9   7061304.43849  22012555.385    22012562.2654
  22719668.558       13730.985 9     10269.36049  22719668.271    22719674.4774
 99  4 18 16 51  0.0000000  0  7 09 15 02 04 07 27 26
  23333794.349    -9671020.468 9  -6989447.99349  23333794.320    23333799.8144
  24164577.432     3495676.178 9   2720511.26949  24164576.242    24164585.7824
  21322958.731     1845531.602 9   1431779.53249  21322957.724    21322963.5624
  23458012.664    -6622657.224 9  -5126722.16249  23458012.846    23458020.1904
  20247072.502    -3082200.369 9  -2399560.30649  20247071.394    20247076.7874
  22029990.337     9168357.159 9   7132696.12349  22029989.516    22029996.6524
  22726801.118       51212.638 9     39475.79949  22726801.113    22726806.3154
 99  4 18 16 51 30.0000000  0  7 09 15 02 04 07 27 26
  23316158.538    -9763696.902 9  -7061663.33549  23316157.680    23316164.8914
  24176755.337     3559671.433 9   2770377.65549  24176754.831    24176763.7114
  21327571.037     1869769.289 9   1450666.02249  21327570.180    21327576.0284
  23437949.570    -6728089.026 9  -5208876.71549  23437949.415    23437956.9544
  20249407.273    -3069930.971 9  -2389999.74049  20249406.358    20249411.5314
  22047490.480     9260320.457 9   7204355.76649  22047489.900    22047496.5404
  22734019.594       89146.016 9     69034.23749  22734019.636    22734025.2704
 99  4 18 16 52  0.0000000  0  7 09 15 02 04 07 27 26
  23298557.088    -9856192.692 9  -7133737.91249  23298556.745    23298563.6734
  24189024.666     3624146.550 9   2820617.93649  24189023.328    24189032.4114
  21332220.597     1894202.809 9   1469705.11049  21332219.782    21332225.9114
  23417901.716    -6833440.795 9  -5290968.90649  23417901.484    23417907.8894
  20251815.679    -3057274.797 9  -2380137.79049  20251814.710    20251820.0404
  22065056.156     9352628.731 9   7276284.22149  22065055.400    22065061.8394
  22741322.790      127524.725 9     98939.67849  22741322.730    22741328.8844
 99  4 18 16 52 30.0000000  0  7 09 15 02 04 07 27 26
  23280990.992    -9948503.138 9  -7205668.07249  23280991.065    23280996.6374
  24201382.747     3689088.921 9   2871222.33749  24201381.372    24201391.8054
  21336907.514     1918832.654 9   1488897.17449  21336906.677    21336912.4364
  23397868.126    -6938717.592 9  -5373002.68649  23397867.463    23397875.1054
  20254296.994    -3044235.508 9  -2369977.30649  20254295.703    20254301.1414
  22082687.772     9445283.293 9   7348482.50649  22082687.214    22082694.8024
  22748707.123      166329.307 9    129176.96749  22748707.607    22748712.7554
 99  4 18 16 53  0.0000000  0  7 09 15 02 04 07 27 26
  23263461.554   -10040621.007 9  -7277448.16049  23263460.671    23263466.9264
  24213828.978     3754494.411 9   2922187.57049  24213828.545    24213836.4334
  21341631.815     1943659.077 9   1508242.42449  21341630.806    21341636.8664
  23377848.865    -7043918.855 9  -5454977.59049  23377849.691    23377855.9944
  20256853.494    -3030800.947 9  -2359508.81749  20256852.633    20256857.9684
  22100385.175     9538283.339 9   7420949.99849  22100384.862    22100390.9834
  22756170.386      205548.823 9    159737.59749  22756170.011    22756175.9234
 99  4 18 16 53 30.0000000  0  7 09 15 02 04 07 27 26
  23245969.118   -10132544.421 9  -7349076.74749  23245968.201    23245974.3074
  24226364.675     3820370.512 9   2973519.53849  24226363.528    24226374.2334
  21346393.750     1968683.187 9   1527741.71249  21346392.890    21346398.8334
  23357843.219    -7149048.894 9  -5536896.99949  23357842.982    23357850.1154
  20259487.369    -3016960.047 9  -2348723.70849  20259486.519    20259491.7084
  22118148.857     9631631.743 9   7493688.94849  22118148.854    22118154.8734
  22763714.530      245193.421 9    190629.44349  22763714.588    22763720.7724
 99  4 18 16 54  0.0000000  0  7 09 15 02 04 07 27 26
  23228516.471   -10224258.540 9  -7420542.23749  23228516.563    23228521.9554
  24238992.693     3886730.959 9   3025228.88549  24238994.114    24239001.0114
  21351193.113     1993903.844 9   1547394.15649  21351192.357    21351198.1544
  23337852.840    -7254098.703 9  -5618753.88649  23337852.791    23337860.3184
  20262201.318    -3002698.274 9  -2337610.64049  20262200.451    20262205.6354
  22135979.237     9725330.853 9   7566701.16149  22135979.131    22135985.7674
  22771340.728      285268.947 9    221857.07649  22771340.169    22771346.1244
 99  4 18 16 54 30.0000000  0  7 09 15 02 04 07 27 26
  23211105.419   -10315753.868 9  -7491837.24849  23211105.486    23211110.9924
  24251714.079     3953581.931 9   3077320.50549  24251712.928    24251722.8834
  21356029.074     2019316.837 9   1567196.47049  21356028.279    21356034.0574
  23317880.887    -7359051.600 9  -5700535.25449  23317880.677    23317888.6604
  20264997.186    -2988006.036 9  -2326162.14949  20264996.315    20265001.5534
  22153875.640     9819376.663 9   7639983.53449  22153875.961    22153882.1584
  22779048.851      325775.299 9    253420.42449  22779048.883    22779054.7674
 99  4 18 16 55  0.0000000  0  7 09 15 02 04 07 27 26
  23193736.746   -10407026.898 9  -7562959.03849  23193735.511    23193742.4164
  24264529.019     4020925.350 9   3129795.83749  24264526.958    24264537.6364
  21360901.408     2044920.991 9   1587147.73949  21360900.506    21360906.5694
  23297930.132    -7463893.302 9  -5782229.98749  23297929.669    23297937.9594
  20267874.234    -2972886.982 9  -2314381.07549  20267873.423    20267878.5504
  22171836.683     9913762.049 9   7713530.51849  22171836.017    22171842.3294
  22786840.893      366722.372 9    285327.19349  22786840.758    22786846.6774
 99  4 18 16 55 30.0000000  0  7 09 15 02 04 07 27 26
  23176407.822   -10498091.029 9  -7633918.03149  23176406.458    23176413.6014
  24277437.299     4088757.904 9   3182652.30049  24277437.130    24277444.7014
  21365809.604     2070713.782 9   1607246.00449  21365808.678    21365814.6994
  23278003.116    -7568610.544 9  -5863827.73149  23278003.484    23278009.2964
  20270832.076    -2957343.553 9  -2302269.32049  20270831.206    20270836.5014
  22189863.353    10008492.529 9   7787346.39949  22189863.407    22189869.4614
  22794716.114      408106.685 9    317574.65949  22794715.917    22794722.0724
 99  4 18 16 56  0.0000000  0  7 09 15 02 04 07 27 26
  23159120.886   -10588934.886 9  -7704705.40649  23159119.705    23159126.3424
  24290437.771     4157074.607 9   3235886.04849  24290436.221    24290445.2154
  21370753.315     2096692.890 9   1627489.44749  21370752.346    21370758.3084
  23258101.547    -7673193.859 9  -5945321.11849  23258100.892    23258107.9274
  20273869.357    -2941382.743 9  -2289832.33449  20273868.433    20273873.7554
  22207955.179    10103565.132 9   7861428.86849  22207954.923    22207961.3554
  22802674.700      449928.990 9    350163.41449  22802674.417    22802680.8924
 99  4 18 16 56 30.0000000  0  6 09 02 04 07 27 26
  23141874.871   -10679562.922 9  -7775324.60149  23141874.534    23141879.9354
  21375731.543     2122853.450 9   1647874.28249  21375730.640    21375736.6524
  23238223.767    -7777651.823 9  -6026716.81949  23238224.172    23238230.9244
  20276982.235    -2925024.490 9  -2277085.65149  20276981.088    20276986.6214
  22226109.435    10198965.879 9   7935767.03049  22226108.555    22226115.3744
  22810717.627      492194.702 9    383097.69449  22810717.819    22810723.3364
 99  4 18 16 57  0.0000000  0  6 09 02 04 07 27 26
  23124663.102   -10770011.194 9  -7845803.71749  23124662.309    23124667.9404
  21380740.299     2149174.610 9   1668384.25949  21380739.422    21380745.3114
  23218363.461    -7882018.433 9  -6108041.34649  23218363.401    23218369.8154
  20280162.658    -2908310.964 9  -2264062.13249  20280161.616    20280166.8034
  22244319.879    10294662.025 9   8010335.36949  22244318.968    22244326.8354
  22818837.839      534866.656 9    416348.51949  22818837.847    22818843.6494
 99  4 18 16 57 30.0000000  0  6 09 02 04 07 27 26
  23107497.355   -10860217.170 9  -7916094.03049  23107496.793    23107503.4834
  21385791.410     2175718.200 9   1689067.55449  21385790.445    21385796.1524
  23198530.726    -7986239.720 9  -6189252.64749  23198529.732    23198536.8344
  20283421.836    -2891183.799 9  -2250716.29849  20283420.960    20283426.3274
  22262597.614    10390712.141 9   8085179.53149  22262597.045    22262603.7504
  22827045.810      577999.826 9    449958.72149  22827045.625    22827051.8814
 99  4 18 16 58  0.0000000  0  6 09 02 04 07 27 26
  23090377.257   -10950183.840 9  -7986197.88049  23090376.875    23090381.9954
  21390881.929     2202468.965 9   1709912.28849  21390881.131    21390886.6254
  23178721.564    -8090337.061 9  -6270367.35449  23178721.155    23178727.9304
  20286754.333    -2873671.609 9  -2237070.44549  20286753.393    20286758.7074
  22280936.547    10487083.736 9   8160274.19749  22280935.589    22280942.7494
  22835339.067      621580.832 9    483917.89749  22835339.743    22835345.3684
 99  4 18 16 58 30.0000000  0  6 09 02 04 07 27 26
  23073298.777   -11039931.506 9  -8056131.08549  23073298.628    23073304.0444
  21396009.854     2229416.124 9   1730910.04849  21396009.261    21396014.7744
  23158933.855    -8194321.723 9  -6351394.25149  23158932.874    23158940.4054
  20290157.768    -2855786.718 9  -2223134.17849  20290156.967    20290162.1604
  22299334.870    10583767.411 9   8235612.04849  22299334.332    22299341.3054
  22843712.722      665584.062 9    518206.07849  22843712.647    22843718.3694
 99  4 18 16 59  0.0000000  0  6 09 02 04 07 27 26
  23056262.860   -11129455.672 9  -8125890.12449  23056262.382    23056268.6984
  21401173.788     2256552.480 9   1752055.23849  21401172.946    21401178.8614
  23139167.055    -8298196.692 9  -6432335.69349  23139166.628    23139173.0764
  20293632.178    -2837528.552 9  -2208907.04949  20293631.261    20293636.4934
  22317791.521    10680757.132 9   8311188.35549  22317790.605    22317798.0384
  22852161.595      709982.893 9    552802.51349  22852161.458    22852167.3004
 99  4 18 16 59 30.0000000  0  6 09 02 04 07 27 26
  23039271.354   -11218746.184 9  -8195467.10449  23039270.325    23039276.3594
  21406371.303     2283865.333 9   1773337.95549  21406370.448    21406376.6404
  23119420.040    -8401967.524 9  -6513195.98149  23119420.438    23119426.8154
  20297178.738    -2818891.210 9  -2194384.45649  20297177.836    20297183.0134
  22336307.323    10778057.937 9   8387007.08849  22336307.226    22336314.3064
  22860685.782      754777.571 9    587707.40949  22860686.116    22860692.1424
 99  4 18 17  0  0.0000000  0  6 09 02 04 07 27 26
  23022325.121   -11307799.328 9  -8264859.10549  23022324.976    23022330.9374
  21411603.213     2311358.893 9   1794761.48449  21411602.696    21411608.2734
  23099694.789    -8505624.364 9  -6593967.45749  23099694.095    23099701.8314
  20300798.231    -2799870.834 9  -2179563.39549  20300797.410    20300802.5394
  22354884.052    10875678.889 9   8463075.26149  22354884.166    22354890.9104
  22869285.037      799966.944 9    622919.85049  22869285.363    22869291.0754
 99  4 18 17  0 30.0000000  0  6 09 02 04 07 27 26
  23005424.671   -11396611.804 9  -8334063.59449  23005424.086    23005429.9964
  21416870.641     2339039.056 9   1816330.41049  21416869.720    21416875.7774
  23079992.357    -8609161.089 9  -6674645.33149  23079991.404    23079999.1724
  20304492.211    -2780459.030 9  -2164437.33349  20304491.183    20304496.6714
  22373522.368    10973623.618 9   8539395.73949  22373522.563    22373529.1444
  22877957.680      845541.697 9    658432.58149  22877957.310    22877963.7704
 99  4 18 17  1  0.0000000  0  6 09 02 04 07 27 26
  22988569.923   -11485183.717 9  -8403080.61549  22988569.095    22988575.1604
  21422175.759     2366917.487 9   1838053.83549  21422175.057    21422180.7244
  23060313.015    -8712576.125 9  -6755228.37849  23060313.147    23060320.1214
  20308261.543    -2760651.008 9  -2149002.51749  20308260.744    20308265.9814
  22392221.821    11071889.205 9   8615966.23349  22392222.147    22392228.7324
  22886705.797      891513.340 9    694254.58349  22886704.864    22886712.1994
 99  4 18 17  1 30.0000000  0  6 09 02 04 07 27 26
  22971760.195   -11573519.166 9  -8471913.37549  22971759.912    22971765.6304
  21427520.906     2395006.284 9   1859941.18249  21427519.907    21427525.9944
  23040658.255    -8815862.016 9  -6835710.78249  23040658.514    23040664.7174
  20312108.084    -2740437.305 9  -2133251.59249  20312107.171    20312112.4224
  22410982.784    11170478.067 9   8692788.63449  22410981.930    22410989.9604
  22895534.516      937908.321 9    730406.45949  22895534.561    22895540.7664
 99  4 18 17  2  0.0000000  0  6 09 02 04 07 27 26
  22954995.825   -11661616.267 9  -8540560.42249  22954994.918    22955001.9514
  21432909.330     2423322.746 9   1882005.92749  21432908.646    21432914.2984
  23021031.572    -8919000.539 9  -6916078.35549  23021030.832    23021038.1934
  20316032.434    -2719814.583 9  -2117181.94749  20316031.694    20316037.0714
  22429805.360    11269391.343 9   8769863.81449  22429804.699    22429812.0694
  22904448.129      984749.223 9    766905.80649  22904447.811    22904454.6144
 99  4 18 17  2 30.0000000  0  6 09 02 04 07 27 26
  22938278.368   -11749467.424 9  -8609015.81649  22938277.591    22938283.6624
  21438342.186     2451872.362 9   1904252.35049  21438341.515    21438347.1214
  23001434.932    -9021981.060 9  -6996322.81649  23001434.448    23001442.1544
  20320034.298    -2698784.973 9  -2100795.25249  20320033.444    20320038.6644
  22448688.842    11368624.545 9   8847188.29349  22448688.057    22448695.5024
  22913450.404     1032056.307 9    803768.41249  22913451.388    22913456.5874
 99  4 18 17  3  0.0000000  0  6 09 02 04 07 27 26
  22921607.155   -11837075.310 9  -8677281.64849  22921606.042    22921611.8904
  21443819.545     2480655.842 9   1926681.00449  21443818.633    21443824.5504
  22981869.935    -9124795.205 9  -7076437.62649  22981869.153    22981877.3264
  20324110.779    -2677363.130 9  -2084102.92049  20324109.602    20324114.8644
  22467634.019    11468181.788 9   8924765.26949  22467633.861    22467641.7644
  22922541.017     1079827.547 9    840992.69349  22922540.675    22922547.0094
 99  4 18 17  3 30.0000000  0  6 09 02 04 07 27 26
  22904982.033   -11924440.590 9  -8745358.43349  22904981.231    22904987.5104
  21449337.539     2509652.890 9   1949276.07949  21449336.643    21449342.6624
  22962338.219    -9227434.625 9  -7156416.29149  22962337.944    22962345.0264
  20328257.691    -2655570.854 9  -2067121.93549  20328256.931    20328262.0454
  22486640.399    11568060.549 9   9002592.77949  22486640.073    22486646.5324
  22931714.835     1128036.248 9    878557.86149  22931714.834    22931720.0554
 99  4 18 17  4  0.0000000  0  6 09 02 04 07 27 26
  22888401.666   -12011571.147 9  -8813252.33049  22888400.580    22888406.8284
  21454893.415     2538849.089 9   1972026.33449  21454892.607    21454898.0184
  22942840.137    -9329897.329 9  -7236257.27049  22942840.072    22942846.8484
  20332469.609    -2633437.251 9  -2049874.98549  20332468.505    20332473.9634
  22505707.212    11668256.649 9   9080667.58049  22505706.424    22505714.0324
  22940965.766     1176649.935 9    916438.60749  22940965.890    22940971.5184
 99  4 18 17  4 30.0000000  0  6 09 02 04 07 27 26
  22871863.110   -12098481.835 9  -8880974.89449  22871862.829    22871867.9114
  21460481.967     2568217.046 9   1994910.42549  21460481.368    21460487.0684
  22923372.111    -9432202.274 9  -7315975.31349  22923371.790    22923377.7634
  20336740.844    -2610991.522 9  -2032384.81849  20336739.948    20336745.4744
  22524829.988    11768747.064 9   9158971.69749  22524829.945    22524836.3944
  22950282.308     1225608.253 9    954587.89049  22950282.090    22950288.1884
 99  4 18 17  5  0.0000000  0  6 09 02 04 07 27 26
  22855365.521   -12185177.433 9  -8948529.85549  22855365.100    22855371.1144
  21466101.428     2597747.271 9   2017920.96249  21466100.648    21466106.6394
  22903931.428    -9534363.564 9  -7395581.42949  22903930.849    22903938.7264
  20341071.470    -2588234.016 9  -2014651.70649  20341070.720    20341076.1874
  22544006.945    11869521.952 9   9237497.48249  22544006.859    22544014.0744
  22959658.163     1274878.089 9    992979.92449  22959658.429    22959663.4264
 99  4 18 17  5 30.0000000  0  6 09 02 04 07 27 26
  22838911.197   -12271645.333 9  -9015907.38649  22838910.092    22838915.8524
  21471750.975     2627435.830 9   2041054.88149  21471750.027    21471756.0074
  22884516.159    -9636391.013 9  -7475083.24249  22884515.809    22884522.9724
  20345465.006    -2565146.027 9  -1996661.07349  20345464.088    20345469.7084
  22563236.324    11970572.462 9   9316238.04549  22563236.027    22563242.9204
  22969095.342     1324470.174 9   1031623.05349  22969095.446    22969101.8514
 99  4 18 17  6  0.0000000  0  6 09 02 04 07 27 26
  22822503.557   -12357867.666 9  -9083093.57449  22822502.900    22822508.6064
  21477433.840     2657299.388 9   2064325.14749  21477432.983    21477438.8034
  22865126.332    -9738285.211 9  -7554481.24549  22865125.983    22865133.0354
  20349925.509    -2541705.978 9  -1978396.11749  20349924.580    20349929.9284
  22582516.906    12071892.626 9   9395188.71449  22582516.309    22582522.7454
  22978595.567     1374394.076 9   1070524.74349  22978595.329    22978601.3514
 99  4 18 17  6 30.0000000  0  6 09 02 04 07 27 26
  22806147.828   -12443817.735 9  -9150067.61049  22806146.703    22806152.7414
  21483153.397     2687355.683 9   2087745.61249  21483152.753    21483158.7054
  22845763.316    -9840038.274 9  -7633769.24849  22845763.107    22845768.2334
  20354457.133    -2517892.388 9  -1959840.08649  20354456.303    20354461.7564
  22601848.405    12173480.111 9   9474347.70049  22601848.276    22601854.9354
  22988162.983     1424670.962 9   1109701.47949  22988162.366    22988168.7694
 99  4 18 17  7  0.0000000  0  6 09 02 04 07 27 26
  22789846.602   -12529481.334 9  -9216818.43249  22789846.178    22789851.7754
  21488911.879     2717616.570 9   2111325.49049  21488911.136    21488916.7884
  22826428.400    -9941643.777 9  -7712942.28849  22826428.263    22826434.2194
  20359062.400    -2493691.752 9  -1940982.46449  20359061.655    20359066.7424
  22621230.539    12275333.351 9   9553713.74549  22621230.308    22621238.2054
  22997804.621     1475337.698 9   1149181.99849  22997804.411    22997810.9994
 99  4 18 17  7 30.0000000  0  6 09 02 04 07 27 26
  22773602.224   -12614846.034 9  -9283336.33749  22773600.724    22773606.9764
  21494710.410     2748087.757 9   2135069.24249  21494709.692    21494715.6564
  22807124.943   -10043084.048 9  -7791986.58449  22807125.226    22807131.5034
  20363739.753    -2469112.273 9  -1921829.63749  20363738.897    20363744.2994
  22640664.354    12377458.093 9   9633291.35949  22640663.665    22640671.7374
  23007522.145     1526403.324 9   1188973.34349  23007522.424    23007528.6004
 99  4 18 17  8  0.0000000  0  6 09 02 04 07 27 26
  22757411.468   -12699928.438 9  -9349634.26949  22757412.081    22757416.7004
  21500547.208     2778760.372 9   2158969.95749  21500546.471    21500552.2444
  22787854.915   -10144348.232 9  -7870893.66349  22787854.357    22787861.9894
  20368483.068    -2444186.267 9  -1902406.78949  20368482.333    20368487.5424
  22660148.197    12479845.659 9   9713073.77149  22660148.646    22660154.8164
  23017312.471     1577851.671 9   1229062.91549  23017313.376    23017318.0764
 99  4 18 17  8 30.0000000  0  6 09 02 04 07 27 26
  22741270.698   -12784748.573 9  -9415727.85349  22741269.697    22741275.2124
  21506420.938     2809626.854 9   2183021.72749  21506420.305    21506425.9194
  22768617.451   -10245441.178 9  -7949667.30549  22768616.525    22768623.8314
  20373288.431    -2418933.895 9  -1882729.63349  20373287.646    20373293.0674
  22679680.076    12582485.581 9   9793052.81649  22679679.225    22679686.8294
  23027173.613     1629672.041 9   1269442.36349  23027173.280    23027179.7074
 99  4 18 17  9  0.0000000  0  6 09 02 04 07 27 26
  22725178.591   -12869312.594 9  -9481621.85549  22725178.097    22725184.6104
  21512329.210     2840674.726 9   2207214.85049  21512328.645    21512334.2024
  22749414.291   -10346354.384 9  -8028300.89949  22749414.188    22749420.6814
  20378155.967    -2393355.064 9  -1862798.08849  20378155.137    20378160.3444
  22699259.946    12685378.049 9   9873228.66749  22699259.600    22699267.1234
  23037101.620     1681843.775 9   1310095.61349  23037102.046    23037107.2354
 99  4 18 17  9 30.0000000  0  6 09 02 04 07 27 26
  22709134.052   -12953626.807 9  -9547321.20649  22709133.474    22709139.6134
  21518271.819     2871903.152 9   2231548.65749  21518271.251    21518276.6784
  22730249.095   -10447068.189 9  -8106779.12749  22730248.816    22730255.1844
  20383085.816    -2367448.724 9  -1842611.35049  20383084.954    20383090.1834
  22718890.594    12788537.330 9   9953612.40449  22718889.830    22718898.1024
  23047092.901     1734348.107 9   1351008.02349  23047092.090    23047097.9744
 99  4 18 17 10  0.0000000  0  6 09 02 04 07 27 26
  22693136.206   -13037695.477 9  -9612829.21049  22693134.960    22693141.3104
  21524250.488     2903321.189 9   2256030.22149  21524249.442    21524255.5684
  22711123.599   -10547573.362 9  -8185094.79149  22711123.227    22711129.7434
  20388081.572    -2341195.804 9  -1822154.54249  20388080.725    20388085.9544
  22738572.266    12891964.606 9  10034204.96649  22738571.804    22738578.9864
  23057149.337     1787195.048 9   1392187.40149  23057148.898    23057155.5014
 99  4 18 17 10 30.0000000  0  6 09 02 04 07 27 26
  22677189.345   -13121496.193 9  -9678128.44149  22677188.039    22677194.9534
  21530270.114     2934954.796 9   2280679.75249  21530269.065    21530274.9334
  22692039.312   -10647861.418 9  -8263241.24949  22692037.779    22692045.3934
  20393149.089    -2314565.832 9  -1801403.93149  20393148.357    20393153.5894
  22758307.497    12995673.510 9  10115016.97749  22758307.022    22758313.8614
  23067273.251     1840396.758 9   1433643.23549  23067272.589    23067279.3104
 99  4 18 17 11  0.0000000  0  6 09 02 04 07 27 26
  22661297.294   -13205008.816 9  -9743203.16949  22661296.041    22661302.8594
  21536333.476     2966817.812 9   2305508.05149  21536332.907    21536338.5794
  22672997.923   -10747923.645 9  -8341211.74449  22672997.510    22673005.3304
  20398291.082    -2287544.735 9  -1780348.54449  20398290.277    20398295.5954
  22778100.870    13099688.471 9  10196067.48149  22778100.519    22778108.1954
  23077467.952     1893970.535 9   1475388.97949  23077468.561    23077474.0844
 99  4 18 17 11 30.0000000  0  6 09 02 04 07 27 26
  22645459.229   -13288237.525 9  -9808056.68349  22645458.485    22645464.6694
  21542444.234     2998929.709 9   2330530.26849  21542443.667    21542449.0484
  22653996.974   -10847773.991 9  -8419017.14949  22653996.844    22654003.1544
  20403506.837    -2260135.941 9  -1758991.06949  20403506.037    20403511.3654
  22797952.380    13204008.558 9  10277355.72549  22797951.726    22797958.9854
  23087735.450     1947926.345 9   1517432.39849  23087736.153    23087741.6714
 99  4 18 17 12  0.0000000  0  6 09 02 04 07 27 26
  22629678.064   -13371167.769 9  -9872677.62549  22629678.040    22629684.4344
  21548605.535     3031307.634 9   2355759.78849  21548604.911    21548610.6984
  22635034.633   -10947422.133 9  -8496664.97749  22635034.791    22635041.1464
  20408795.944    -2232341.689 9  -1737333.22549  20408795.155    20408800.4224
  22817860.272    13308625.252 9  10358875.10249  22817860.884    22817867.6134
  23098078.216     2002277.596 9   1559783.97049  23098077.734    23098085.4274
 99  4 18 17 12 30.0000000  0  6 09 02 04 07 27 26
  22613953.130   -13453802.969 9  -9937068.65549  22613952.516    22613958.9944
  21554812.121     3063923.476 9   2381174.69649  21554811.305    21554817.3274
  22616107.890   -11046882.598 9  -8574166.57549  22616108.414    22616114.4654
  20414153.972    -2204184.988 9  -1715392.95849  20414153.106    20414158.5104
  22837821.167    13413520.146 9  10440611.24549  22837820.856    22837827.9114
  23108490.536     2056994.737 9   1602420.63649  23108490.635    23108496.6964
 99  4 18 17 13  0.0000000  0  6 09 02 04 07 27 26
  22598284.856   -13536140.150 9 -10001227.46749  22598284.613    22598290.2974
  21561059.877     3096755.470 9   2406758.03549  21561058.979    21561065.3134
  22597218.793   -11146145.171 9  -8651513.97749  22597218.431    22597225.2044
  20419578.834    -2175677.104 9  -1693179.04249  20419577.940    20419583.2754
  22857834.288    13518689.182 9  10522561.01849  22857833.501    22857841.0214
  23118971.521     2112072.283 9   1645338.14349  23118971.679    23118978.3464
 99  4 18 17 13 30.0000000  0  6 09 02 04 07 27 26
  22582673.847   -13618176.566 9 -10065151.91749  22582672.741    22582679.4654
  21567345.472     3129786.354 9   2432496.34849  21567344.338    21567350.5644
  22578370.221   -11245194.377 9  -8728695.10949  22578369.580    22578376.8934
  20425067.626    -2146833.077 9  -1670703.19449  20425066.511    20425071.9714
  22877896.691    13624117.207 9  10604712.59749  22877896.092    22877904.4054
  23129520.907     2167509.288 9   1688535.74149  23129521.615    23129527.5734
 99  4 18 17 14  0.0000000  0  6 09 02 04 07 27 26
  22567120.712   -13699908.701 9 -10128839.26849  22567120.378    22567126.7194
  21573665.637     3162998.965 9   2458376.26249  21573664.713    21573670.8494
  22559564.209   -11344020.184 9  -8805702.16649  22559563.659    22559571.0444
  20430617.715    -2117666.960 9  -1647976.37049  20430616.658    20430621.9734
  22898007.304    13729798.174 9  10687061.26349  22898007.070    22898015.2844
  23140138.040     2223302.345 9   1732010.78649  23140137.566    23140145.3554
 99  4 18 17 14 30.0000000  0  6 09 02 04 07 27 26
  22551625.718   -13781335.587 9 -10192288.76849  22551624.945    22551631.4904
  21580017.761     3196379.510 9   2484387.03549  21580017.285    21580022.6084
  22540802.242   -11442615.213 9  -8882529.40449  22540801.688    22540808.3094
  20436227.668    -2088186.405 9  -1625004.53249  20436226.825    20436232.3854
  22918165.697    13835731.207 9  10769606.34449  22918165.084    22918173.0884
  23150822.514     2279449.234 9   1775761.53849  23150822.649    23150829.6524
 99  4 18 17 15  0.0000000  0  6 09 02 04 07 27 26
  22536186.122   -13862471.323 9 -10255511.39049  22536185.513    22536192.3354
  21586402.724     3229932.470 9   2510532.15249  21586401.875    21586407.8934
  22522080.630   -11540997.580 9  -8959190.93249  22522079.948    22522087.9334
  20441894.152    -2058409.153 9  -1601801.50349  20441893.592    20441898.8584
  22938370.352    13941907.364 9  10852340.85249  22938369.897    22938378.0144
  23161573.984     2335948.109 9   1819786.56349  23161572.997    23161580.1084
 99  4 18 17 15 30.0000000  0  6 09 02 04 07 27 26
  22520799.206   -13943330.143 9 -10318518.23449  22520798.546    22520805.3494
  21592823.035     3263671.405 9   2536822.18949  21592822.380    21592828.3524
  22503397.262   -11639178.549 9  -9035695.52349  22503396.942    22503403.5154
  20447617.694    -2028332.043 9  -1578364.81649  20447616.929    20447622.6254
  22958617.282    14048305.076 9  10935248.02049  22958616.950    22958624.7284
  23172390.835     2392791.047 9   1864079.69249  23172390.558    23172397.4454
 99  4 18 17 16  0.0000000  0  6 09 02 04 07 27 26
  22505466.191   -14023905.682 9 -10381304.34649  22505465.780    22505471.9624
  21599282.972     3297618.387 9   2563274.33849  21599282.098    21599288.1564
  22484754.698   -11737145.556 9  -9112033.40049  22484754.558    22484761.2054
  20453403.162    -1997929.245 9  -1554674.35049  20453402.414    20453407.7904
  22978905.905    14154922.268 9  11018326.19549  22978905.974    22978913.4354
  23183270.862     2449965.989 9   1908631.51949  23183270.746    23183276.7234
 99  4 18 17 16 30.0000000  0  6 09 02 04 07 27 26
  22490190.457   -14104180.424 9 -10443856.06649  22490190.905    22490196.2454
  21605785.518     3331789.221 9   2589900.92149  21605784.776    21605790.8054
  22466155.569   -11834884.391 9  -9188193.47549  22466154.655    22466162.3174
  20459254.232    -1967181.793 9  -1530715.32049  20459253.434    20459258.8774
  22999237.821    14261767.065 9  11101581.71549  22999237.509    22999244.8764
  23194213.609     2507470.132 9   1953439.87749  23194213.440    23194219.6354
 99  4 18 17 17  0.0000000  0  6 09 02 04 07 27 26
  22474973.744   -14184145.120 9 -10506166.20049  22474973.679    22474979.0924
  21612334.551     3366204.570 9   2616718.03249  21612333.743    21612339.9444
  22447603.461   -11932376.195 9  -9264161.04949  22447602.958    22447609.1834
  20465173.605    -1936075.473 9  -1506476.65449  20465172.836    20465178.2374
  23019615.616    14368852.579 9  11185024.82249  23019615.422    23019624.5254
  23205217.651     2565296.598 9   1998499.38149  23205217.682    23205224.4584
 99  4 18 17 17 30.0000000  0  6 09 02 04 07 27 26
  22459819.648   -14263780.903 9 -10568220.03049  22459819.321    22459824.8514
  21618930.764     3400867.824 9   2643728.31749  21618929.956    21618936.1604
  22429101.799   -12029602.731 9  -9339921.92449  22429100.937    22429107.9684
  20471162.637    -1904603.075 9  -1481952.73649  20471161.760    20471167.2004
  23040039.875    14476182.312 9  11268658.22849  23040040.942    23040048.1504
  23216280.618     2623432.589 9   2043800.09949  23216280.414    23216287.8234
 99  4 18 17 18  0.0000000  0  6 09 02 04 07 27 26
  22444728.959   -14343083.127 9 -10630013.94849  22444728.638    22444734.4924
  21625572.491     3435769.927 9   2670924.71849  21625571.768    21625577.7664
  22410648.025   -12126577.637 9  -9415486.73149  22410647.991    22410654.0054
  20477217.543    -1872784.488 9  -1457159.05949  20477216.548    20477222.0434
  23060513.781    14583772.628 9  11352494.69049  23060514.068    23060520.7824
  23227399.633     2681862.438 9   2089329.76149  23227400.165    23227405.9814
 99  4 18 17 18 30.0000000  0  6 09 02 04 07 27 26
  22429698.704   -14422067.811 9 -10691560.43249  22429697.853    22429703.4554
  21632254.815     3470885.462 9   2698287.42849  21632254.112    21632260.0464
  22392236.323   -12223331.789 9  -9490879.52149  22392236.417    22392242.5534
  20483331.793    -1840653.756 9  -1432122.14849  20483330.845    20483336.2654
  23081035.235    14691612.715 9  11436525.78449  23081035.492    23081043.4184
  23238571.921     2740572.522 9   2135077.81749  23238571.722    23238578.9304
 99  4 18 17 19  0.0000000  0  6 09 02 04 07 27 26
  22414726.256   -14500748.507 9 -10752870.03849  22414725.918    22414731.1894
  21638973.152     3506190.493 9   2725797.80049  21638972.311    21638978.4004
  22373866.354   -12319866.464 9  -9566101.28049  22373866.275    22373872.5384
  20489503.751    -1808219.755 9  -1406848.92449  20489502.702    20489508.1484
  23101600.551    14799683.376 9  11520736.53849  23101601.044    23101607.2474
  23249796.910     2799559.894 9   2181041.93349  23249796.881    23249803.5744
 99  4 18 17 19 30.0000000  0  6 09 02 04 07 27 26
  22399814.301   -14579111.071 9 -10813931.75349  22399813.822    22399818.9404
  21645727.036     3541682.297 9   2753453.70649  21645726.485    21645732.5954
  22355540.192   -12416170.795 9  -9641143.56049  22355539.632    22355546.4794
  20495734.105    -1775479.191 9  -1381336.81949  20495733.409    20495738.6944
  23122207.912    14907975.181 9  11605119.61249  23122208.568    23122216.3414
  23261077.889     2858841.726 9   2227235.49649  23261077.141    23261084.7274
 99  4 18 17 20  0.0000000  0  6 09 02 04 07 27 26
  22384963.498   -14657152.351 9 -10874743.11549  22384963.033    22384968.5624
  21652516.373     3577360.226 9   2781254.65049  21652515.406    21652521.7354
  22337261.938   -12512223.599 9  -9715989.84249  22337261.765    22337267.6794
  20502023.504    -1742428.386 9  -1355582.97149  20502022.755    20502028.1254
  23142856.556    15016483.811 9  11689671.63749  23142856.624    23142864.6794
  23272419.070     2918440.107 9   2273675.73249  23272418.890    23272425.5404
 99  4 18 17 20 30.0000000  0  6 09 02 04 07 27 26
  22370178.118   -14734849.890 9 -10935286.63349  22370177.808    22370183.2574
  21659342.187     3613229.975 9   2809205.05649  21659341.650    21659347.7404
  22319040.371   -12607978.632 9  -9790604.11549  22319040.620    22319046.0594
  20508375.412    -1709049.123 9  -1329573.18449  20508374.518    20508379.9074
  23163545.719    15125204.946 9  11774389.25249  23163545.751    23163553.1804
  23283824.479     2978376.265 9   2320379.15649  23283825.153    23283831.8484
 99  4 18 17 21  0.0000000  0  6 09 02 04 07 27 26
  22355462.700   -14812179.950 9 -10995543.79949  22355462.375    22355467.1034
  21666209.415     3649317.263 9   2837324.98249  21666208.696    21666214.4974
  22300880.483   -12703409.250 9  -9864965.58749  22300880.692    22300886.5564
  20514792.605    -1675326.397 9  -1303295.75849  20514791.695    20514797.2974
  23184277.129    15234148.634 9  11859280.28249  23184276.759    23184284.9404
  23295297.350     3038666.657 9   2367358.59549  23295296.832    23295304.4294
 99  4 18 17 21 30.0000000  0  6 09 02 04 07 27 26
  22340815.694   -14889150.219 9 -11055520.60949  22340814.996    22340820.2184
  21673122.090     3685643.456 9   2865631.06449  21673121.041    21673127.5314
  22282778.709   -12798533.984 9  -9939088.70449  22282778.743    22282784.7144
  20521273.838    -1641267.247 9  -1276756.18549  20521272.998    20521278.4904
  23205051.627    15343318.927 9  11944347.89849  23205051.087    23205060.1864
  23306834.165     3099292.875 9   2414599.72149  23306834.045    23306841.4934
 99  4 18 17 22  0.0000000  0  6 09 02 04 07 27 26
  22326234.078   -14965776.606 9 -11115229.46149  22326233.660    22326238.9044
  21680082.588     3722220.922 9   2894132.94449  21680081.712    21680087.8534
  22264732.935   -12893364.902 9 -10012982.87349  22264733.576    22264739.1404
  20527821.878    -1606856.773 9  -1249942.85249  20527820.975    20527826.3724
  23225871.428    15452727.865 9  12029601.44349  23225870.085    23225879.9574
  23318431.802     3160238.632 9   2462089.85949  23318432.265    23318438.4924
 99  4 18 17 22 30.0000000  0  6 09 02 04 07 27 26
  22311717.041   -15042063.779 9 -11174673.98249  22311717.080    22311721.7034
  21687093.988     3759066.012 9   2922843.37349  21687093.108    21687099.1834
  22246740.909   -12987913.345 9 -10086656.93149  22246741.142    22246746.9044
  20534438.317    -1572087.292 9  -1222849.77549  20534437.335    20534442.9114
  23246739.302    15562388.987 9  12115051.48249  23246739.687    23246747.3934
  23330088.735     3221495.490 9   2509822.38849  23330088.736    23330094.9094
 99  4 18 17 23  0.0000000  0  6 09 02 04 07 27 26
  22297262.882   -15118020.778 9 -11233861.23349  22297262.526    22297267.3824
  21694158.254     3796188.823 9   2951770.19549  21694157.567    21694163.4414
  22228799.336   -13082197.059 9 -10160124.71649  22228799.312    22228804.8664
  20541122.555    -1536961.513 9  -1195479.06549  20541121.567    20541127.1194
  23267657.072    15672311.626 9  12200705.31849  23267657.826    23267665.0314
  23341804.442     3283061.039 9   2557795.46249  23341805.284    23341811.2874
 99  4 18 17 23 30.0000000  0  6 09 02 04 07 27 26
  22282869.095   -15193660.793 9 -11292801.47849  22282868.351    22282873.8704
  21701273.161     3833577.806 9   2980904.42849  21701272.332    21701278.3944
  22210908.075   -13176216.114 9 -10233386.27549  22210907.998    22210914.3754
  20547873.446    -1501485.437 9  -1167835.39649  20547872.444    20547877.9834
  23288623.800    15782491.205 9  12286559.38349  23288623.122    23288631.7604
  23353576.492     3344922.956 9   2605999.46649  23353576.635    23353583.7244
 99  4 18 17 24  0.0000000  0  6 09 02 04 07 27 26
  22268541.225   -15268953.976 9 -11351471.46549  22268540.370    22268546.3444
  21708434.899     3871212.857 9   3010230.40049  21708434.074    21708440.3034
  22193070.604   -13269952.253 9 -10306427.38049  22193070.107    22193076.8594
  20554688.734    -1465670.846 9  -1139927.95049  20554687.986    20554693.4584
  23309637.516    15892918.233 9  12372606.25049  23309637.344    23309646.1424
  23365408.544     3407100.277 9   2654449.25449  23365408.784    23365415.8204
 99  4 18 17 24 30.0000000  0  6 09 02 04 07 27 26
  22254281.263   -15343890.402 9 -11409863.45549  22254280.202    22254286.1144
  21715638.182     3909066.257 9   3039726.52249  21715637.487    21715643.4004
  22175287.072   -13363405.310 9 -10379247.89449  22175286.928    22175293.2704
  20561561.245    -1429556.063 9  -1111786.58649  20561560.458    20561565.7804
  23330692.975    16003564.670 9  12458824.09749  23330693.447    23330700.3514
  23377300.425     3469592.329 9   2703144.27449  23377299.902    23377307.4814
 99  4 18 17 25  0.0000000  0  6 09 02 04 07 27 26
  22240089.513   -15418468.725 9 -11467976.40949  22240088.927    22240094.0834
  21722879.263     3947118.260 9   3069377.39349  21722878.584    21722884.8374
  22157555.470   -13456585.430 9 -10451855.72849  22157555.224    22157561.8854
  20568486.330    -1393164.423 9  -1083429.49049  20568485.544    20568491.0124
  23351783.678    16114396.448 9  12545186.35949  23351783.786    23351792.7554
  23389249.071     3532382.869 9   2752071.88549  23389248.580    23389256.0384
 99  4 18 17 25 30.0000000  0  6 09 02 04 07 27 26
  22225966.129   -15492687.645 9 -11525809.30749  22225965.434    22225971.3624
  21730154.600     3985350.199 9   3099168.47649  21730153.708    21730159.9564
  22139873.852   -13549502.731 9 -10524258.78249  22139873.824    22139879.5934
  20575461.197    -1356511.486 9  -1054868.78849  20575460.455    20575465.8254
  23372903.292    16225380.012 9  12631666.88349  23372903.566    23372911.5424
  23401251.497     3595455.887 9   2801219.60049  23401250.951    23401259.1194
 99  4 18 17 26  0.0000000  0  6 09 02 04 07 27 26
  22211912.505   -15566539.478 9 -11583356.16449  22211911.883    22211917.7254
  21737463.638     4023759.279 9   3129097.58949  21737462.798    21737468.9104
  22122242.146   -13642157.633 9 -10596457.35649  22122241.411    22122247.7254
  20582486.203    -1319594.830 9  -1026102.58349  20582485.222    20582490.7484
  23394049.197    16336501.726 9  12718255.05549  23394048.587    23394057.4704
  23413307.190     3658808.945 9   2850585.53849  23413306.175    23413314.8624
 99  4 18 17 26 30.0000000  0  6 09 02 04 07 27 26
  22197924.829   -15640044.917 9 -11640633.10449  22197924.886    22197930.3034
  21744811.127     4062370.618 9   3159184.30649  21744810.591    21744816.6824
  22104664.276   -13734529.767 9 -10668435.59349  22104663.770    22104670.2394
  20589563.408    -1282403.778 9   -997122.56949  20589562.632    20589568.0244
  23415223.329    16447772.271 9  12804959.20249  23415222.719    23415231.0484
  23425413.982     3722430.695 9   2900160.82849  23425413.714    23425421.6344
 99  4 18 17 27  0.0000000  0  6 09 02 04 07 27 26
  22184005.115   -15713193.588 9 -11697632.04449  22184004.473    22184010.3464
  21752200.445     4101201.544 9   3189442.13049  21752199.725    21752205.9464
  22087141.529   -13826612.033 9 -10740187.95749  22087140.931    22087147.0024
  20596696.046    -1244921.546 9   -967915.65449  20596695.175    20596700.6834
  23436428.956    16559208.426 9  12891792.40449  23436429.258    23436437.2994
  23437571.086     3786316.746 9   2949942.06849  23437571.767    23437578.5224
 99  4 18 17 27 30.0000000  0  6 09 02 04 07 27 26
  22170153.246   -15785985.474 9 -11754352.97649  22170152.743    22170157.9584
  21759630.948     4140248.869 9   3219868.57849  21759630.201    21759636.5204
  22069676.966   -13918388.578 9 -10811702.09149  22069676.821    22069683.0984
  20603885.710    -1207139.900 9   -938475.43449  20603884.857    20603890.4344
  23457670.861    16670834.789 9  12978773.81849  23457671.202    23457678.6234
  23449778.707     3850467.874 9   2999929.87749  23449778.926    23449784.8264
 99  4 18 17 28  0.0000000  0  6 09 02 04 07 27 26
  22156370.609   -15858413.584 9 -11810790.44049  22156370.114    22156375.7814
  21767105.073     4179525.591 9   3250473.77149  21767104.237    21767110.8094
  22052275.516   -14009833.812 9 -10882958.07149  22052275.188    22052281.7164
  20611134.140    -1169049.333 9   -908794.49749  20611133.149    20611138.5864
  23478955.160    16782684.109 9  13065928.92449  23478955.837    23478963.5974
  23462035.851     3914879.204 9   3050120.43549  23462035.641    23462043.0744
 99  4 18 17 28 30.0000000  0  6 09 02 04 07 27 26
  22142657.017   -15930478.947 9 -11866945.24549  22142656.288    22142662.2384
  21774621.955     4219026.979 9   3281254.03549  21774621.203    21774627.5094
  22034934.507   -14100960.989 9 -10953966.21549  22034933.933    22034940.3874
  20618438.227    -1130666.026 9   -878885.45349  20618437.443    20618442.8074
  23500284.991    16894772.152 9  13153270.08449  23500286.130    23500294.2254
  23474339.854     3979536.805 9   3100502.88949  23474340.862    23474347.3534
 99  4 18 17 29  0.0000000  0  6 09 02 04 07 27 26
  22129011.856   -16002184.458 9 -11922819.64649  22129011.264    22129016.7994
  21782176.299     4258725.065 9   3312187.56149  21782175.194    21782181.5634
  22017647.116   -14191806.762 9 -11024755.07949  22017647.150    22017652.9724
  20625793.981    -1092011.563 9   -848765.11849  20625793.330    20625798.4914
  23521657.630    17007084.922 9  13240786.35249  23521657.645    23521666.3724
  23486686.240     4044416.922 9   3151058.74349  23486685.896    23486693.2034
 99  4 18 17 29 30.0000000  0  6 09 02 04 07 27 26
  22115429.628   -16073559.662 9 -11978436.65849  22115429.077    22115435.0064
  21789767.002     4298614.615 9   3343270.28849  21789766.539    21789772.1214
  22000414.176   -14282366.318 9 -11095320.91449  22000413.820    22000419.6134
  20633197.927    -1053103.719 9   -818447.34549  20633197.095    20633202.5364
  23543070.189    17119607.402 9  13328466.00149  23543070.831    23543079.0374
  23499072.394     4109506.286 9   3201777.62449  23499072.331    23499079.2434
 99  4 18 17 30  0.0000000  0  6 09 02 04 07 27 26
  22101909.396   -16144608.795 9 -12033799.59249  22101908.977    22101914.5314
  21797397.024     4338710.593 9   3374513.86749  21797396.047    21797402.1074
  21983235.683   -14372639.607 9 -11165663.68949  21983235.323    21983241.7854
  20640647.648    -1013955.014 9   -787941.88349  20640646.878    20640652.3824
  23564517.242    17232311.236 9  13416286.99349  23564517.954    23564526.2234
  23511497.785     4174801.743 9   3252657.11449  23511497.979    23511504.3714
 99  4 18 17 30 30.0000000  0  6 09 02 04 07 27 26
  22088450.286   -16215336.804 9 -12088912.30549  22088449.435    22088455.2754
  21805066.865     4379015.804 9   3405920.48749  21805066.147    21805072.3164
  21966109.418   -14462638.473 9 -11235792.62049  21966108.899    21966114.7344
  20648142.526     -974569.264 9   -757251.71449  20648141.599    20648147.1844
  23585990.576    17345153.940 9  13504216.17849  23585990.469    23585999.0594
  23523963.821     4240310.635 9   3303702.91049  23523963.529    23523971.3744
 99  4 18 17 31  0.0000000  0  6 09 02 04 07 27 26
  22075053.721   -16285736.021 9 -12143768.81149  22075053.029    22075058.5124
  21812780.099     4419548.925 9   3437504.69149  21812779.567    21812785.6444
  21949041.237   -14552332.010 9 -11305683.63849  21949040.635    21949047.5794
  20655687.513     -934920.052 9   -726356.25349  20655686.656    20655692.3084
  23607486.734    17458116.554 9  13592238.77649  23607486.577    23607494.5354
  23536474.759     4306055.804 9   3354932.81649  23536475.247    23536481.6504
 99  4 18 17 31 30.0000000  0  6 09 02 04 07 27 26
  22061727.528   -16355765.467 9 -12198337.19149  22061727.134    22061732.8964
  21820541.946     4460337.544 9   3469287.98549  21820541.044    21820547.0714
  21932040.189   -14641672.664 9 -11375299.68549  21932040.394    21932046.4634
  20663291.157     -894962.905 9   -695220.84449  20663290.352    20663295.9254
  23629007.874    17571210.343 9  13680363.59649  23629006.999    23629015.8604
  23549038.523     4372078.519 9   3406378.98849  23549039.399    23549045.3444
 99  4 18 17 32  0.0000000  0  6 09 02 04 07 27 26
  22048482.858   -16425366.768 9 -12252571.94249  22048482.153    22048487.9534
  21828355.046     4501395.676 9   3501281.29549  21828354.655    21828360.5904
  21915107.256   -14730655.686 9 -11444637.05249  21915106.947    21915113.1464
  20670960.899     -854658.505 9   -663814.84149  20670960.152    20670965.7244
  23650556.327    17684447.544 9  13768600.18049  23650556.051    23650565.2534
  23561660.366     4438406.176 9   3458062.78449  23561660.512    23561667.5504
 99  4 18 17 32 30.0000000  0  6 09 02 04 07 27 26
  22035322.937   -16494522.467 9 -12306459.48449  22035322.554    22035328.0724
  21836218.841     4542720.103 9   3533482.09649  21836218.001    21836224.3314
  21898243.781   -14819273.407 9 -11513689.77249  21898243.322    21898250.1304
  20678700.136     -813988.870 9   -632124.24549  20678699.234    20678704.8214
  23672137.908    17797858.777 9  13856972.37349  23672138.500    23672146.5854
  23574342.800     4505052.386 9   3509994.79149  23574343.052    23574349.4734
 99  4 18 17 33  0.0000000  0  6 09 02 04 07 27 26
  22022248.489   -16563228.981 9 -12359997.00049  22022248.065    22022253.8164
  21844133.094     4584309.735 9   3565889.55449  21844132.102    21844138.6714
  21881451.993   -14907514.721 9 -11582449.18249  21881451.556    21881458.0144
  20686505.967     -772968.723 9   -600160.51949  20686505.021    20686510.7034
  23693758.266    17911474.086 9  13945503.56649  23693758.872    23693766.9144
  23587083.602     4572005.401 9   3562165.87049  23587083.572    23587091.2454
 99  4 18 17 33 30.0000000  0  6 09 02 04 07 27 26
  22009258.150   -16631493.647 9 -12413190.22849  22009257.728    22009262.9954
  21852095.272     4626151.214 9   3598493.26149  21852094.680    21852100.9124
  21864728.101   -14995399.242 9 -11650930.57749  21864727.574    21864734.2614
  20694373.161     -731626.434 9   -567945.77749  20694372.204    20694377.9544
  23715416.833    18025290.227 9  14034191.24949  23715417.618    23715425.7124
  23599877.673     4639238.162 9   3614554.93549  23599878.114    23599885.2174
 99  4 18 17 34  0.0000000  0  6 09 02 04 07 27 26
  21996343.679   -16699359.464 9 -12466072.64849  21996343.089    21996348.6964
  21860101.577     4668224.554 9   3631277.63849  21860100.367    21860106.9254
  21848065.568   -15082961.394 9 -11719160.77149  21848064.510    21848071.7644
  20702292.213     -690011.447 9   -535518.53549  20702291.252    20702296.9664
  23737110.575    18139291.095 9  14123022.85049  23737109.581    23737119.5524
  23612718.860     4706718.366 9   3667136.82849  23612719.365    23612727.0104
 99  4 18 17 34 30.0000000  0  6 09 02 04 07 27 26
  21983496.150   -16766873.452 9 -12518680.93249  21983495.303    21983501.2574
  21868148.619     4710511.902 9   3664228.76849  21868147.696    21868154.1604
  21831464.262   -15170201.212 9 -11787139.79549  21831464.072    21831470.3094
  20710254.190     -648170.949 9   -502915.57749  20710253.290    20710258.8034
  23758836.296    18253459.585 9  14211985.05349  23758835.750    23758845.8644
  23625601.274     4774415.367 9   3719887.62949  23625601.237    23625608.9124
 99  4 18 17 35  0.0000000  0  6 09 02 04 07 27 26
  21970713.161   -16834048.293 9 -12571024.94349  21970712.122    21970718.0794
  21876234.332     4753002.144 9   3697337.99949  21876233.279    21876239.9304
  21814921.756   -15257132.367 9 -11854878.30749  21814921.224    21814927.9164
  20718254.800     -606127.515 9   -470154.48849  20718254.121    20718259.6504
  23780588.539    18367767.041 9  14301055.57949  23780588.061    23780597.9174
  23638520.483     4842306.014 9   3772789.33449  23638521.662    23638526.8834
 99  4 18 17 35 30.0000000  0  6 09 02 04 07 27 26
  21957995.261   -16900880.964 9 -12623102.33149  21957994.627    21958000.4054
  21884356.744     4795685.549 9   3730597.75249  21884355.916    21884362.4664
  21798436.869   -15343761.067 9 -11922381.15049  21798436.387    21798443.1134
  20726294.912     -563876.585 9   -437231.71549  20726294.105    20726299.6264
  23802364.196    18482197.602 9  14390222.02649  23802364.926    23802371.8544
  23651475.869     4910386.492 9   3825838.96549  23651475.454    23651482.5114
 99  4 18 17 36  0.0000000  0  6 09 02 04 07 27 26
  21945343.943   -16967363.782 9 -12674907.10349  21945343.385    21945348.9274
  21892515.452     4838559.660 9   3764006.09849  21892514.647    21892521.1074
  21782011.481   -15430076.884 9 -11989640.17249  21782011.267    21782017.9364
  20734373.457     -521423.888 9   -404151.71949  20734372.792    20734378.1464
  23824163.067    18596750.223 9  14479483.59149  23824163.045    23824171.7644
  23664465.881     4978649.400 9   3879030.74349  23664465.761    23664472.7384
 99  4 18 17 36 30.0000000  0  6 09 02 04 07 27 26
  21932764.280   -17033470.148 9 -12726418.53849  21932763.794    21932769.1154
  21900710.673     4881625.652 9   3797563.97249  21900709.654    21900716.5214
  21765650.201   -15516056.052 9 -12056636.86849  21765649.494    21765656.2834
  20742493.672     -478751.839 9   -370900.79749  20742492.941    20742498.4694
  23845986.113    18711430.293 9  14568844.41149  23845985.867    23845995.2934
  23677488.661     5047084.889 9   3932357.00449  23677488.896    23677495.8304
 99  4 18 17 37  0.0000000  0  7 09 02 04 07 27 24 26
  21920263.023   -17099164.291 9 -12777608.76449  21920262.358    21920268.2264
  21908945.585     4924900.338 9   3831284.44749  21908944.833    21908951.1934
  21749357.469   -15601674.522 9 -12123352.51349  21749356.943    21749363.6314
  20750663.306     -435820.170 9   -337447.57849  20750662.345    20750668.1484
  23867836.039    18826251.157 9  14658314.95149  23867835.611    23867845.4034
  24414202.875    -1806408.721 9  -1370954.48449  24414201.190    24414213.9864
  23690545.907     5115700.626 9   3985823.71449  23690546.026    23690554.0904
 99  4 18 17 37 30.0000000  0  7 09 02 04 07 27 24 26
  21907845.868   -17164416.522 9 -12828454.63749  21907845.404    21907851.1774
  21917224.291     4968404.997 9   3865184.13249  21917223.062    21917230.3014
  21733139.376   -15686900.997 9 -12189762.70849  21733139.011    21733145.3884
  20758887.824     -392600.003 9   -303769.55549  20758887.002    20758892.7704
  23889716.325    18941231.438 9  14747909.69449  23889715.844    23889725.5774
  24393196.382    -1916797.736 9  -1456971.65049  24393196.382    24393206.9494
  23703640.822     5184514.489 9   4039444.79749  23703639.822    23703648.2214
 99  4 18 17 38  0.0000000  0  7 09 02 04 07 27 24 26
  21895516.295   -17229208.624 9 -12878941.96649  21895515.630    21895521.2484
  21925549.867     5012156.177 9   3899275.90549  21925548.659    21925555.5894
  21717001.290   -15771707.098 9 -12255845.33149  21717000.763    21717007.2304
  20767172.043     -349066.169 9   -269847.11349  20767170.927    20767176.8914
  23911628.446    19056379.098 9  14837634.86349  23911627.555    23911638.2704
  24372193.925    -2027165.458 9  -1542972.20549  24372192.742    24372204.3274
  23716777.474     5253548.044 9   4093237.07049  23716777.507    23716786.0644
 99  4 18 17 38 30.0000000  0  7 09 02 04 07 27 24 26
  21883276.760   -17293527.920 9 -12929060.87749  21883276.723    21883281.7784
  21933926.733     5056176.575 9   3933577.46649  21933926.089    21933932.3494
  21700945.458   -15856080.704 9 -12321590.95449  21700945.198    21700951.3104
  20775521.298     -305190.577 9   -235658.36549  20775520.237    20775526.0594
  23933573.756    19171701.253 9  14927495.99149  23933573.352    23933583.4704
  24351201.493    -2137480.052 9  -1628931.37349  24351199.805    24351211.8584
  23729960.554     5322825.457 9   4147219.37149  23729960.400    23729968.5244
 99  4 18 17 39  0.0000000  0  7 09 02 04 07 27 24 26
  21871125.240   -17357385.067 9 -12978819.67349  21871124.875    21871130.2794
  21942358.359     5100484.899 9   3968103.37649  21942357.632    21942364.2324
  21684968.600   -15940039.484 9 -12387013.33949  21684968.599    21684974.3624
  20783933.707     -260983.050 9   -201210.97249  20783932.953    20783938.6924
  23955549.257    19287181.981 9  15017480.68049  23955549.608    23955559.2564
  24330220.890    -2247732.645 9  -1714842.23149  24330219.939    24330231.9794
  23743194.048     5392367.681 9   4201408.02749  23743193.839    23743200.9274
 99  4 18 17 39 30.0000000  0  7 09 02 04 07 27 24 26
  21859057.064   -17420804.003 9 -13028237.00249  21859056.910    21859062.0524
  21950842.311     5145068.273 9   4002843.62049  21950841.639    21950848.2534
  21669063.929   -16023619.114 9 -12452140.27049  21669063.739    21669069.4224
  20792402.291     -216480.465 9   -166533.65949  20792401.250    20792407.0764
  23977552.865    19402810.504 9  15107580.56649  23977552.816    23977563.2394
  24309244.583    -2357963.129 9  -1800735.85749  24309242.981    24309255.0494
  23756476.631     5462167.669 9   4255797.51449  23756476.234    23756484.8344
 99  4 18 17 40  0.0000000  0  7 09 02 04 07 27 24 26
  21847066.008   -17483817.645 9 -13077338.52649  21847065.751    21847070.8234
  21959374.495     5189905.066 9   4037781.32549  21959373.552    21959380.6024
  21653225.756   -16106849.116 9 -12516994.77449  21653225.764    21653231.8874
  20800920.939     -171714.574 9   -131651.17449  20800920.273    20800925.9824
  23999579.694    19518560.916 9  15197775.42749  23999579.617    23999588.8214
  24288267.511    -2468197.745 9  -1886632.70249  24288266.743    24288277.2444
  23769802.918     5532197.668 9   4310366.23449  23769802.638    23769811.5544
 99  4 18 17 40 30.0000000  0  7 09 02 04 07 27 24 26
  21835147.203   -17546451.621 9 -13126144.20649  21835146.603    21835151.6164
  21967951.874     5234979.162 9   4072903.93849  21967950.944    21967957.8764
  21637447.856   -16189762.098 9 -12581602.25049  21637447.777    21637453.6404
  20809483.117     -126720.264 9    -96590.70049  20809482.405    20809488.0214
  24021625.111    19634409.350 9  15288046.69049  24021625.095    24021633.9614
  24267283.975    -2578465.923 9  -1972555.70249  24267283.279    24267293.2484
  23783167.216     5602427.070 9   4365090.34949  23783166.906    23783175.1764
 99  4 18 17 41  0.0000000  0  7 09 02 04 07 27 24 26
  21823298.415   -17608717.457 9 -13174663.02049  21823297.516    21823303.1594
  21976569.748     5280265.955 9   4108192.29149  21976568.958    21976575.5764
  21621731.323   -16272353.022 9 -12645958.76849  21621731.187    21621737.0064
  20818083.572      -81524.625 9    -61373.34249  20818082.731    20818088.2514
  24043688.987    19750354.983 9  15378393.65449  24043689.400    24043698.4414
  24246287.877    -2688800.292 9  -2058530.27549  24246286.895    24246297.4324
  23796565.127     5672832.748 9   4419951.81549  23796565.261    23796571.9074
 99  4 18 17 41 30.0000000  0  7 09 02 04 07 27 24 26
  21811522.838   -17670598.049 9 -13222881.64749  21811522.267    21811527.4874
  21985225.984     5325754.730 9   4143638.03849  21985225.105    21985231.2404
  21606082.939   -16354585.296 9 -12710035.83049  21606082.231    21606088.3224
  20826724.903      -36114.532 9    -25988.88249  20826723.979    20826729.6474
  24065772.646    19866405.310 9  15468822.14049  24065773.012    24065783.8874
  24225281.618    -2799188.266 9  -2144546.61349  24225280.887    24225292.2774
  23809992.686     5743394.244 9   4474934.68049  23809992.485    23810000.4814
 99  4 18 17 42  0.0000000  0  7 09 02 04 07 27 24 26
  21799826.528   -17732062.455 9 -13270775.96649  21799825.715    21799831.2654
  21993925.897     5371472.810 9   4179262.47349  21993925.082    21993931.6314
  21590513.202   -16436404.837 9 -12773791.28049  21590512.659    21590518.7034
  20835414.435        9549.075 9      9593.12149  20835413.703    20835419.1034
  24087880.102    19982580.017 9  15559347.59349  24087882.076    24087890.0244
  24204275.865    -2909574.030 9  -2230561.23849  24204275.479    24204285.0964
  23823453.863     5814132.976 9   4530055.65449  23823453.496    23823461.3594
 99  4 18 17 42 30.0000000  0  7 09 02 04 07 27 24 26
  21788213.889   -17793086.806 9 -13318327.39249  21788213.074    21788218.4154
  22002673.322     5417440.689 9   4215081.52749  22002672.487    22002679.1874
  21575028.609   -16517776.633 9 -12837197.83349  21575028.379    21575034.4374
  20844156.354       55487.813 9     45389.51849  20844155.621    20844161.0884
  24110018.780    20098917.876 9  15650000.17349  24110019.321    24110028.8804
  24183277.947    -3019918.439 9  -2316543.64149  24183276.396    24183287.0784
  23836952.430     5885068.153 9   4585329.71849  23836952.311    23836959.6894
 99  4 18 17 43  0.0000000  0  8 09 02 04 05 07 27 24 26
  21776687.257   -17853659.434 9 -13365526.82149  21776686.684    21776692.2624
  22011468.823     5463661.075 9   4251097.37149  22011468.038    22011474.9724
  21559631.342   -16598689.571 9 -12900246.83149  21559631.218    21559637.0814
  24609735.958    -3301408.692 9  -2306614.71949  24609735.425    24609743.1324
  20852952.680      101712.592 9     81408.80349  20852951.622    20852957.2364
  24132191.790    20215436.536 9  15740793.63649  24132192.481    24132203.1234
  24162292.844    -3130194.869 9  -2402473.08649  24162291.763    24162301.9044
  23850488.978     5956202.454 9   4640758.93549  23850488.211    23850496.5314
 99  4 18 17 43 30.0000000  0  8 09 02 04 05 07 27 24 26
  21765240.457   -17913812.567 9 -13412399.37549  21765239.948    21765245.4584
  22020308.499     5510113.463 9   4287293.98449  22020307.868    22020314.3924
  21544312.692   -16679189.551 9 -12962974.05149  21544312.663    21544318.6644
  24593660.672    -3385884.575 9  -2372440.00249  24593659.744    24593667.2554
  20861798.391      148197.242 9    117630.58249  20861797.358    20861802.9634
  24154392.306    20332099.833 9  15831699.80349  24154392.292    24154403.5424
  24141319.563    -3240409.186 9  -2488354.13449  24141318.973    24141329.1644
  23864057.181     6027503.698 9   4696318.24149  23864057.417    23864064.4474
 99  4 18 17 44  0.0000000  0  8 09 02 04 05 07 27 24 26
  21753874.409   -17973541.394 9 -13458941.30449  21753873.767    21753879.2614
  22029193.825     5556806.160 9   4323677.84849  22029193.117    22029200.0304
  21529067.818   -16759301.772 9 -13025399.12549  21529067.587    21529073.3224
  24577584.208    -3470366.743 9  -2438270.20149  24577584.392    24577592.0994
  20870690.480      194925.721 9    154042.35849  20870689.382    20870695.1474
  24176620.683    20448909.772 9  15922720.21649  24176620.134    24176632.2904
  24120357.938    -3350561.984 9  -2574187.25049  24120357.214    24120366.8434
  23877659.944     6098986.530 9   4752019.03549  23877660.080    23877667.2874
 99  4 18 17 44 30.0000000  0  8 09 02 04 05 07 27 24 26
  21742589.231   -18032845.212 9 -13505152.05149  21742588.499    21742594.2854
  22038122.036     5603724.185 9   4360237.29949  22038120.996    22038127.6374
  21513891.456   -16839053.745 9 -13087543.48049  21513891.103    21513897.5144
  24561499.569    -3554891.584 9  -2504133.64249  24561497.829    24561506.0394
  20879622.095      241861.815 9    190615.91549  20879621.009    20879626.9484
  24198870.008    20565830.021 9  16013826.60349  24198869.531    24198881.1764
  24099402.721    -3460680.942 9  -2659994.00249  24099401.032    24099412.1794
  23891294.160     6170634.697 9   4807848.65749  23891294.881    23891301.9844
 99  4 18 17 45  0.0000000  0  8 09 02 04 05 07 27 24 26
  21731386.361   -18091716.530 9 -13551025.78249  21731385.675    21731391.1634
  22047092.037     5650861.734 9   4396967.80649  22047091.416    22047097.7224
  21498781.030   -16918459.383 9 -13149417.96749  21498780.724    21498786.5274
  24545404.443    -3639471.521 9  -2570040.03449  24545403.351    24545412.0494
  20888589.258      288984.797 9    227335.09949  20888588.161    20888594.0434
  24221131.691    20682814.861 9  16104983.28449  24221131.220    24221142.6094
  24078449.640    -3570788.879 9  -2745792.17849  24078447.787    24078459.1284
  23904956.984     6242432.595 9   4863794.97249  23904957.143    23904965.0914
 99  4 18 17 45 30.0000000  0  8 09 02 04 05 07 27 24 26
  21720270.145   -18150132.618 9 -13596544.79949  21720269.340    21720275.2824
  22056105.589     5698227.889 9   4433876.42849  22056104.257    22056111.6164
  21483741.289   -16997493.904 9 -13211003.28049  21483740.976    21483746.8504
  24529299.020    -3724105.943 9  -2635988.85449  24529297.990    24529306.0324
  20897594.309      336306.622 9    264209.21649  20897593.357    20897599.2964
  24243403.230    20799851.277 9  16196180.16049  24243403.431    24243413.5404
  24057500.584    -3680875.543 9  -2831573.76849  24057499.819    24057509.5974
  23918650.661     6314392.966 9   4919867.88049  23918650.463    23918659.2444
 99  4 18 17 46  0.0000000  0  8 09 02 04 05 07 27 24 26
  21709243.928   -18208075.531 9 -13641695.09949  21709243.244    21709249.0934
  22065164.071     5745830.439 9   4470969.26649  22065162.906    22065169.9744
  21468775.077   -17076141.872 9 -13272287.37449  21468774.647    21468780.7004
  24513185.741    -3808781.805 9  -2701969.98549  24513185.075    24513192.6124
  20906641.684      383850.598 9    301256.44649  20906641.034    20906646.7934
  24265683.142    20916931.608 9  16287411.25749  24265683.617    24265693.8284
  24036556.156    -3790937.470 9  -2917336.10149  24036555.329    24036565.3884
  23932378.295     6386531.788 9   4976079.84949  23932378.649    23932386.0774
 99  4 18 17 46 30.0000000  0  8 09 02 04 05 07 27 24 26
  21698308.231   -18265543.155 9 -13686475.05449  21698307.804    21698313.3854
  22074270.393     5793684.463 9   4508258.07949  22074269.581    22074276.3124
  21453888.831   -17154369.365 9 -13333243.82749  21453888.632    21453894.7594
  24497066.696    -3893487.959 9  -2767974.70649  24497066.104    24497073.4844
  20915738.211      431652.756 9    338504.85049  20915737.426    20915743.0864
  24287973.786    21034068.415 9  16378686.34349  24287974.055    24287985.6944
  24015619.836    -3900957.789 9  -3003066.02149  24015619.353    24015629.7574
  23946138.931     6458843.344 9   5032426.40449  23946138.583    23946146.5604
 99  4 18 17 47  0.0000000  0  8 09 02 04 05 07 27 24 26
  21687462.261   -18322539.071 9 -13730887.44149  21687461.673    21687467.3084
  22083426.267     5841798.741 9   4545749.67349  22083425.693    22083432.4064
  21439084.910   -17232164.335 9 -13393863.25249  21439084.701    21439090.7224
  24480946.572    -3978199.585 9  -2833983.69149  24480944.825    24480954.3384
  20924888.255      479736.274 9    375972.49449  20924887.452    20924893.1174
  24310279.477    21151284.286 9  16470023.02049  24310279.094    24310291.0684
  23994694.196    -4010922.355 9  -3088752.50849  23994693.449    23994704.0324
  23959931.840     6531325.522 9   5088905.91249  23959932.784    23959940.0494
 99  4 18 17 47 30.0000000  0  8 09 02 04 05 07 27 24 26
  21676704.578   -18379071.010 9 -13774938.28949  21676703.800    21676709.7424
  22092632.173     5890176.062 9   4583446.23149  22092631.659    22092637.6674
  21424365.069   -17309517.374 9 -13454138.31549  21424364.651    21424370.7104
  24464826.964    -4062908.709 9  -2899990.70849  24464826.603    24464833.8804
  20934090.844      528095.956 9    413655.33349  20934090.031    20934095.5184
  24332602.122    21268589.234 9  16561429.11349  24332602.420    24332613.4664
  23973780.072    -4120826.202 9  -3174391.69549  23973779.718    23973789.7584
  23973757.124     6603977.314 9   5145517.58249  23973757.653    23973764.7864
 99  4 18 17 48  0.0000000  0  7 09 02 04 05 07 24 26
  21666035.431   -18435137.470 9 -13818626.42549  21666035.326    21666040.4184
  22101890.965     5938830.701 9   4621358.87149  22101890.210    22101896.8844
  21409729.419   -17386428.172 9 -13514068.77349  21409729.413    21409735.0974
  24448709.099    -4147607.709 9  -2965989.84649  24448707.722    24448716.4404
  20943342.327      576712.728 9    451538.50149  20943341.476    20943347.1534
  23952876.035    -4230676.854 9  -3259989.43449  23952875.250    23952885.8744
  23987612.099     6676785.890 9   5202251.42349  23987611.032    23987620.2264
 99  4 18 17 48 30.0000000  0  7 09 02 04 05 07 24 26
  21655454.252   -18490742.025 9 -13861954.62649  21655453.611    21655459.2664
  22111199.631     5987747.812 9   4659476.05249  22111198.436    22111205.4094
  21395179.167   -17462890.096 9 -13573649.45549  21395178.716    21395184.9374
  24432592.944    -4232298.085 9  -3031982.24549  24432592.978    24432601.0274
  20952635.428      625548.174 9    489592.06849  20952634.563    20952640.2504
  23931980.879    -4340481.224 9  -3345551.10949  23931979.236    23931990.5044
  24001493.170     6749731.588 9   5259092.11249  24001494.151    24001501.7794
 99  4 18 17 49  0.0000000  0  7 09 02 04 05 07 24 26
  21644959.628   -18545891.547 9 -13904928.26049  21644959.017    21644964.5304
  22120554.394     6036907.082 9   4697781.92349  22120553.190    22120560.2424
  21380712.200   -17538914.249 9 -13632889.02149  21380711.931    21380717.8734
  24416477.438    -4316985.278 9  -3097972.17249  24416475.746    24416483.5624
  20961963.023      674564.982 9    527786.95449  20961962.126    20961967.9844
  23911091.681    -4450253.712 9  -3431087.95049  23911091.256    23911101.4274
  24015398.684     6822805.093 9   5316032.37149  24015399.155    24015407.3454
 99  4 18 17 49 30.0000000  0  7 09 02 04 05 07 24 26
  21634551.624   -18600585.953 9 -13947547.26649  21634551.332    21634556.4794
  22129954.881     6086306.547 9   4736274.95749  22129953.902    22129960.5424
  21366329.925   -17614493.646 9 -13691782.02049  21366329.748    21366335.7064
  24400362.453    -4401669.837 9  -3163960.05149  24400360.972    24400369.7834
  20971326.016      723767.870 9    566126.83449  20971324.944    20971330.9944
  23890211.274    -4559980.410 9  -3516589.10349  23890210.052    23890220.9074
  24029330.968     6896019.270 9   5373082.26249  24029331.230    24029339.0834
 99  4 18 17 50  0.0000000  0  7 09 02 04 05 07 24 26
  21624228.597   -18654833.923 9 -13989818.39149  21624227.919    21624233.4014
  22139399.642     6135938.912 9   4774949.47449  22139399.133    22139406.1844
  21352031.413   -17689632.700 9 -13750331.89449  21352031.146    21352037.0534
  24384248.004    -4486350.518 9  -3229944.91149  24384246.647    24384255.5664
  20980728.727      773179.548 9    604629.40949  20980727.994    20980733.8734
  23869341.413    -4669651.971 9  -3602047.30549  23869340.809    23869350.8274
  24043291.779     6969383.034 9   5430248.69049  24043291.666    24043300.0114
 99  4 18 17 50 30.0000000  0  7 09 02 04 05 07 24 26
  21613989.646   -18708639.983 9 -14031745.17049  21613989.377    21613994.4164
  22148887.124     6185795.632 9   4813798.81549  22148886.785    22148893.0494
  21337817.125   -17764329.142 9 -13808536.87349  21337816.547    21337822.5004
  24368134.976    -4571024.462 9  -3295924.51849  24368133.732    24368143.5744
  20990175.448      822822.274 9    643312.02749  20990174.425    20990180.4194
  23848482.920    -4779263.314 9  -3687458.57849  23848481.999    23848491.0344
  24057285.229     7042918.734 9   5487549.11749  24057285.108    24057293.2864
 99  4 18 17 51  0.0000000  0  7 09 02 04 05 07 24 26
  21603833.403   -18762011.308 9 -14073333.20149  21603832.738    21603837.9144
  22158417.733     6235879.174 9   4852824.89549  22158416.887    22158424.1534
  21323684.101   -17838598.440 9 -13866409.01949  21323683.731    21323689.0484
  24352019.534    -4655711.188 9  -3361914.07249  24352018.598    24352026.6804
  20999668.600      872709.090 9    682184.83749  20999667.922    20999673.5254
  23827638.179    -4888802.611 9  -3772813.71349  23827637.070    23827647.7884
  24071310.985     7116624.012 9   5544981.65549  24071311.618    24071318.9334
 99  4 18 17 51 30.0000000  0  7 09 02 04 05 07 24 26
  21593759.088   -18814952.231 9 -14114585.85349  21593758.752    21593763.7574
  22167991.170     6286187.724 9   4892026.30949  22167990.130    22167996.9954
  21309628.990   -17912458.266 9 -13923962.09149  21309628.741    21309634.3754
  24335898.163    -4740428.930 9  -3427927.81949  24335896.989    24335905.9614
  21009208.823      922843.152 9    721250.30949  21009207.948    21009213.7774
  23806807.402    -4998267.987 9  -3858111.25349  23806806.741    23806816.4024
  24085366.466     7190485.776 9   5602536.14149  24085366.218    24085374.6994
 99  4 18 17 52  0.0000000  0  7 09 02 04 05 07 24 26
  21583769.438   -18867448.313 9 -14155491.86849  21583768.948    21583773.8474
  22177608.985     6336729.780 9   4931409.67849  22177608.011    22177614.4684
  21295651.983   -17985907.857 9 -13981195.49249  21295651.757    21295657.8464
  24319770.190    -4825182.388 9  -3493969.40449  24319769.624    24319777.7364
  21018792.820      973207.292 9    760495.05949  21018791.983    21018797.9084
  23785987.000    -5107679.172 9  -3943366.55849  23785986.214    23785995.4444
  24099448.160     7264485.249 9   5660197.93849  24099449.029    24099455.7924
 99  4 18 17 52 30.0000000  0  7 09 02 04 05 07 24 26
  21573867.777   -18919481.934 9 -14196037.53249  21573867.133    21573872.1304
  22187271.696     6387507.646 9   4970976.79349  22187271.072    22187277.5514
  21281753.419   -18058945.250 9 -14038107.71249  21281753.349    21281758.9974
  24303634.877    -4909974.129 9  -3560040.80649  24303633.355    24303641.6364
  21028417.664     1023785.863 9    799906.89749  21028417.030    21028422.5884
  23765178.900    -5217025.366 9  -4028571.22249  23765178.849    23765187.4604
  24113552.800     7338605.075 9   5717953.52049  24113552.285    24113562.0024
 99  4 18 17 53  0.0000000  0  7 09 02 04 05 07 24 26
  21564055.284   -18971046.747 9 -14236217.88749  21564054.776    21564059.8884
  22196981.538     6438532.970 9   5010736.73049  22196981.170    22196987.2434
  21267934.774   -18131562.595 9 -14094692.61649  21267934.295    21267940.2364
  24287491.203    -4994809.270 9  -3626146.03849  24287490.011    24287498.1144
  21038082.724     1074575.758 9    839483.40749  21038081.829    21038087.4854
  23744387.098    -5326286.613 9  -4113709.68349  23744386.293    23744395.7214
  24127674.874     7412816.619 9   5775780.54449  24127674.938    24127683.2314
 99  4 18 17 53 30.0000000  0  8 09 02 04 05 07 08 24 26
  21554342.204   -19022089.162 9 -14275991.18849  21554341.440    21554346.7434
  22206746.340     6489846.999 9   5050721.63849  22206745.920    22206752.6184
  21254207.414   -18203699.905 9 -14150903.47049  21254207.308    21254212.9924
  24271350.189    -5079630.789 9  -3692240.66349  24271349.484    24271358.3484
  21047795.076     1125614.214 9    879253.59649  21047794.445    21047799.8614
  24216817.694    -5004267.135 9  -3570305.51049  24216817.566    24216825.3394
  23723617.479    -5435431.183 9  -4198757.23149  23723617.601    23723626.5334
  24141821.501     7487156.959 9   5833707.96149  24141821.335    24141830.0964
 99  4 18 17 54  0.0000000  0  8 09 02 04 05 07 08 24 26
  21544724.858   -19072628.372 9 -14315372.37749  21544724.368    21544729.3224
  22216558.577     6541410.376 9   5090900.83949  22216557.857    22216564.8424
  21240568.959   -18275370.347 9 -14206750.52949  21240568.670    21240574.3944
  24255207.197    -5164462.768 9  -3758343.42849  24255206.380    24255214.0094
  21057547.267     1176862.096 9    919186.97849  21057546.274    21057551.8774
  24196404.934    -5111537.357 9  -3653892.67149  24196404.997    24196412.6174
  23702864.345    -5544488.811 9  -4283737.02649  23702862.999    23702873.5584
  24155987.696     7561600.410 9   5891715.69249  24155988.147    24155996.2874
 99  4 18 17 54 30.0000000  0  8 09 02 04 05 07 08 24 26
  21535200.219   -19122680.754 9 -14354374.22049  21535199.691    21535205.3054
  22226414.235     6593201.971 9   5131257.87749  22226413.534    22226420.4524
  21227019.577   -18346572.869 9 -14262232.97049  21227019.280    21227024.9984
  24239059.441    -5249319.578 9  -3824465.54949  24239059.648    24239066.3704
  21067339.233     1228319.191 9    959283.38349  21067338.425    21067343.9314
  24176025.619    -5218631.462 9  -3737342.58749  24176024.806    24176033.2734
  23682131.287    -5653440.958 9  -4368634.62449  23682130.552    23682140.5024
  24170172.287     7636140.345 9   5949798.60849  24170172.528    24170180.8284
 99  4 18 17 55  0.0000000  0  8 09 02 04 05 07 08 24 26
  21525770.221   -19172235.597 9 -14392988.37649  21525769.630    21525774.9704
  22236317.708     6645244.639 9   5171810.54449  22236316.428    22236323.7294
  21213563.102   -18417287.175 9 -14317334.98849  21213562.766    21213568.5534
  24222908.138    -5334194.773 9  -3890601.99249  24222906.681    24222915.7324
  21077173.014     1279996.022 9    999551.00849  21077171.858    21077178.0874
  24155682.260    -5325536.621 9  -3820645.25549  24155679.901    24155689.6994
  23661417.671    -5762291.241 9  -4453452.85049  23661416.842    23661426.1364
  24184377.062     7710786.882 9   6007964.58749  24184377.084    24184386.1794
 99  4 18 17 55 30.0000000  0  8 09 02 04 05 07 08 24 26
  21516434.739   -19221293.762 9 -14431215.50749  21516434.063    21516439.8474
  22246268.973     6697538.772 9   5212559.16649  22246267.889    22246274.8204
  21200201.102   -18487504.701 9 -14372049.90749  21200200.716    21200206.3004
  24206757.288    -5419067.955 9  -3956736.86249  24206755.992    24206764.1484
  21087048.942     1331894.303 9   1039991.19849  21087048.040    21087053.6454
  24135376.759    -5432242.203 9  -3903792.40249  24135374.598    24135384.7754
  23640722.062    -5871046.772 9  -4538197.22949  23640720.999    23640730.7174
  24198607.470     7785567.334 9   6066234.92549  24198608.352    24198616.0574
 99  4 18 17 56  0.0000000  0  8 09 02 04 05 07 08 24 26
  21507191.539   -19269866.915 9 -14469064.71249  21507190.892    21507196.3854
  22256269.618     6750092.258 9   5253509.87949  22256268.666    22256275.8404
  21186931.841   -18557234.802 9 -14426385.00949  21186931.303    21186936.9934
  24190605.491    -5503945.945 9  -4022875.48249  24190603.803    24190612.3604
  21096967.022     1384013.964 9   1080603.88949  21096966.074    21096971.7934
  24115109.234    -5538747.758 9  -3986783.64949  24115108.298    24115117.5004
  23620045.267    -5979703.272 9  -4622864.44049  23620044.463    23620054.3624
  24212864.941     7860489.394 9   6124615.60549  24212864.683    24212874.2814
 99  4 18 17 56 30.0000000  0  8 09 02 04 05 07 08 24 26
  21498035.419   -19317982.604 9 -14506557.44249  21498034.690    21498040.4154
  22266319.498     6802904.644 9   5294662.33349  22266318.578    22266325.6534
  21173752.576   -18626492.089 9 -14480351.68649  21173752.216    21173758.0264
  24174452.267    -5588831.526 9  -4089020.01849  24174450.506    24174459.9174
  21106925.905     1436348.128 9   1121383.72549  21106925.090    21106931.2124
  24094876.023    -5645072.218 9  -4069633.77649  24094874.226    24094883.6054
  23599386.221    -6088266.764 9  -4707459.18649  23599385.975    23599394.5374
  24227145.148     7935531.666 9   6183089.95249  24227145.086    24227153.9994
 99  4 18 17 57  0.0000000  0  8 09 02 04 05 07 08 24 26
  21488965.593   -19365644.892 9 -14543696.87649  21488965.099    21488970.5144
  22276419.040     6855978.213 9   5336018.30549  22276418.376    22276425.5634
  21160660.289   -18695292.473 9 -14533962.33749  21160660.040    21160665.8924
  24158299.551    -5673714.391 9  -4155162.43949  24158298.888    24158306.9084
  21116921.810     1488876.852 9   1162315.16849  21116920.860    21116926.9134
  24074672.640    -5751240.013 9  -4152361.81249  24074670.073    24074680.1344
  23578741.138    -6196756.504 9  -4791996.44649  23578740.588    23578750.1674
  24241446.874     8010686.430 9   6241651.96149  24241446.926    24241454.6514
 99  4 18 17 57 30.0000000  0  8 09 02 04 05 07 08 24 26
  21479980.106   -19412863.814 9 -14580490.83049  21479979.689    21479985.1234
  22286564.087     6909290.652 9   5377560.41749  22286563.383    22286570.6134
  21147652.849   -18763647.019 9 -14587225.57849  21147652.375    21147658.2814
  24142149.120    -5758585.808 9  -4221295.92049  24142147.179    24142155.7974
  21126951.795     1541584.667 9   1203386.16349  21126951.046    21126957.0174
  24054497.526    -5857260.200 9  -4234974.85449  24054496.738    24054506.4784
  23558112.096    -6305162.168 9  -4876468.20249  23558110.939    23558120.7354
  24255767.870     8085943.434 9   6300293.63049  24255767.891    24255776.4214
 99  4 18 17 58  0.0000000  0  8 09 02 04 05 07 08 24 26
  21471080.901   -19459629.516 9 -14616931.62449  21471080.500    21471086.0164
  22296753.997     6962838.571 9   5419286.01149  22296753.389    22296760.4144
  21134729.207   -18831560.850 9 -14640145.40049  21134728.952    21134734.9134
  24125998.464    -5843457.079 9  -4287429.30249  24125997.689    24126004.4424
  21137014.328     1594463.506 9   1244590.42949  21137013.430    21137019.5194
  24034350.875    -5963131.909 9  -4317472.21349  24034350.655    24034359.0604
  23537499.554    -6413480.968 9  -4960872.27149  23537498.529    23537509.0114
  24270102.582     8161272.118 9   6358991.15949  24270101.688    24270111.5644
 99  4 18 17 58 30.0000000  0  8 09 02 04 05 07 08 24 26
  21462272.837   -19505916.148 9 -14652999.11849  21462272.328    21462277.4334
  22306989.039     7016623.704 9   5461196.44249  22306987.854    22306995.0284
  21121891.407   -18899023.714 9 -14692713.83149  21121891.029    21121896.9544
  24109849.560    -5928319.618 9  -4353555.90649  24109848.709    24109856.3184
  21147109.342     1647513.080 9   1285927.72649  21147108.521    21147114.2954
  24014231.900    -6068858.525 9  -4399856.52049  24014232.213    24014239.6654
  23516903.014    -6521715.687 9  -5045210.83349  23516902.367    23516913.3284
  24284448.264     8236658.683 9   6417733.77749  24284448.796    24284456.8114
 99  4 18 17 59  0.0000000  0  8 09 02 04 05 07 08 24 26
  21453560.366   -19551700.505 9 -14688675.22749  21453559.910    21453565.1624
  22317271.244     7070657.046 9   5503300.28149  22317270.795    22317277.4314
  21109141.818   -18966022.982 9 -14744921.01149  21109141.276    21109147.0594
  24093703.012    -6013169.834 9  -4419672.88449  24093701.737    24093709.3734
  21157238.135     1700740.048 9   1327403.25949  21157237.159    21157243.1314
  23994145.085    -6174416.268 9  -4482109.22849  23994144.529    23994152.9474
  23496323.009    -6629863.454 9  -5129481.65049  23496322.454    23496332.3574
  24298807.492     8312116.166 9   6476531.65949  24298807.745    24298816.0734
 99  4 18 17 59 30.0000000  0  8 09 02 04 05 07 08 24 26
  21444945.111   -19596974.062 9 -14723953.31349  21444944.624    21444949.8464
  22327601.410     7124942.342 9   5545600.45149  22327600.654    22327607.7424
  21096483.853   -19032540.928 9 -14796753.14149  21096483.648    21096489.1654
  24077557.421    -6098014.834 9  -4485785.80349  24077556.624    24077563.0134
  21167403.210     1754157.674 9   1369027.34649  21167402.372    21167408.3564
  23974095.419    -6279778.291 9  -4564209.43649  23974094.800    23974102.8164
  23475760.496    -6737919.487 9  -5213680.99649  23475759.930    23475768.2384
  24313181.457     8387651.606 9   6535390.30949  24313181.115    24313189.8264
 99  4 18 18  0  0.0000000  0  8 09 02 04 05 07 08 24 26
  21436430.010   -19641721.249 9 -14758821.24049  21436429.409    21436434.5034
  22337982.553     7179495.506 9   5588109.34449  22337982.137    22337988.6784
  21083919.976   -19098564.429 9 -14848199.98649  21083919.766    21083925.1974
  24061410.894    -6182864.673 9  -4551902.47749  24061409.982    24061417.6784
  21177606.164     1807774.344 9   1410806.53949  21177605.479    21177611.1334
  23954085.443    -6384931.865 9  -4646147.20349  23954084.492    23954092.7834
  23455215.589    -6845882.594 9  -5297807.92649  23455215.092    23455224.8784
  24327572.244     8463275.696 9   6594318.02549  24327571.962    24327580.7554
 99  4 18 18  0 30.0000000  0  8 09 02 04 05 07 08 24 26
  21428013.766   -19685948.834 9 -14793284.28049  21428012.885    21428018.2074
  22348414.771     7234316.704 9   5630827.10349  22348413.985    22348421.5204
  21071451.736   -19164085.178 9 -14899255.08249  21071451.338    21071456.8494
  24045263.972    -6267715.753 9  -4618020.12049  24045263.251    24045271.0904
  21187847.774     1861594.191 9   1452744.05349  21187846.899    21187852.7434
  23934115.966    -6489872.399 9  -4727918.97249  23934115.377    23934123.0644
  23434692.208    -6953733.104 9  -5381847.13949  23434691.481    23434699.7824
  24341983.321     8539005.033 9   6653327.75149  24341984.065    24341992.5684
 99  4 18 18  1  0.0000000  0  8 09 02 04 05 07 08 24 26
  21419692.340   -19729677.896 9 -14827358.86149  21419691.876    21419697.2094
  22358896.550     7289398.576 9   5673747.97149  22358896.138    22358903.5184
  21059078.724   -19229105.764 9 -14949920.43949  21059078.303    21059084.0854
  24029116.378    -6352571.253 9  -4684141.20949  24029115.170    24029124.3474
  21198127.877     1915616.539 9   1494839.35349  21198126.932    21198132.8144
  23914188.009    -6594594.885 9  -4809520.84249  23914186.763    23914195.0264
  23414194.258    -7061449.986 9  -5465782.22449  23414192.872    23414202.2074
  24356413.871     8614837.167 9   6712417.56949  24356414.275    24356423.0244
 99  4 18 18  1 30.0000000  0  8 09 02 04 05 07 08 24 26
  21411465.295   -19772911.308 9 -14861047.22549  21411464.791    21411469.8864
  22369425.206     7344726.866 9   5716860.86549  22369424.340    22369431.8494
  21046799.868   -19293631.399 9 -15000200.12149  21046799.584    21046805.4424
  24012967.038    -6437436.385 9  -4750269.80249  24012966.549    24012974.1174
  21208446.143     1969839.227 9   1537090.76349  21208445.249    21208450.9124
  23894301.173    -6699100.638 9  -4890953.82749  23894300.570    23894308.5524
  23393722.588    -7169028.501 9  -5549609.48549  23393722.083    23393731.8644
  24370860.831     8690755.033 9   6771574.19649  24370861.184    24370869.5074
 99  4 18 18  2  0.0000000  0  8 09 02 04 05 07 08 24 26
  21403331.937   -19815652.286 9 -14894351.87449  21403331.152    21403336.4994
  22379999.535     7400295.234 9   5760160.82749  22379999.039    22380006.0484
  21034613.667   -19357670.198 9 -15050100.44649  21034613.410    21034618.9934
  23996817.577    -6522302.275 9  -4816398.97249  23996816.999    23996824.5974
  21218802.201     2024260.883 9   1579497.21849  21218801.280    21218807.3374
  23874454.521    -6803395.097 9  -4972222.18849  23874453.170    23874461.1364
  23373280.358    -7276452.321 9  -5633316.22549  23373278.936    23373289.6064
  24385320.147     8766738.748 9   6830782.11949  24385321.014    24385329.7724
 99  4 18 18  2 30.0000000  0  8 09 02 04 05 07 08 24 26
  21395290.585   -19857909.624 9 -14927279.66249  21395290.419    21395295.6034
  22390617.663     7456093.389 9   5803639.84649  22390616.938    22390624.1614
  21022516.841   -19421239.580 9 -15099634.99449  21022516.605    21022522.3134
  23980669.770    -6607159.497 9  -4882521.42049  23980669.578    23980678.5234
  21229196.154     2078881.362 9   1622058.59649  21229195.264    21229201.3124
  23854647.723    -6907480.188 9  -5053327.39049  23854646.902    23854655.2624
  23352867.136    -7383724.019 9  -5716904.40949  23352866.607    23352875.9634
  24399790.116     8842778.749 9   6890033.91349  24399790.047    24399799.2824
 99  4 18 18  3  0.0000000  0  8 09 02 04 05 07 08 24 26
  21387343.416   -19899672.386 9 -14959822.06749  21387343.220    21387348.4214
  22401278.874     7512117.796 9   5847295.15849  22401278.128    22401285.1694
  21010508.348   -19484344.427 9 -15148807.56649  21010508.058    21010513.8634
  23964523.213    -6692010.741 9  -4948639.18849  23964522.097    23964530.0044
  21239625.192     2133686.390 9   1664763.77949  21239624.204    21239630.3364
  23834881.527    -7011352.441 9  -5134266.74649  23834880.745    23834888.6294
  23332479.262    -7490862.377 9  -5800388.70049  23332478.022    23332487.7054
  24414270.974     8918875.733 9   6949330.08649  24414270.712    24414281.6474
 99  4 18 18  3 30.0000000  0  8 09 02 04 05 07 08 24 26
  21379491.546   -19940934.215 9 -14991974.13649  21379491.056    21379496.2934
  22411983.384     7568370.086 9   5891128.04949  22411982.218    22411990.2424
  20998591.224   -19546969.106 9 -15197605.98249  20998590.798    20998596.3904
  23948378.643    -6776851.328 9  -5014748.65449  23948377.433    23948385.4584
  21250087.185     2188664.645 9   1707603.94449  21250086.301    21250092.1874
  23815156.899    -7115006.488 9  -5215036.05949  23815156.650    23815163.2574
  23312116.355    -7597869.616 9  -5883770.81249  23312116.358    23312124.5754
  24428763.494     8995033.920 9   7008673.96849  24428764.029    24428772.4004
 99  4 18 18  4  0.0000000  0  8 09 02 04 05 07 08 24 26
  21371735.082   -19981694.791 9 -15023735.61349  21371734.706    21371740.1154
  22422731.998     7624854.382 9   5935141.72349  22422731.366    22422738.5994
  20986765.715   -19609112.161 9 -15246029.10549  20986765.395    20986770.9554
  23932235.722    -6861683.275 9  -5080851.39049  23932234.988    23932242.4584
  21260580.338     2243806.511 9   1750571.60349  21260579.667    21260585.5234
  23795474.386    -7218438.308 9  -5295632.20649  23795474.076    23795481.2784
  23291778.731    -7704744.149 9  -5967049.51949  23291778.227    23291787.2314
  24443268.686     9071258.677 9   7068069.73749  24443268.587    24443278.1464
 99  4 18 18  4 30.0000000  0  8 09 02 04 05 07 08 24 26
  21364076.751   -20021939.442 9 -15055095.07749  21364076.208    21364081.4434
  22433525.358     7681573.770 9   5979338.57649  22433524.374    22433531.3544
  20975034.787   -19670758.354 9 -15294065.06749  20975034.546    20975039.8844
  23916091.467    -6946521.463 9  -5146958.99249  23916090.385    23916098.1284
  21271102.266     2299099.484 9   1793657.00549  21271101.513    21271107.4614
  23775836.507    -7321635.342 9  -5376045.39849  23775835.092    23775843.7224
  23271465.313    -7811491.641 9  -6050229.24049  23271463.631    23271473.2764
  24457788.589     9147560.457 9   7127525.49049  24457788.405    24457798.3464
 99  4 18 18  5  0.0000000  0  8 09 02 04 05 07 08 24 26
  21356518.226   -20061659.855 9 -15086046.04149  21356517.511    21356523.0204
  22444365.472     7738538.583 9   6023726.66749  22444364.390    22444372.0204
  20963405.724   -19731869.657 9 -15341684.23149  20963405.297    20963411.0724
  23899945.027    -7031371.220 9  -5213075.61649  23899943.743    23899952.0754
  21281653.860     2354548.487 9   1836863.98749  21281653.068    21281659.2584
  23756245.018    -7424588.582 9  -5456268.64549  23756243.475    23756252.1024
  23251177.684    -7918103.401 9  -6133303.19649  23251176.286    23251185.9534
  24472322.301     9223934.600 9   7187037.62949  24472322.464    24472331.7264
 99  4 18 18  5 30.0000000  0  8 09 02 04 05 07 08 24 26
  21349059.991   -20100852.900 9 -15116586.07049  21349059.334    21349064.8034
  22455254.650     7795761.269 9   6068315.71349  22455253.601    22455261.4934
  20951879.210   -19792441.874 9 -15388883.32949  20951878.966    20951884.3854
  23883798.353    -7116222.052 9  -5279193.07649  23883797.371    23883804.2774
  21292239.620     2410176.760 9   1880210.66149  21292238.680    21292244.8814
  23736701.904    -7527287.757 9  -5536293.89049  23736700.634    23736708.7654
  23230918.630    -8024565.362 9  -6216260.42449  23230917.361    23230927.8584
  24486865.873     9300361.464 9   7246590.84449  24486866.175    24486874.6964
 99  4 18 18  6  0.0000000  0  8 09 02 04 05 07 08 24 26
  21341706.054   -20139498.048 9 -15146699.17149  21341705.575    21341710.8664
  22466194.923     7853252.503 9   6113114.01049  22466194.467    22466201.4824
  20940451.903   -19852492.822 9 -15435676.24149  20940451.747    20940456.9564
  23867650.090    -7201081.185 9  -5345317.00249  23867648.751    23867656.9844
  21302863.382     2466004.879 9   1923713.05849  21302862.515    21302868.6114
  23717207.284    -7629732.172 9  -5616120.63549  23717205.730    23717215.0834
  23210688.414    -8130875.183 9  -6299099.10149  23210687.336    23210696.5584
  24501418.267     9376834.761 9   7306180.23849  24501419.210    24501428.0474
 99  4 18 18  6 30.0000000  0  8 09 02 04 05 07 08 24 26
  21334455.823   -20177598.633 9 -15176387.93149  21334455.334    21334460.6934
  22477188.236     7911022.547 9   6158129.55549  22477187.137    22477195.3604
  20929125.034   -19912015.602 9 -15482057.59449  20929124.629    20929130.2484
  23851501.333    -7285943.403 9  -5411443.33249  23851500.790    23851508.2904
  21313527.020     2522042.328 9   1967378.57349  21313526.163    21313532.3004
  23697760.575    -7731924.728 9  -5695751.11749  23697758.613    23697767.1554
  23190488.526    -8237025.219 9  -6381813.25049  23190487.530    23190497.3364
  24515979.620     9453353.739 9   7365805.23149  24515979.620    24515989.1444
 99  4 18 18  7  0.0000000  0  8 09 02 04 05 07 08 24 26
  21327306.147   -20215170.595 9 -15205664.78349  21327305.584    21327311.0944
  22488234.804     7969072.454 9   6203363.17949  22488234.669    22488241.6414
  20917894.247   -19971033.387 9 -15528045.44349  20917893.833    20917899.4004
  23835354.063    -7370797.665 9  -5477563.46549  23835353.848    23835360.2034
  21324231.765     2578295.908 9   2011212.50049  21324230.822    21324237.2074
  23678359.531    -7833877.253 9  -5775194.56249  23678358.114    23678365.1684
  23170318.656    -8343018.035 9  -6464404.92349  23170317.913    23170326.6144
  24530547.953     9529910.045 9   7425459.31249  24530547.915    24530557.9474
 99  4 18 18  7 30.0000000  0  8 09 02 04 05 07 08 24 26
  21320257.642   -20252210.933 9 -15234527.38449  21320257.013    21320262.4084
  22499333.600     8027397.066 9   6248810.85149  22499332.806    22499340.2944
  20906754.776   -20029571.608 9 -15573659.61249  20906754.535    20906759.6464
  23819207.986    -7455645.947 9  -5543678.94849  23819206.726    23819214.5554
  21334974.657     2634749.877 9   2055202.56949  21334973.675    21334979.6364
  23659001.041    -7935605.851 9  -5854463.52549  23658999.436    23659008.6894
  23150179.001    -8448851.950 9  -6546872.77449  23150178.335    23150186.9114
  24545123.775     9606506.307 9   7485144.54849  24545124.364    24545132.6914
 99  4 18 18  8  0.0000000  0  8 09 02 04 05 07 08 24 26
  21313309.120   -20288725.319 9 -15262980.14849  21313308.544    21313313.5934
  22510483.163     8085988.143 9   6294466.17149  22510482.417    22510489.2604
  20895710.551   -20087609.451 9 -15618883.86749  20895710.361    20895715.7064
  23803063.441    -7540486.094 9  -5609788.08849  23803062.393    23803069.7234
  21345750.704     2691378.391 9   2099328.65549  21345749.955    21345755.8894
  23639682.769    -8037123.008 9  -5933567.72149  23639681.619    23639689.8144
  23130069.960    -8554524.975 9  -6629215.25649  23130069.156    23130078.8244
  24559709.784     9683155.628 9   7544871.09849  24559709.327    24559719.6214
 99  4 18 18  8 30.0000000  0  8 09 02 04 05 07 08 24 26
  21306457.761   -20324729.405 9 -15291035.27749  21306457.386    21306462.6254
  22521680.903     8144832.380 9   6340318.74149  22521680.385    22521687.7454
  20884766.623   -20145120.238 9 -15663697.43649  20884766.557    20884771.8524
  23786922.815    -7625305.360 9  -5675880.94449  23786921.867    23786928.8724
  21356555.546     2748158.006 9   2143572.48249  21356554.565    21356560.6204
  23620406.575    -8138418.679 9  -6012499.31949  23620406.043    23620414.6534
  23109990.692    -8660041.689 9  -6711435.93449  23109990.107    23109999.0604
  24574306.612     9759862.720 9   7604642.66649  24574306.911    24574316.4094
 99  4 18 18  9  0.0000000  0  8 09 02 04 05 07 08 24 26
  21299705.601   -20360212.315 9 -15318684.29649  21299705.041    21299710.3494
  22532925.254     8203921.457 9   6386362.10549  22532925.061    22532931.3354
  20873925.698   -20202089.577 9 -15708089.09649  20873925.432    20873930.8214
  23770787.781    -7710095.343 9  -5741951.00549  23770786.497    23770794.3794
  21367387.912     2805082.428 9   2187929.14349  21367386.816    21367392.9374
  23601174.629    -8239482.928 9  -6091250.60849  23601173.428    23601182.1444
  23089940.429    -8765406.298 9  -6793538.08449  23089939.508    23089949.0104
  24588914.522     9836627.020 9   7664458.79549  24588915.918    24588924.4114
 99  4 18 18  9 30.0000000  0  8 09 02 04 05 07 08 24 26
  21293054.451   -20395164.107 9 -15345919.45549  21293053.666    21293059.2114
  22544215.445     8263251.287 9   6432593.08249  22544214.495    22544222.1284
  20863193.977   -20258485.106 9 -15752033.63349  20863193.522    20863199.0414
  23754659.629    -7794849.360 9  -5807993.02249  23754658.832    23754665.6834
  21378247.099     2862147.809 9   2232395.64349  21378246.198    21378252.3964
  23581990.907    -8340294.261 9  -6169804.82249  23581989.768    23581999.0494
  23069920.848    -8870609.504 9  -6875514.45249  23069919.967    23069928.6344
  24603533.514     9913449.206 9   7724320.01649  24603534.667    24603544.8174
 99  4 18 18 10  0.0000000  0  8 09 02 04 05 07 08 24 26
  21286504.946   -20429581.742 9 -15372738.39649  21286504.610    21286509.7134
  22555552.617     8322827.884 9   6479016.32149  22555551.896    22555558.5654
  20852574.180   -20314292.372 9 -15795519.78849  20852573.674    20852579.2584
  23738540.185    -7879556.880 9  -5873998.81049  23738538.931    23738546.7104
  21389136.638     2919372.519 9   2276986.28849  21389135.590    21389142.0224
  23562861.787    -8440818.977 9  -6248135.68949  23562860.731    23562868.5484
  23049932.223    -8975650.253 9  -6957364.25049  23049931.335    23049940.8514
  24618162.359     9990323.625 9   7784221.92249  24618164.150    24618172.6374
 99  4 18 18 10 30.0000000  0  8 09 02 04 05 07 08 24 26
  21280057.352   -20463464.304 9 -15399140.39449  21280056.883    21280061.9594
  22566938.199     8382659.379 9   6525638.19349  22566937.055    22566945.7584
  20842061.846   -20369534.841 9 -15838565.84049  20842061.391    20842066.8624
  23722428.741    -7964222.272 9  -5939971.78849  23722427.335    23722434.4134
  21400058.523     2976767.478 9   2321709.59849  21400057.598    21400063.8144
  23543790.295    -8541041.031 9  -6326230.74149  23543789.074    23543797.1854
  23029974.884    -9080526.264 9  -7039085.69749  23029973.641    23029982.6804
  24632799.480    10067240.700 9   7844157.09749  24632799.718    24632809.2614
 99  4 18 18 11  0.0000000  0  8 09 02 04 05 07 08 24 26
  21273711.973   -20496809.516 9 -15425123.68149  21273711.716    21273716.7484
  22578372.404     8442746.453 9   6572459.20549  22578371.768    22578379.1064
  20831650.843   -20424244.923 9 -15881197.04649  20831650.648    20831656.0354
  23706323.940    -8048852.553 9  -6005917.38849  23706322.005    23706330.1744
  21411013.403     3034335.908 9   2366568.08249  21411012.524    21411018.5964
  23524774.448    -8640969.990 9  -6404097.39449  23524772.909    23524781.0544
  23010050.911    -9185226.906 9  -7120670.48549  23010050.154    23010058.8074
  24647441.817    10144185.910 9   7904114.19649  24647441.581    24647451.0304
 99  4 18 18 11 30.0000000  0  8 09 02 04 05 07 08 24 26
  21267466.805   -20529628.424 9 -15450696.86249  21267466.349    21267471.6174
  22589854.440     8503084.741 9   6619475.97049  22589853.999    22589861.2724
  20821335.775   -20478450.795 9 -15923435.36249  20821335.449    20821341.0154
  23690224.353    -8133455.309 9  -6071841.54349  23690223.510    23690230.7934
  21422000.160     3092071.292 9   2411556.65449  21421999.468    21422005.5204
  23505811.798    -8740618.814 9  -6481745.76349  23505811.365    23505819.1434
  22990161.906    -9289743.832 9  -7202112.12249  22990160.753    22990168.8794
  24662086.001    10221141.713 9   7964079.57249  24662086.173    24662094.6114
 99  4 18 18 12  0.0000000  0  8 09 02 04 05 07 08 24 26
  21261317.870   -20561941.230 9 -15475875.68049  21261317.306    21261322.5774
  22601383.743     8563671.203 9   6666686.11749  22601383.418    22601389.8874
  20811110.674   -20532183.800 9 -15965305.21249  20811110.608    20811115.9164
  23674127.773    -8218043.082 9  -6137754.02949  23674126.813    23674133.9674
  21433017.818     3149969.531 9   2456672.13449  21433016.691    21433023.0634
  23486897.858    -8840011.913 9  -6559194.86649  23486896.800    23486904.9064
  22970308.977    -9394070.614 9  -7283405.60949  22970308.556    22970316.3524
  24676729.374    10298092.515 9   8024041.01449  24676730.315    24676737.8364
 99  4 18 18 12 30.0000000  0  8 09 02 04 05 07 08 24 26
  21255263.091   -20593759.156 9 -15500668.87249  21255262.488    21255267.7734
  22612956.271     8624484.981 9   6714073.38949  22612955.647    22612963.3574
  20800972.882   -20585458.308 9 -16006817.78849  20800972.346    20800977.8264
  23658031.666    -8302628.393 9  -6203664.59949  23658030.536    23658039.6604
  21444061.689     3208005.493 9   2501894.92249  21444060.716    21444067.0644
  23468027.911    -8939173.947 9  -6636463.92349  23468026.723    23468035.0384
  22950493.996    -9498198.629 9  -7364544.21949  22950492.844    22950501.4084
  24691368.981    10375023.020 9   8083986.68449  24691369.481    24691378.7414
 99  4 18 18 13  0.0000000  0  8 09 02 04 05 07 08 24 26
  21249302.947   -20625079.946 9 -15525074.68549  21249302.554    21249307.7684
  22624570.541     8685518.355 9   6761631.77449  22624569.337    22624576.8994
  20790923.326   -20638268.769 9 -16047968.77249  20790923.093    20790928.3904
  23641934.282    -8387220.180 9  -6269580.22449  23641933.750    23641941.1924
  21455131.490     3266177.612 9   2547223.81149  21455130.402    21455136.8574
  23449199.921    -9038115.717 9  -6713561.33849  23449199.007    23449206.5284
  22930717.632    -9602123.629 9  -7445524.64749  22930717.335    22930724.3984
  24706003.546    10451926.636 9   8143911.36949  24706005.378    24706013.1364
 99  4 18 18 13 30.0000000  0  8 09 02 04 05 07 08 24 26
  21243436.973   -20655905.858 9 -15549094.87849  21243436.395    21243441.6724
  22636227.852     8746777.500 9   6809366.07549  22636227.396    22636234.7644
  20780966.954   -20690589.639 9 -16088738.25449  20780966.686    20780972.4004
  23625835.274    -8471820.897 9  -6335502.80249  23625834.775    23625842.6144
  21466227.428     3324487.003 9   2592659.66349  21466226.321    21466232.4364
  23430414.099    -9136835.594 9  -6790485.83949  23430413.053    23430421.3234
  22910978.022    -9705855.726 9  -7526354.74149  22910977.470    22910985.6874
  24720632.026    10528798.643 9   8203811.42849  24720632.882    24720642.3074
 99  4 18 18 14  0.0000000  0  8 09 02 04 05 07 08 24 26
  21237668.206   -20686220.902 9 -15572716.99549  21237667.819    21237673.0684
  22647929.481     8808269.606 9   6857281.91949  22647928.805    22647935.5894
  20771108.697   -20742395.027 9 -16129106.07049  20771108.461    20771113.9234
  23609735.234    -8556427.341 9  -6401429.84849  23609734.181    23609741.2814
  21477351.210     3382942.763 9   2638209.56949  21477350.390    21477356.8484
  23411671.774    -9235327.383 9  -6867232.62649  23411671.677    23411678.3544
  22891272.962    -9809406.178 9  -7607043.31049  22891272.862    22891281.7244
  24735256.303    10605648.872 9   8263694.49349  24735256.968    24735267.1544
 99  4 18 18 14 30.0000000  0  8 09 02 04 05 07 08 24 26
  21232002.492   -20715994.239 9 -15595917.00049  21232001.981    21232007.3934
  22659678.116     8870009.085 9   6905390.51049  22659677.522    22659684.5404
  20761355.805   -20793646.900 9 -16169042.57749  20761355.703    20761361.0154
  23593635.620    -8641031.409 9  -6467355.03849  23593634.247    23593642.1994
  21488504.336     3441552.613 9   2683879.54449  21488503.539    21488509.6824
  23392977.444    -9333567.122 9  -6943783.00249  23392976.949    23392985.1714
  22871600.023    -9912787.761 9  -7687600.30849  22871599.371    22871608.2874
  24749880.581    10682499.300 9   8323577.73049  24749880.304    24749890.7754
 99  4 18 18 15  0.0000000  0  8 09 02 04 05 07 08 24 26
  21226442.654   -20745211.385 9 -15618683.61349  21226442.120    21226447.5234
  22671479.260     8932024.160 9   6953713.85349  22671478.762    22671486.1684
  20751713.842   -20844315.690 9 -16208524.73449  20751713.478    20751719.0214
  23577539.379    -8725617.245 9  -6533266.03449  23577538.720    23577545.4944
  21499691.521     3500341.373 9   2729688.92549  21499690.564    21499697.2944
  23374334.515    -9431536.240 9  -7020122.50949  23374333.036    23374340.4414
  22851958.496   -10016004.135 9  -7768028.55849  22851957.599    22851965.9574
  24764508.116    10759366.788 9   8383474.23649  24764508.078    24764518.6904
 99  4 18 18 15 30.0000000  0  8 09 02 04 05 07 08 24 26
  21220990.061   -20773864.948 9 -15641011.07049  21220989.645    21220994.9734
  22683333.522     8994318.650 9   7002254.92249  22683333.305    22683339.8614
  20742187.115   -20894378.675 9 -16247534.83549  20742187.063    20742192.3044
  23561449.438    -8810170.636 9  -6599151.73249  23561448.589    23561455.6224
  21510913.835     3559314.791 9   2775642.19849  21510912.965    21510919.1564
  23355747.312    -9529212.613 9  -7096233.89849  23355745.694    23355753.8354
  22832349.090   -10119051.945 9  -7848325.46249  22832347.755    22832356.3814
  24779140.423    10836259.406 9   8443390.34249  24779141.158    24779150.4994
 99  4 18 18 16  0.0000000  0  8 09 02 04 05 07 08 24 26
  21215647.955   -20801938.100 9 -15662886.25149  21215647.493    21215652.8984
  22695241.660     9056895.736 9   7051016.20649  22695240.702    22695248.8584
  20732777.162   -20943828.405 9 -16286067.06949  20732776.937    20732782.0614
  23545366.783    -8894686.151 9  -6665007.93149  23545366.162    23545373.6234
  21522170.539     3618469.041 9   2821736.38349  21522169.842    21522175.9154
  23337219.350    -9626578.117 9  -7172103.05449  23337217.860    23337226.6124
  22812776.416   -10221906.444 9  -7928471.74049  22812775.474    22812783.8994
  24793777.803    10913178.258 9   8503326.88749  24793777.775    24793788.5854
 99  4 18 18 16 30.0000000  0  8 09 02 04 05 07 08 24 26
  21210415.719   -20829433.828 9 -15684311.49849  21210415.455    21210420.8034
  22707204.888     9119762.810 9   7100003.43449  22707203.890    22707212.1974
  20723482.905   -20992670.060 9 -16324125.48849  20723482.681    20723488.0664
  23529291.677    -8979161.287 9  -6730832.65549  23529290.211    23529298.6554
  21533458.533     3677787.641 9   2867958.62949  21533457.568    21533464.1284
  23318755.234    -9723607.739 9  -7247710.47849  23318755.112    23318762.2734
  22793246.529   -10324536.249 9  -8008442.91849  22793245.854    22793253.8994
  24808417.958    10990111.234 9   8563274.41749  24808418.649    24808429.0234
 99  4 18 18 17  0.0000000  0  8 09 02 04 05 07 08 24 26
  21205292.484   -20856356.679 9 -15705290.34949  21205292.212    21205297.2674
  22719222.452     9182914.895 9   7149212.74549  22719221.490    22719229.1264
  20714298.570   -21040934.089 9 -16361733.80849  20714298.420    20714303.5394
  23513223.646    -9063598.882 9  -6796628.13249  23513222.235    23513230.8624
  21544774.693     3737254.340 9   2914296.27849  21544773.863    21544780.3984
  23300354.836    -9820302.692 9  -7323057.12249  23300354.180    23300361.4704
  22773763.095   -10426921.456 9  -8088223.50749  22773762.193    22773770.4194
  24823057.301    11067039.653 9   8623218.39449  24823057.935    24823067.1974
 99  4 18 18 17 30.0000000  0  8 09 02 04 05 07 08 24 26
  21200277.342   -20882711.606 9 -15725826.66149  21200276.894    21200282.1394
  22731292.441     9246342.782 9   7198636.96949  22731291.105    22731298.9644
  20705220.352   -21088640.383 9 -16398907.52849  20705220.254    20705225.6054
  23497163.109    -9147997.356 9  -6862393.12549  23497162.863    23497170.0164
  21556113.310     3796838.961 9   2960725.81349  21556112.494    21556119.0964
  23282017.328    -9916667.180 9  -7398146.27449  23282017.405    23282022.7714
  22754326.070   -10529063.311 9  -8167814.47149  22754326.018    22754333.3594
  24837693.428    11143952.155 9   8683149.95649  24837691.494    24837704.7604
 99  4 18 18 18  0.0000000  0  7 09 02 04 05 07 08 24
  21195369.574   -20908501.878 9 -15745922.98249  21195369.351    21195374.3584
  22743416.991     9310057.436 9   7248284.64349  22743416.181    22743424.6884
  20696247.237   -21135794.330 9 -16435650.84449  20696246.956    20696252.3394
  23481110.927    -9232351.807 9  -6928123.81449  23481110.026    23481117.4604
  21567474.966     3856544.590 9   3007249.64149  21567474.208    21567480.5334
  23263742.756   -10012700.589 9  -7472977.44649  23263741.697    23263748.1144
  22734936.924   -10630953.728 9  -8247209.50049  22734936.641    22734944.8724
 99  4 18 18 18 30.0000000  0  7 09 02 04 05 07 08 24
  21190562.853   -20933761.521 9 -15765605.82949  21190562.449    21190567.5474
  22755590.363     9374028.626 9   7298132.23749  22755590.063    22755598.1644
  20687372.878   -21182429.336 9 -16471989.78949  20687372.470    20687377.9754
  23465063.975    -9316678.747 9  -6993833.06049  23465063.035    23465070.4694
  21578858.462     3916365.078 9   3053862.97349  21578857.808    21578863.5554
  23245525.931   -10108429.741 9  -7547571.51849  23245523.369    23245530.8444
  22715589.716   -10732623.744 9  -8326432.78649  22715588.635    22715598.1534
 99  4 18 18 19  0.0000000  0  7 09 02 04 05 07 08 24
  21185850.993   -20958522.538 9 -15784900.13549  21185850.401    21185855.6044
  22767805.905     9438221.327 9   7348152.41249  22767805.136    22767812.7104
  20678594.503   -21228559.966 9 -16507935.71849  20678594.367    20678599.5334
  23449019.320    -9400993.881 9  -7059533.10949  23449018.202    23449025.9474
  21590262.293     3976292.297 9   3100559.47049  21590261.373    21590267.8684
  23227359.788   -10203892.607 9  -7621958.11449  23227359.214    23227366.1454
  22696275.406   -10834120.890 9  -8405521.37149  22696274.326    22696283.0524
 99  4 18 18 19 30.0000000  0  7 09 02 04 05 07 08 24
  21181233.164   -20982789.308 9 -15803809.30749  21181232.698    21181238.0414
  22780063.932     9502637.175 9   7398346.49049  22780063.140    22780070.5584
  20669918.725   -21274151.400 9 -16543461.48849  20669918.313    20669923.9304
  23432978.670    -9485287.887 9  -7125216.69749  23432978.077    23432984.3014
  21601690.696     4036348.819 9   3147356.72149  21601689.432    21601695.8564
  23209245.021   -10299085.759 9  -7696134.53349  23209243.085    23209250.7234
  22676994.843   -10935440.043 9  -8484471.25049  22676993.774    22677002.9844
 99  4 18 18 20  0.0000000  0  7 09 02 04 05 07 08 24
  21176711.655   -21006550.098 9 -15822324.21649  21176711.258    21176716.3174
  22792363.795     9567272.895 9   7448711.88249  22792362.366    22792370.5734
  20661348.894   -21319185.826 9 -16578553.23549  20661348.626    20661354.0054
  23416940.683    -9569567.738 9  -7190889.25449  23416939.960    23416947.3344
  21613149.206     4096563.548 9   3194277.25249  21613148.249    21613154.1204
  23191185.554   -10393988.968 9  -7770085.02949  23191185.117    23191191.2254
  22657752.651   -11036558.049 9  -8563264.41749  22657751.955    22657760.6564
 99  4 18 18 20 30.0000000  0  7 09 02 04 05 07 08 24
  21172292.591   -21029772.328 9 -15840419.46749  21172292.227    21172297.4904
  22804706.992     9632136.467 9   7499254.82649  22804705.601    22804714.8594
  20652887.655   -21363649.865 9 -16613200.52049  20652887.224    20652892.5664
  23400908.783    -9653815.809 9  -7256537.04849  23400907.329    23400914.9644
  21624637.362     4156934.559 9   3241319.56149  21624636.116    21624642.4304
  23173184.695   -10488584.242 9  -7843795.58349  23173183.509    23173190.4164
  22638551.881   -11137458.483 9  -8641888.05149  22638550.997    22638559.4824
 99  4 18 18 21  0.0000000  0  7 09 02 04 05 07 08 24
  21167981.431   -21052427.570 9 -15858072.90649  21167980.792    21167986.3104
  22817095.149     9697236.371 9   7549981.92349  22817094.734    22817102.1174
  20644537.998   -21407527.422 9 -16647390.80549  20644537.884    20644543.1434
  23384883.794    -9738027.724 9  -7322156.66449  23384882.793    23384889.9004
  21636154.599     4217458.020 9   3288480.66149  21636153.752    21636160.1094
  23155245.876   -10582853.568 9  -7917252.13849  23155244.858    23155251.3424
  22619395.376   -11238126.498 9  -8720330.55149  22619395.578    22619403.6374
 99  4 18 18 21 30.0000000  0  7 09 02 04 05 07 08 24
  21163783.707   -21074486.637 9 -15875261.80249  21163782.978    21163788.6664
  22829530.266     9762582.958 9   7600901.23549  22829529.346    22829537.5774
  20636299.608   -21450820.570 9 -16681125.70949  20636299.317    20636304.8264
  23368865.247    -9822205.874 9  -7387749.97949  23368864.222    23368872.4714
  21647701.105     4278134.926 9   3335761.32449  21647700.319    21647706.6434
  23137372.507   -10676778.633 9  -7990440.43649  23137371.501    23137378.7244
  22600288.523   -11338533.386 9  -8798569.59349  22600286.987    22600296.2614
 99  4 18 18 22  0.0000000  0  7 09 02 04 05 07 08 24
  21159704.042   -21095925.642 9 -15891967.52449  21159703.552    21159708.7134
  22842013.209     9828180.921 9   7652016.43849  22842012.464    22842019.9394
  20628169.119   -21493546.321 9 -16714418.48049  20628168.616    20628174.1164
  23352856.027    -9906334.312 9  -7453304.53249  23352854.915    23352861.9554
  21659275.056     4338956.020 9   3383154.35149  21659274.167    21659280.4204
  23119568.499   -10770339.079 9  -8063344.62349  23119566.647    23119574.4084
  22581232.850   -11438671.068 9  -8876598.87049  22581232.508    22581240.4704
 99  4 18 18 22 30.0000000  0  7 09 02 04 05 07 08 24
  21155741.290   -21116750.014 9 -15908194.31849  21155740.895    21155746.1154
  22854545.138     9894036.295 9   7703332.21349  22854544.358    22854552.1294
  20620146.019   -21535707.632 9 -16747271.43049  20620145.750    20620151.0154
  23336857.614    -9990405.510 9  -7518814.51249  23336856.460    23336863.3364
  21670874.329     4399910.498 9   3430651.30549  21670873.676    21670880.0794
  23101831.291   -10863548.216 9  -8135975.05549  23101828.977    23101836.4874
  22562227.779   -11538543.109 9  -8954421.13549  22562226.416    22562235.6904
 99  4 18 18 23  0.0000000  0  7 09 02 04 05 07 08 24
  21151891.801   -21136979.384 9 -15923957.47249  21151891.110    21151896.4624
  22867126.343     9960150.773 9   7754849.87949  22867125.389    22867133.9964
  20612231.027   -21577301.243 9 -16779682.01649  20612230.959    20612236.3094
  23320868.416   -10074428.790 9  -7584287.14049  23320867.060    23320875.5734
  21682499.093     4460998.934 9   3478252.64549  21682498.459    21682504.6324
  23084160.605   -10956407.791 9  -8208333.10849  23084159.389    23084166.3604
  22543273.171   -11638150.045 9  -9032036.83749  22543272.038    22543280.2614
 99  4 18 18 23 30.0000000  0  7 09 02 04 05 07 08 24
  21148150.106   -21156642.255 9 -15939279.19849  21148149.551    21148155.0184
  22879756.440    10026521.890 9   7806567.52549  22879756.184    22879763.1924
  20604423.398   -21618330.762 9 -16811653.05249  20604423.345    20604428.6514
  23304888.988   -10158400.715 9  -7649719.75349  23304887.672    23304894.8274
  21694148.486     4522216.562 9   3525954.65049  21694147.434    21694154.0614
  23066554.332   -11048929.121 9  -8280427.59349  23066553.208    23066559.9914
  22524368.174   -11737496.361 9  -9109449.47049  22524367.665    22524375.6324
 99  4 18 18 24  0.0000000  0  7 09 02 04 05 07 08 24
  21144509.576   -21175773.429 9 -15954186.61649  21144509.261    21144514.4874
  22892435.371    10093149.499 9   7858485.03849  22892435.217    22892442.7224
  20596724.472   -21658789.041 9 -16843178.96549  20596724.314    20596729.4834
  23288917.963   -10242328.522 9  -7715117.99149  23288916.828    23288924.5814
  21705821.410     4583558.106 9   3573753.21249  21705820.483    21705826.6794
  23049010.777   -11141120.425 9  -8352264.91349  23049009.773    23049016.7644
  22505508.873   -11836602.330 9  -9186674.82449  22505507.871    22505516.2584
 99  4 18 18 24 30.0000000  0  7 09 02 04 05 07 08 24
  21140966.809   -21194390.908 9 -15968693.75049  21140966.284    21140971.4614
  22905163.854    10160037.482 9   7910605.43849  22905163.745    22905171.3334
  20589136.629   -21698663.463 9 -16874249.92249  20589136.328    20589141.5564
  23272952.027   -10326229.991 9  -7780495.70649  23272951.291    23272959.0994
  21717517.088     4645019.361 9   3621645.06149  21717515.867    21717522.3304
  23031528.684   -11232988.557 9  -8423850.42049  23031526.956    23031535.6584
  22486693.622   -11935476.812 9  -9263719.79149  22486692.567    22486701.1104
 99  4 18 18 25  0.0000000  0  7 09 02 04 05 07 08 24
  21137522.652   -21212490.098 9 -15982797.02649  21137522.148    21137527.5374
  22917941.871    10227186.162 9   7962928.98049  22917940.420    22917948.3114
  20581658.685   -21737959.923 9 -16904870.52349  20581658.244    20581663.5774
  23256991.471   -10410103.169 9  -7845851.38149  23256990.520    23256998.7444
  21729234.727     4706595.859 9   3669626.70049  21729233.794    21729240.3214
  23014110.155   -11324523.226 9  -8495176.07949  23014109.284    23014116.9604
  22467921.295   -12034125.530 9  -9340588.83949  22467921.092    22467929.0424
 99  4 18 18 25 30.0000000  0  7 09 02 04 05 07 08 24
  21134177.002   -21230071.536 9 -15996496.85949  21134176.434    21134181.8314
  22930769.462    10294595.020 9   8015455.25849  22930768.659    22930776.5324
  20574289.948   -21776682.613 9 -16935044.02949  20574289.556    20574295.0534
  23241035.620   -10493951.817 9  -7911187.93549  23241035.296    23241042.1924
  21740975.835     4768295.754 9   3717704.49549  21740974.956    21740981.1894
  22996755.170   -11415723.474 9  -8566241.14749  22996754.778    22996761.5514
  22449192.228   -12132547.319 9  -9417281.07849  22449191.468    22449200.2014
 99  4 18 18 26  0.0000000  0  7 09 02 04 05 07 08 24
  21130932.689   -21247120.323 9 -16009781.64049  21130931.690    21130937.2134
  22943647.389    10362268.606 9   8068187.81649  22943646.844    22943655.1304
  20567030.449   -21814831.558 9 -16964770.46249  20567030.141    20567035.3224
  23225082.053   -10577788.312 9  -7976515.03649  23225081.960    23225088.2044
  21752738.719     4830110.192 9   3765871.54049  21752737.553    21752743.7364
  22979464.925   -11506584.247 9  -8637041.69849  22979464.158    22979471.0454
  22430507.127   -12230737.687 9  -9493792.98649  22430506.603    22430514.0394
 99  4 18 18 26 30.0000000  0  7 09 02 04 05 07 08 24
  21127796.407   -21263601.281 9 -16022623.95649  21127795.861    21127801.4784
  22956573.864    10430197.578 9   8121119.37649  22956573.085    22956582.1214
  20559878.159   -21852416.968 9 -16994057.77849  20559877.933    20559883.4674
  23209134.699   -10661592.705 9  -8041817.10549  23209133.931    23209140.8764
  21764523.632     4892040.537 9   3814128.90349  21764522.934    21764529.1014
  22962238.578   -11597109.726 9  -8707580.98249  22962237.454    22962244.6294
  22411868.508   -12328683.763 9  -9570114.53549  22411867.967    22411875.9384
 99  4 18 18 27  0.0000000  0  7 09 02 04 05 07 08 24
  21124771.331   -21279498.065 9 -16035011.07149  21124770.925    21124776.4004
  22969547.551    10498374.439 9   8174244.08849  22969546.814    22969555.6954
  20552833.579   -21889436.438 9 -17022904.09749  20552833.140    20552838.8064
  23193196.895   -10745346.102 9  -8107079.43949  23193195.855    23193202.8144
  21776332.117     4954094.358 9   3862482.48149  21776331.369    21776337.5804
  22945075.200   -11687303.763 9  -8777861.99349  22945074.455    22945081.7374
  22393280.206   -12426365.529 9  -9646230.12449  22393279.215    22393288.0564
 99  4 18 18 27 30.0000000  0  7 09 02 04 05 07 08 24
  21121858.882   -21294803.237 9 -16046937.19349  21121858.472    21121863.5344
  22982568.645    10566800.477 9   8227562.96049  22982568.299    22982576.9484
  20545899.630   -21925874.484 9 -17051297.36349  20545899.480    20545904.5784
  23177271.300   -10829035.896 9  -8172292.20849  23177269.980    23177276.8114
  21788164.514     5016273.825 9   3910933.96449  21788163.548    21788169.8014
  22927975.890   -11777160.822 9  -8847880.42449  22927975.103    22927981.5184
  22374744.060   -12523773.349 9  -9722132.24849  22374743.647    22374751.1074
 99  4 18 18 28  0.0000000  0  7 09 02 04 05 07 08 24
  21119061.764   -21309502.365 9 -16058391.07149  21119061.498    21119066.6744
  22995636.805    10635473.286 9   8281074.12949  22995636.222    22995645.6464
  20539078.015   -21961722.146 9 -17079230.58949  20539077.852    20539083.2814
  23161363.298   -10912633.234 9  -8237432.94649  23161361.913    23161369.1854
  21800019.433     5078571.796 9   3959477.78749  21800018.631    21800024.9354
  22910942.004   -11866674.270 9  -8917631.11149  22910940.656    22910948.6764
  22356260.731   -12620903.895 9  -9797818.32249  22356260.123    22356267.9134
 99  4 18 18 28 30.0000000  0  7 09 02 04 05 07 08 24
  21116380.944   -21323590.443 9 -16069368.80849  21116380.544    21116385.8964
  23008750.555    10704386.035 9   8334772.25249  23008750.254    23008757.8704
  20532370.343   -21996971.165 9 -17106697.34449  20532370.296    20532375.4854
  23145476.277   -10996120.129 9  -8302487.61649  23145474.921    23145481.7234
  21811898.057     5140994.235 9   4008118.59249  21811897.158    21811904.0054
  22893974.916   -11955836.943 9  -8987108.45949  22893973.242    22893980.4884
  22337831.908   -12717747.628 9  -9873280.90249  22337831.341    22337839.4724
 99  4 18 18 29  0.0000000  0  7 09 02 04 05 07 08 24
  21113811.940   -21337090.861 9 -16079888.62249  21113811.562    21113816.9974
  23021913.484    10773557.066 9   8388671.64949  23021913.511    23021920.8474
  20525781.058   -22031598.156 9 -17133679.39649  20525780.858    20525786.1154
  23129606.707   -11079515.168 9  -8367470.71749  23129605.917    23129612.2474
  21823799.658     5203537.362 9   4056853.44749  21823798.858    21823805.1834
  22877078.427   -12044628.585 9  -9056296.69749  22877077.809    22877085.2214
  22319458.717   -12814299.362 9  -9948515.95549  22319457.781    22319466.1984
 99  4 18 18 29 30.0000000  0  7 09 02 04 05 07 08 24
  21111351.530   -21350020.400 9 -16089963.60349  21111350.926    21111356.4234
  23035126.587    10842992.178 9   8442776.81049  23035125.844    23035134.6234
  20519309.367   -22065606.944 9 -17160179.73649  20519309.148    20519314.4014
  23113751.283   -11162835.672 9  -8432395.72449  23113750.344    23113757.3684
  21835725.643     5266208.476 9   4105688.02749  21835724.662    21835731.0304
  22860256.426   -12133028.936 9  -9125180.03549  22860255.135    22860261.6514
  22301139.241   -12910568.642 9 -10023530.91649  22301138.693    22301146.0834
 99  4 18 18 30  0.0000000  0  7 09 02 04 05 07 08 24
  21108997.691   -21362389.591 9 -16099601.94749  21108996.985    21109002.2774
  23048388.390    10912682.888 9   8497081.14849  23048387.973    23048396.2604
  20512954.373   -22099002.501 9 -17186202.23449  20512954.177    20512959.4294
  23097904.994   -11246108.238 9  -8497283.39149  23097903.494    23097910.9094
  21847676.901     5329012.520 9   4154626.19249  21847675.739    21847682.4434
  22843509.286   -12221035.739 9  -9193756.70149  22843508.458    22843514.9074
  22282873.913   -13006553.474 9 -10098324.22349  22282873.538    22282881.7224
 99  4 18 18 30 30.0000000  0  7 09 02 04 05 07 08 24
  21106750.122   -21374200.182 9 -16108805.02649  21106749.471    21106755.2164
  23061700.191    10982636.362 9   8551590.22749  23061699.418    23061708.4624
  20506717.331   -22131778.452 9 -17211741.92649  20506717.175    20506722.4804
  23082063.323   -11329356.505 9  -8562152.11649  23082062.251    23082069.3694
  21859654.670     5391956.169 9   4203673.13949  21859653.617    21859660.4584
  22826837.508   -12308646.454 9  -9262024.74849  22826836.820    22826843.9544
  22264664.405   -13102245.083 9 -10172889.04649  22264663.634    22264671.1684
 99  4 18 18 31  0.0000000  0  7 09 02 04 05 07 08 24
  21104607.048   -21385461.861 9 -16117580.37749  21104606.885    21104612.1544
  23075064.415    11052865.487 9   8606314.10749  23075063.356    23075071.5394
  20500596.904   -22163941.462 9 -17236803.99949  20500596.762    20500601.9924
  23066225.687   -11412583.295 9  -8627004.11349  23066225.504    23066231.6934
  21871659.408     5455041.095 9   4252830.16849  21871658.326    21871665.3824
  22810242.485   -12395853.375 9  -9329978.14749  22810241.808    22810247.9374
  22246510.732   -13197642.895 9 -10247224.94149  22246510.122    22246517.9964
 99  4 18 18 31 30.0000000  0  7 09 02 04 05 07 08 24
  21102569.595   -21396168.949 9 -16125923.57949  21102569.255    21102574.6704
  23088477.232    11123349.885 9   8661236.90649  23088476.880    23088484.6464
  20494587.182   -22195522.616 9 -17261412.67749  20494586.883    20494592.0794
  23050394.371   -11495777.067 9  -8691830.37749  23050393.105    23050400.3274
  21883689.530     5518259.486 9   4302091.20049  21883688.368    21883695.3204
  22793721.536   -12482671.321 9  -9397628.45149  22793720.486    22793726.6484
  22228412.485   -13292749.891 9 -10321334.22449  22228412.071    22228419.4044
 99  4 18 18 32  0.0000000  0  7 09 02 04 05 07 08 24
  21100638.540   -21406317.060 9 -16133831.21549  21100638.382    21100643.6314
  23101938.245    11194087.833 9   8716357.26649  23101936.962    23101945.6234
  20488686.683   -22226529.982 9 -17285574.24849  20488686.428    20488691.5064
  23034571.261   -11578927.589 9  -8756622.93149  23034570.509    23034578.3164
  21895740.430     5581587.033 9   4351437.28749  21895739.905    21895745.9484
  22777270.739   -12569120.997 9  -9464991.78449  22777270.304    22777276.9974
  22210369.568   -13387565.821 9 -10395216.69649  22210369.151    22210376.4574
 99  4 18 18 32 30.0000000  0  7 09 02 04 05 07 08 24
  21098814.419   -21415903.270 9 -16141301.00949  21098814.085    21098819.6204
  23115448.592    11265084.697 9   8771679.37849  23115447.139    23115455.6164
  20482892.115   -22256980.475 9 -17309301.89749  20482892.039    20482897.1164
  23018759.545   -11662018.376 9  -8821368.94949  23018757.716    23018766.0394
  21907808.890     5645006.759 9   4400855.19949  21907808.440    21907814.8244
  22760887.074   -12655217.036 9  -9532079.56949  22760885.837    22760892.8844
  22192381.476   -13482093.213 9 -10468874.34149  22192380.435    22192389.2264
 99  4 18 18 33  0.0000000  0  7 09 02 04 05 07 08 24
  21097095.176   -21424938.407 9 -16148341.39149  21097094.715    21097100.1894
  23129007.121    11336334.587 9   8827198.65149  23129006.602    23129015.2014
  20477198.229   -22286901.832 9 -17332617.23149  20477198.081    20477203.2734
  23002958.399   -11745053.339 9  -8886071.46549  23002957.844    23002964.5524
  21919893.560     5708511.749 9   4450339.55649  21919893.044    21919899.0164
  22744570.503   -12740960.920 9  -9598892.95049  22744570.292    22744577.1354
  22174444.996   -13576349.819 9 -10542320.98749  22174444.751    22174451.6874
 99  4 18 18 33 30.0000000  0  7 09 02 04 05 07 08 24
  21095480.718   -21433422.498 9 -16154952.38749  21095480.303    21095485.5834
  23142611.662    11407826.148 9   8882906.24149  23142610.584    23142619.3334
  20471605.477   -22316291.975 9 -17355518.62649  20471605.243    20471610.3794
  22987166.106   -11828042.170 9  -8950738.02749  22987165.766    22987171.7254
  21931992.777     5772093.402 9   4499883.64949  21931991.438    21931998.3654
  22728318.662   -12826364.700 9  -9665441.31649  22728317.943    22728325.0084
  22156557.354   -13670349.754 9 -10615567.61849  22156557.035    22156563.6274
 99  4 18 18 34  0.0000000  0  7 09 02 04 05 07 08 24
  21093971.465   -21441353.718 9 -16161132.57249  21093970.998    21093976.4874
  23156262.662    11479562.238 9   8938804.38249  23156261.634    23156270.9144
  20466118.136   -22345128.063 9 -17377988.29149  20466117.871    20466123.2094
  22971382.141   -11910987.143 9  -9015370.42349  22971381.513    22971388.2314
  21944106.005     5835748.771 9   4549485.17949  21944105.542    21944112.0734
  22712134.878   -12911410.997 9  -9731711.11749  22712134.187    22712140.3704
  22138719.276   -13764088.784 9 -10688610.95549  22138718.484    22138726.5604
 99  4 18 18 34 30.0000000  0  7 09 02 04 05 07 08 24
  21092569.027   -21448723.611 9 -16166875.36449  21092568.599    21092573.9554
  23169959.177    11551537.469 9   8994888.85249  23169959.001    23169967.7344
  20460739.906   -22373390.860 9 -17400011.23549  20460739.505    20460745.0484
  22955606.434   -11993888.658 9  -9079968.95549  22955605.055    22955612.8264
  21956235.912     5899491.310 9   4599154.64149  21956235.055    21956241.6724
  22696023.500   -12996076.783 9  -9797684.41049  22696022.231    22696029.6964
  22120932.103   -13857560.602 9 -10761446.06649  22120931.168    22120938.4654
 99  4 18 18 35  0.0000000  0  7 09 02 04 05 07 08 24
  21091272.927   -21455534.745 9 -16172182.76249  21091272.536    21091278.0784
  23183699.798    11623744.449 9   9051153.91649  23183699.029    23183707.7274
  20455476.298   -22401051.128 9 -17421564.67949  20455475.989    20455481.4854
  22939842.058   -12076731.013 9  -9144521.39049  22939842.118    22939848.6144
  21968383.738     5963328.180 9   4648897.60149  21968382.855    21968389.3364
  22679988.137   -13080343.209 9  -9863346.52249  22679986.902    22679992.7684
  22103199.802   -13950743.909 9 -10834056.36649  22103199.164    22103207.1164
 99  4 18 18 35 30.0000000  0  7 09 02 04 05 07 08 24
  21090085.449   -21461774.992 9 -16177045.30949  21090085.028    21090090.3534
  23197481.551    11696167.841 9   9107587.59849  23197480.488    23197489.9394
  20450332.612   -22428081.245 9 -17442627.09849  20450332.479    20450337.7574
  22924093.017   -12159492.779 9  -9209011.02949  22924092.011    22924099.2774
  21980548.090     6027252.124 9   4698708.41349  21980547.324    21980553.6684
  22664030.891   -13164198.724 9  -9928688.44749  22664030.418    22664037.6134
  22085528.422   -14043607.389 9 -10906417.45049  22085527.537    22085535.6374
 99  4 18 18 36  0.0000000  0  7 09 02 04 05 07 08 24
  21089010.224   -21467425.562 9 -16181448.37349  21089009.852    21089015.2234
  23211304.751    11768809.063 9   9164191.01949  23211304.248    23211313.4664
  20445309.560   -22454477.747 9 -17463195.79649  20445309.487    20445314.6524
  22908361.720   -12242161.639 9  -9273428.27549  22908360.492    22908367.4914
  21992731.699     6091277.219 9   4748598.03749  21992731.039    21992737.6394
  22648155.301   -13247625.255 9  -9993696.10049  22648154.369    22648161.9364
  22067921.012   -14136134.566 9 -10978516.48549  22067920.816    22067928.1234
 99  4 18 18 36 30.0000000  0  7 09 02 04 05 07 08 24
  21088048.226   -21472481.006 9 -16185387.69349  21088047.848    21088053.1954
  23225173.316    11841688.270 9   9220979.88049  23225173.427    23225180.7214
  20440408.211   -22480234.457 9 -17483265.94449  20440407.880    20440412.9654
  22892648.653   -12324734.304 9  -9337770.55649  22892647.830    22892654.6034
  22004936.925     6155415.910 9   4798576.18449  22004935.650    22004942.8544
  22632360.863   -13330625.270 9 -10058371.38649  22632359.773    22632366.8734
  22050378.790   -14228319.081 9 -11050348.50049  22050378.131    22050385.9304
 99  4 18 18 37  0.0000000  0  7 09 02 04 05 07 08 24
  21087198.610   -21476946.074 9 -16188866.98149  21087198.206    21087203.4034
  23239089.389    11914817.564 9   9277963.61849  23239088.174    23239096.8214
  20435626.601   -22505362.006 9 -17502845.84249  20435626.370    20435631.7104
  22876954.622   -12407206.953 9  -9402034.91549  22876953.934    22876959.7804
  22017164.313     6219671.221 9   4848645.20249  22017163.435    22017169.8094
  22616649.820   -13413187.372 9 -10122705.45649  22616648.490    22616655.6064
  22032901.012   -14320165.132 9 -11121916.78749  22032900.590    22032907.9494
 99  4 18 18 37 30.0000000  0  7 09 02 04 05 07 08 24
  21086461.758   -21480818.275 9 -16191884.29649  21086461.167    21086466.6234
  23253057.136    11988218.018 9   9335158.64549  23253056.914    23253065.2244
  20430961.638   -22529876.314 9 -17521947.88549  20430961.270    20430966.6024
  22861274.544   -12489606.172 9  -9466242.05249  22861274.279    22861279.6554
  22029413.794     6284042.380 9   4898804.49549  22029413.075    22029419.6064
  22601022.462   -13495309.477 9 -10186696.66849  22601020.909    22601027.3674
  22015482.723   -14411698.515 9 -11193241.44249  22015482.289    22015489.8454
 99  4 18 18 38  0.0000000  0  7 09 02 04 05 07 08 24
  21085836.002   -21484106.673 9 -16194446.70249  21085835.380    21085840.9384
  23267081.312    12061914.837 9   9392584.60349  23267079.736    23267089.1124
  20426412.166   -22553783.659 9 -17540576.97149  20426411.679    20426417.2184
  22845606.112   -12571943.819 9  -9530401.20249  22845604.247    22845611.2544
  22041685.579     6348530.707 9   4949055.08749  22041684.599    22041691.0604
  22585476.011   -13577006.011 9 -10250356.26249  22585475.021    22585482.0674
  21998122.124   -14502928.953 9 -11264330.03349  21998121.397    21998129.1894
 99  4 18 18 38 30.0000000  0  7 09 02 04 05 07 08 24
  21085316.318   -21486837.483 9 -16196574.62749  21085315.840    21085321.1274
  23281160.546    12135901.161 9   9450236.14749  23281159.908    23281169.2644
  20421976.075   -22577095.574 9 -17558742.08749  20421976.040    20421981.1804
  22829948.160   -12654226.185 9  -9594517.28749  22829947.136    22829954.6564
  22053977.159     6413123.390 9   4999386.98849  22053975.910    22053982.8164
  22570008.620   -13658287.345 9 -10313692.33349  22570007.679    22570014.2284
  21980820.272   -14593850.402 9 -11335177.84949  21980819.535    21980826.6154
 99  4 18 18 39  0.0000000  0  7 09 02 04 05 07 08 24
  21084901.368   -21489018.090 9 -16198273.81849  21084900.717    21084906.3464
  23295288.242    12210141.867 9   9508085.92249  23295287.778    23295295.8664
  20417649.689   -22599830.981 9 -17576457.97549  20417649.375    20417654.5664
  22814299.922   -12736457.838 9  -9658593.84949  22814298.630    22814305.6904
  22066286.399     6477808.849 9   5049791.18849  22066285.299    22066292.3574
  22554617.690   -13739166.849 9 -10376715.27549  22554616.214    22554623.4764
  21963577.767   -14684460.052 9 -11405782.71049  21963577.032    21963584.8824
 99  4 18 18 39 30.0000000  0  7 09 02 04 05 07 08 24
  21084591.962   -21490644.135 9 -16199540.88549  21084591.631    21084597.1714
  23309460.061    12284614.543 9   9566116.43449  23309459.027    23309468.3214
  20413434.964   -22621979.534 9 -17593716.57649  20413434.683    20413439.9684
  22798662.543   -12818632.275 9  -9722625.83649  22798662.085    22798668.5074
  22078611.679     6542578.716 9   5100261.15649  22078610.486    22078617.7864
  22539298.655   -13819668.696 9 -10439443.94849  22539296.999    22539304.2984
  21946398.368   -14774738.131 9 -11476129.20349  21946397.785    21946405.2024
 99  4 18 18 40  0.0000000  0  7 09 02 04 05 07 08 24
  21084388.360   -21491714.106 9 -16200374.64949  21084387.892    21084393.1854
  23323671.138    12359293.762 9   9624307.90249  23323671.228    23323678.7334
  20409333.353   -22643533.513 9 -17610511.87249  20409333.283    20409338.5124
  22783041.666   -12900720.321 9  -9786590.49649  22783040.439    22783047.7994
  22090954.854     6607442.690 9   5150804.45149  22090954.201    22090961.3814
  22524053.268   -13899783.182 9 -10501870.77849  22524051.564    22524059.6034
  21929286.164   -14864662.953 9 -11546200.43449  21929285.721    21929293.4284
 99  4 18 18 40 30.0000000  0  7 09 02 04 05 07 08 24
  21084293.075   -21492215.005 9 -16200764.97849  21084292.678    21084298.0314
  23337919.030    12434166.181 9   9682649.91249  23337918.415    23337927.6324
  20405344.782   -22664493.521 9 -17626844.33249  20405344.484    20405349.8604
  22767438.894   -12982713.364 9  -9850481.13349  22767436.961    22767445.4264
  22103316.979     6672405.485 9   5201424.75449  22103316.263    22103322.8844
  22508885.464   -13979490.114 9 -10563980.03549  22508884.374    22508891.6204
  21912240.464   -14954238.632 9 -11615999.60249  21912239.192    21912247.7914
 99  4 18 18 41  0.0000000  0  7 09 02 04 05 07 08 24
  21084309.005   -21492131.408 9 -16200699.85349  21084308.507    21084313.9574
  23352207.677    12509252.820 9   9741158.84149  23352206.434    23352216.7044
  20401473.317   -22684838.019 9 -17642697.17049  20401473.144    20401478.4324
  22751857.068   -13064596.229 9  -9914285.91049  22751855.668    22751863.0684
  22115697.516     6737465.628 9   5252120.91649  22115696.612    22115703.8044
  22493798.486   -14058773.150 9 -10625758.98049  22493797.288    22493804.4444
  21895259.656   -15043472.963 9 -11685532.78549  21895258.858    21895267.0144
 99  4 18 18 41 30.0000000  0  7 09 02 04 05 07 08 24
  21084436.038   -21491463.792 9 -16200179.65249  21084435.349    21084440.8964
  23366543.226    12584586.227 9   9799860.03949  23366542.209    23366552.6454
  20397719.775   -22704562.955 9 -17658067.24049  20397719.623    20397724.7594
  22736297.144   -13146364.137 9  -9978001.11449  22736296.709    22736304.0704
  22128096.221     6802620.961 9   5302891.24849  22128095.488    22128102.2854
  22478797.448   -14137604.362 9 -10687185.85949  22478797.412    22478803.8234
  21878342.567   -15132372.856 9 -11754805.36749  21878341.929    21878349.5504
 99  4 18 18 42  0.0000000  0  7 09 02 04 05 07 08 24
  21084672.329   -21490221.944 9 -16199211.99449  21084671.825    21084677.2934
  23380929.705    12660187.167 9   9858769.73749  23380929.040    23380938.4174
  20394080.653   -22723686.632 9 -17672968.79549  20394080.382    20394085.3534
  22720755.638   -13228035.229 9 -10041640.89349  22720754.029    22720761.2864
  22140512.859     6867870.658 9   5353735.10949  22140511.783    22140518.2734
  22463884.407   -14215973.376 9 -10748252.58649  22463883.397    22463890.8334
  21861484.894   -15220960.346 9 -11823834.52349  21861484.449    21861491.8294
 99  4 18 18 42 30.0000000  0  7 09 02 04 05 07 08 24
  21085016.811   -21488411.916 9 -16197801.60249  21085016.227    21085021.9664
  23395368.975    12736065.661 9   9917895.67949  23395367.914    23395378.6474
  20390554.461   -22742216.957 9 -17687407.99849  20390554.253    20390559.4034
  22705228.103   -13309633.103 9 -10105223.60449  22705227.568    22705233.4184
  22152943.836     6933195.782 9   5404637.74849  22152943.037    22152949.8644
  22449056.996   -14293891.849 9 -10808968.24149  22449056.532    22449062.4624
  21844685.204   -15309243.284 9 -11892626.36449  21844684.650    21844692.0224
 99  4 18 18 43  0.0000000  0  7 09 02 04 05 07 08 24
  21085465.499   -21486054.054 9 -16195964.33049  21085464.896    21085470.4054
  23409859.992    12812216.374 9   9977233.74349  23409860.211    23409868.3264
  20387139.696   -22760161.747 9 -17701390.94449  20387139.557    20387144.8194
  22689713.608   -13391162.375 9 -10168752.86049  22689712.679    22689719.5404
  22165388.158     6998590.965 9   5455594.96849  22165387.152    22165394.0824
  22434314.678   -14371363.319 9 -10869335.58349  22434313.788    22434320.4754
  21827943.952   -15397218.866 9 -11961178.71249  21827943.459    21827950.8514
 99  4 18 18 43 30.0000000  0  7 09 02 04 05 07 08 24
  21086017.550   -21483152.875 9 -16193703.68349  21086016.844    21086022.2894
  23424397.084    12888608.496 9  10036759.92749  23424396.728    23424406.4654
  20383833.508   -22777535.938 9 -17714929.26649  20383833.176    20383838.3274
  22674208.053   -13472644.610 9 -10232245.46249  22674206.334    22674214.0084
  22177846.476     7064059.457 9   5506609.31349  22177845.357    22177852.8304
  22419655.701   -14448396.817 9 -10929361.65449  22419654.506    22419660.7884
  21811262.338   -15484881.135 9 -12029486.91649  21811262.047    21811268.9174
 99  4 18 18 44  0.0000000  0  7 09 02 04 05 07 08 24
  21086675.507   -21479695.267 9 -16191009.46749  21086675.159    21086680.5424
  23438975.421    12965218.150 9  10096455.61449  23438974.675    23438984.4444
  20380638.927   -22794323.543 9 -17728010.51249  20380638.677    20380643.7864
  22658712.818   -13554072.385 9 -10295695.63449  22658712.400    22658718.4244
  22190319.972     7129607.676 9   5557685.78749  22190318.492    22190325.9354
  22405079.914   -14524993.430 9 -10989047.29349  22405079.496    22405085.5604
  21794642.921   -15572216.938 9 -12097540.73849  21794642.663    21794649.9064
 99  4 18 18 44 30.0000000  0  7 09 02 04 05 07 08 24
  21087442.532   -21475664.977 9 -16187868.99649  21087441.998    21087447.6674
  23453593.710    13042037.441 9  10156314.64849  23453593.455    23453602.2764
  20377560.247   -22810502.095 9 -17740617.16549  20377560.049    20377565.2324
  22643232.285   -13635423.123 9 -10359085.77449  22643231.597    22643237.6024
  22202810.140     7195243.805 9   5608830.76249  22202809.195    22202816.3714
  22390589.293   -14601142.072 9 -11048383.86249  22390587.259    22390594.7834
  21778090.627   -15659199.503 9 -12165319.30049  21778090.012    21778097.0884
 99  4 18 18 45  0.0000000  0  7 09 02 04 05 07 08 24
  21088322.444   -21471041.160 9 -16184266.03649  21088322.008    21088327.3824
  23468252.336    13119068.042 9  10216338.33649  23468251.687    23468260.9374
  20374599.684   -22826060.100 9 -17752740.28049  20374599.478    20374604.7334
  22627768.831   -13716683.810 9 -10422405.74249  22627767.612    22627774.7494
  22215318.455     7260975.552 9   5660050.24449  22215317.196    22215324.3534
  22376186.282   -14676829.931 9 -11107361.38949  22376185.679    22376192.0304
  21761608.587   -15745812.921 9 -12232810.21649  21761607.573    21761615.1154
 99  4 18 18 45 30.0000000  0  7 09 02 04 05 07 08 24
  21089320.497   -21465796.729 9 -16180179.48449  21089320.048    21089325.1514
  23482953.421    13196322.170 9  10276536.21349  23482953.030    23482961.8184
  20371761.206   -22840976.446 9 -17764363.40549  20371761.013    20371766.0854
  22612325.700   -13797837.727 9 -10485642.52349  22612324.853    22612331.1084
  22227846.617     7326811.259 9   5711350.72449  22227845.613    22227853.3654
  22361871.057   -14752056.697 9 -11165979.61749  22361870.889    22361876.4894
  21745201.038   -15832034.830 9 -12299996.06949  21745200.471    21745208.0754
 99  4 18 18 46  0.0000000  0  7 09 02 04 05 07 08 24
  21090436.231   -21459933.494 9 -16175610.74649  21090435.755    21090441.0794
  23497702.599    13273828.904 9  10336930.91149  23497702.399    23497711.2554
  20369045.237   -22855248.968 9 -17775484.84049  20369045.104    20369050.2964
  22596908.214   -13878856.856 9 -10548774.26649  22596906.917    22596913.3064
  22240393.814     7392746.700 9   5762728.93149  22240393.096    22240400.0064
  22347644.002   -14826819.942 9 -11224236.65749  22347642.949    22347650.1084
  21728869.763   -15917856.228 9 -12366869.82949  21728869.457    21728876.6874
 99  4 18 18 46 30.0000000  0  7 09 02 04 05 07 08 24
  21091665.678   -21453472.837 9 -16170576.48949  21091665.054    21091670.3944
  23512501.983    13351599.470 9  10397531.20049  23512500.844    23512511.7384
  20366448.813   -22868893.380 9 -17786116.84649  20366448.571    20366453.6514
  22581515.992   -13959743.495 9 -10611802.77749  22581514.193    22581521.4764
  22252957.448     7458768.772 9   5814174.63949  22252956.589    22252963.3974
  22333501.794   -14901137.172 9 -11282146.16849  22333500.719    22333507.8594
  21712614.439   -16003278.318 9 -12433432.43249  21712613.690    21712621.1164
 99  4 18 18 47  0.0000000  0  7 09 02 04 05 07 08 24
  21093004.517   -21446436.831 9 -16165093.90949  21093003.957    21093009.2894
  23527350.532    13429629.032 9  10458333.29049  23527349.595    23527359.5704
  20363970.122   -22881919.029 9 -17796266.69849  20363969.947    20363975.0384
  22566147.741   -14040503.806 9 -10674732.84349  22566147.041    22566152.9684
  22265535.422     7524866.507 9   5865679.31049  22265534.531    22265541.7284
  22319442.265   -14975019.909 9 -11339717.09949  22319440.753    22319448.9464
  21696432.841   -16088312.918 9 -12499693.10249  21696432.033    21696439.5364
 99  4 18 18 47 30.0000000  0  7 09 02 04 05 07 08 24
  21094448.028   -21438851.024 9 -16159182.91349  21094447.278    21094452.9124
  23542247.838    13507914.387 9  10519334.71149  23542247.331    23542257.0184
  20361608.479   -22894329.385 9 -17805937.10249  20361608.152    20361613.4574
  22550804.248   -14121134.536 9 -10737561.94349  22550802.914    22550809.6344
  22278126.486     7591032.525 9   5917237.18049  22278125.635    22278132.9754
  22305465.156   -15048469.567 9 -11396950.57549  22305464.818    22305471.3434
  21680322.309   -16172974.094 9 -12565662.78949  21680321.636    21680329.1234
 99  4 18 18 48  0.0000000  0  7 09 02 04 05 07 08 24
  21095993.642   -21430728.670 9 -16152853.82649  21095993.158    21095998.6864
  23557193.083    13586451.170 9  10580532.04749  23557193.994    23557202.1144
  20359362.133   -22906133.947 9 -17815135.45349  20359361.867    20359367.1104
  22535483.024   -14201647.909 9 -10800299.58949  22535481.841    22535488.5524
  22290728.366     7657255.664 9   5968839.56249  22290727.201    22290734.2894
  22291572.686   -15121474.993 9 -11453837.88649  22291571.506    22291578.0024
  21664279.646   -16257278.553 9 -12631354.51049  21664279.172    21664286.5774
 99  4 18 18 48 30.0000000  0  7 09 02 04 05 07 08 24
  21097644.294   -21422054.602 9 -16146094.83049  21097643.905    21097649.4494
  23572182.907    13665222.009 9  10641911.76649  23572182.418    23572191.1614
  20357232.306   -22917326.213 9 -17823856.68849  20357231.932    20357237.2324
  22520181.847   -14282055.757 9 -10862955.00249  22520180.583    22520187.4234
  22303343.377     7723547.820 9   6020495.72349  22303342.347    22303349.2144
  22277767.306   -15194022.511 9 -11510368.38649  22277766.543    22277773.0194
  21648303.355   -16341234.135 9 -12696774.37549  21648302.752    21648310.4014
 99  4 18 18 49  0.0000000  0  7 09 02 04 05 07 08 24
  21099404.686   -21412804.126 9 -16138886.68749  21099404.286    21099409.6924
  23587217.167    13744227.132 9  10703474.01949  23587216.710    23587226.1854
  20355220.859   -22927896.319 9 -17832093.12849  20355220.624    20355225.8604
  22504899.927   -14362362.083 9 -10925531.31549  22504899.113    22504905.4884
  22315973.860     7789921.570 9   6072215.46549  22315973.263    22315980.1634
  22264055.183   -15266079.948 9 -11566517.00449  22264054.246    22264060.5054
  21632393.988   -16424838.345 9 -12761920.45449  21632393.276    21632400.6414
 99  4 18 18 49 30.0000000  0  7 09 02 04 05 07 08 24
  21101280.150   -21402948.512 9 -16131207.00749  21101279.548    21101285.1194
  23602297.684    13823475.222 9  10765225.61349  23602297.110    23602306.2594
  20353329.194   -22937836.821 9 -17839838.96549  20353328.994    20353334.0624
  22489637.365   -14442566.885 9 -10988028.51449  22489635.959    22489643.0234
  22328621.673     7856386.031 9   6124005.88849  22328620.668    22328628.5434
  22250440.583   -15337625.139 9 -11622266.47749  22250439.771    22250446.2444
  21616553.504   -16508080.562 9 -12826784.45949  21616552.722    21616559.9104
 99  4 18 18 50  0.0000000  0  8 16 09 02 04 05 07 08 24
  24564863.621    -4328778.590 9  -3362142.95049  24564861.650    24564874.3574
  21103274.831   -21392466.398 9 -16123039.14749  21103274.277    21103279.6674
  23617426.076    13902974.295 9  10827172.78249  23617425.986    23617434.6304
  20351559.325   -22947137.494 9 -17847086.23649  20351559.169    20351564.4164
  22474396.540   -14522657.856 9 -11050437.01149  22474395.740    22474402.6334
  22341291.382     7922965.346 9   6175885.81449  22341290.856    22341297.6374
  22236926.963   -15408639.781 9 -11677602.52949  22236926.236    22236932.7544
  21600786.075   -16590938.861 9 -12891349.30749  21600785.258    21600792.5734
 99  4 18 18 50 30.0000000  0  8 16 09 02 04 05 07 08 24
  24559816.066    -4355303.157 9  -3382811.40449  24559814.764    24559825.0324
  21105386.472   -21381369.778 9 -16114392.45049  21105385.805    21105391.4434
  23632599.387    13982710.144 9  10889304.46149  23632598.393    23632608.2894
  20349907.326   -22955818.815 9 -17853850.89149  20349907.132    20349912.2434
  22459174.607   -14602649.600 9 -11112768.18649  22459173.508    22459180.3624
  22353980.798     7989648.330 9   6227846.51849  22353979.812    22353987.3524
  22223512.258   -15479134.292 9 -11732533.27449  22223510.854    22223518.1324
  21585090.856   -16673417.421 9 -12955618.24949  21585089.983    21585097.4204
 99  4 18 18 51  0.0000000  0  8 16 09 02 04 05 07 08 24
  24554859.026    -4381352.781 9  -3403109.78649  24554857.516    24554868.5144
  21107610.487   -21369682.549 9 -16105285.54149  21107609.696    21107615.3974
  23647817.959    14062683.965 9  10951621.54349  23647817.597    23647826.1824
  20348371.670   -22963888.850 9 -17860139.22049  20348371.536    20348376.7724
  22443970.593   -14682547.271 9 -11175026.06849  22443969.893    22443976.5244
  22366686.566     8056417.414 9   6279874.31249  22366685.496    22366693.1874
  22210194.497   -15549119.522 9 -11787067.18149  22210193.863    22210200.0544
  21569468.390   -16755513.757 9 -13019589.36149  21569467.708    21569474.8624
 99  4 18 18 51 30.0000000  0  8 16 09 02 04 05 07 08 24
  24549991.199    -4406932.594 9  -3423042.06549  24549991.704    24549999.2074
  21109942.135   -21357429.374 9 -16095737.63749  21109941.721    21109947.3884
  23663082.040    14142896.437 9  11014124.60649  23663080.300    23663090.7564
  20346950.640   -22971356.306 9 -17865958.00849  20346950.459    20346955.8034
  22428787.177   -14762336.273 9 -11237199.27249  22428786.544    22428793.0814
  22379408.592     8123272.284 9   6331968.94049  22379407.848    22379414.7294
  22196970.030   -15618614.795 9 -11841219.31249  22196969.358    22196975.7014
  21553919.554   -16837223.386 9 -13083259.13949  21553919.092    21553926.1884
 99  4 18 18 52  0.0000000  0  8 16 09 02 04 05 07 08 24
  24545208.019    -4432068.859 9  -3442628.72949  24545206.507    24545218.6454
  21112377.977   -21344629.069 9 -16085763.39949  21112377.445    21112382.9994
  23678390.749    14223343.480 9  11076810.44549  23678390.341    23678400.6384
  20345640.446   -22978241.574 9 -17871323.14449  20345640.126    20345645.3594
  22413624.518   -14842016.514 9 -11299287.72749  22413623.491    22413630.6764
  22392144.629     8190200.539 9   6384120.76649  22392144.021    22392150.6624
  22183834.710   -15687641.326 9 -11895006.17949  22183833.711    22183839.4404
  21538444.533   -16918544.900 9 -13146626.49649  21538443.986    21538451.1584
 99  4 18 18 52 30.0000000  0  8 16 09 02 04 05 07 08 24
  24540506.504    -4456774.725 9  -3461880.02649  24540505.701    24540516.1654
  21114916.323   -21331290.196 9 -16075369.49849  21114915.968    21114921.4894
  23693742.895    14304018.790 9  11139674.15149  23693741.994    23693751.7254
  20344439.846   -22984550.605 9 -17876239.26349  20344439.578    20344444.8864
  22398480.776   -14921597.467 9 -11361298.81449  22398479.715    22398486.1044
  22404891.076     8257183.313 9   6436315.06549  22404889.967    22404897.2374
  22170786.237   -15756211.003 9 -11948437.05849  22170785.605    22170791.7424
  21523044.223   -16999473.666 9 -13209687.80949  21523043.137    21523050.8304
 99  4 18 18 53  0.0000000  0  8 16 09 02 04 05 07 08 24
  24535887.223    -4481050.317 9  -3480796.05249  24535886.619    24535897.5254
  21117554.203   -21317428.276 9 -16064568.02449  21117553.902    21117559.3024
  23709137.352    14384916.731 9  11202711.32649  23709137.745    23709145.7934
  20343350.469   -22990275.455 9 -17880700.17849  20343350.432    20343355.5614
  22383358.185   -15001067.314 9 -11423223.31949  22383357.434    22383363.7624
  22417647.403     8324217.907 9   6488549.74649  22417647.186    22417653.3124
  22157821.929   -15824339.111 9 -12001523.87649  22157821.110    22157827.1214
  21507717.774   -17080014.365 9 -13272446.74049  21507717.057    21507724.2614
 99  4 18 18 53 30.0000000  0  8 16 09 02 04 05 07 08 24
  24531352.776    -4504879.720 9  -3499364.40849  24531351.659    24531362.4864
  21120294.173   -21303030.006 9 -16053348.61449  21120293.765    21120299.2904
  23724573.883    14466035.375 9  11265920.48949  23724573.549    23724582.9924
  20342372.830   -22995412.997 9 -17884703.44649  20342372.628    20342377.6334
  22368257.861   -15080420.317 9 -11485056.78749  22368256.468    22368263.4134
  22430414.097     8391306.761 9   6540826.71849  22430413.098    22430420.3644
  22144942.848   -15892019.202 9 -12054261.57349  22144942.116    22144948.5124
  21492464.822   -17160168.901 9 -13334904.75549  21492464.007    21492471.3594
 99  4 18 18 54  0.0000000  0  8 16 09 02 04 05 07 08 24
  24526907.408    -4528240.567 9  -3517567.62949  24526906.066    24526915.8904
  21123139.414   -21288078.359 9 -16041698.00349  21123139.065    21123144.4524
  23740052.364    14547375.057 9  11329301.87149  23740052.134    23740061.6444
  20341508.886   -22999952.899 9 -17888241.02349  20341508.597    20341513.9064
  22353178.905   -15159660.655 9 -11546802.46249  22353177.657    22353184.7194
  22443190.223     8458445.327 9   6593142.41349  22443189.833    22443196.9424
  22132150.954   -15959240.921 9 -12106642.09849  22132150.391    22132156.0994
  21477284.854   -17239940.176 9 -13397064.13249  21477284.285    21477291.3724
 99  4 18 18 54 30.0000000  0  8 16 09 02 04 05 07 08 24
  24522555.027    -4551113.046 9  -3535390.30049  24522553.889    24522564.5474
  21126089.697   -21272574.566 9 -16029617.15049  21126089.083    21126094.8374
  23755575.002    14628946.338 9  11392863.73349  23755573.798    23755584.4834
  20340762.518   -23003874.774 9 -17891297.02049  20340762.173    20340767.2544
  22338122.611   -15238781.850 9 -11608455.29249  22338121.960    22338128.3194
  22455980.032     8525655.710 9   6645514.07849  22455978.619    22455986.9064
  22119450.530   -16025982.089 9 -12158648.16649  22119449.504    22119456.2784
  21462176.972   -17319332.242 9 -13458928.02049  21462176.215    21462183.4964
 99  4 18 18 55  0.0000000  0  8 16 09 02 04 05 07 08 24
  24518297.221    -4573488.377 9  -3552825.59949  24518295.907    24518306.2124
  21129148.092   -21256502.455 9 -16017093.45449  21129147.386    21129153.3344
  23771144.908    14710766.164 9  11456619.24349  23771144.239    23771154.1404
  20340136.537   -23007164.341 9 -17893860.31049  20340136.177    20340141.4144
  22323090.437   -15317776.450 9 -11670009.48849  22323089.767    22323095.9984
  22468787.515     8592959.048 9   6697958.17349  22468786.203    22468793.4294
  22106843.543   -16092232.158 9 -12210271.56849  22106842.212    22106849.3014
  21447140.085   -17398351.264 9 -13520501.22749  21447139.464    21447146.9284
 99  4 18 18 55 30.0000000  0  8 16 09 02 04 05 07 08 24
  24514132.808    -4595371.588 9  -3569877.41149  24514130.890    24514141.5734
  21132317.519   -21239846.909 9 -16004115.13349  21132317.001    21132322.5984
  23786762.631    14792837.246 9  11520570.54349  23786761.478    23786771.1824
  20339630.976   -23009820.716 9 -17895930.20149  20339630.667    20339635.9654
  22308082.790   -15396641.686 9 -11731462.87749  22308081.317    22308087.3584
  22481612.580     8660354.714 9   6750474.21049  22481612.464    22481619.8864
  22094333.956   -16157970.347 9 -12261496.10549  22094332.472    22094339.8104
  21432178.387   -17476975.303 9 -13581766.65349  21432177.692    21432185.0514
 99  4 18 18 56  0.0000000  0  8 16 09 02 04 05 07 08 24
  24510056.946    -4616789.572 9  -3586566.73449  24510056.201    24510067.7924
  21135596.497   -21222615.834 9 -15990688.35049  21135596.011    21135601.4924
  23802428.166    14875159.254 9  11584717.38149  23802427.492    23802438.3214
  20339244.160   -23011853.576 9 -17897514.24149  20339243.904    20339249.1084
  22293099.941   -15475377.089 9 -11792815.08949  22293098.769    22293105.3554
  22494454.339     8727838.190 9   6803058.67349  22494453.774    22494460.1854
  22081923.975   -16223184.905 9 -12312312.61649  22081923.043    22081929.6494
  21417294.712   -17555189.460 9 -13642712.69349  21417293.806    21417300.8904
 99  4 18 18 56 30.0000000  0  8 16 09 02 04 05 07 08 24
  24506068.350    -4637749.837 9  -3602899.38549  24506066.743    24506077.0274
  21138983.396   -21204817.710 9 -15976819.70549  21138983.127    21138988.5324
  23818138.894    14957719.579 9  11649049.90949  23818137.636    23818148.8064
  20338975.847   -23013263.547 9 -17898612.91149  20338975.800    20338980.8674
  22278141.483   -15553983.905 9 -11854067.10349  22278140.774    22278147.3044
  22507310.831     8795399.411 9   6855703.71149  22507310.343    22507317.2444
  22069615.542   -16287865.608 9 -12362713.13149  22069614.644    22069621.7194
  21402489.485   -17632991.053 9 -13703337.25449  21402488.825    21402495.7964
 99  4 18 18 57  0.0000000  0  8 16 09 02 04 05 07 08 24
  24502168.816    -4658243.531 9  -3618868.47549  24502168.302    24502177.6254
  21142481.294   -21186436.214 9 -15962496.48949  21142481.135    21142486.6544
  23833891.443    15040499.496 9  11713553.55549  23833891.190    23833901.6514
  20338824.862   -23014056.954 9 -17899231.13949  20338824.765    20338829.7934
  22263209.481   -15632451.922 9 -11915210.97549  22263208.172    22263214.4424
  22520176.991     8863011.330 9   6908388.26349  22520176.476    22520183.1234
  22057410.652   -16352002.639 9 -12412690.00849  22057409.073    22057416.8444
  21387763.947   -17710374.174 9 -13763635.73049  21387763.110    21387770.5454
 99  4 18 18 57 30.0000000  0  8 16 09 02 04 05 07 08 24
  24498356.763    -4678274.518 9  -3634476.99949  24498355.062    24498366.3694
  21146086.734   -21167489.937 9 -15947733.18149  21146086.379    21146091.9044
  23849683.976    15123489.013 9  11778220.52549  23849683.718    23849694.0724
  20338785.637   -23014263.036 9 -17899391.71649  20338785.462    20338790.5934
  22248305.106   -15710774.681 9 -11976241.65249  22248303.660    22248310.4894
  22533049.906     8930658.487 9   6961100.27449  22533048.965    22533056.1824
  22045309.915   -16415592.478 9 -12462240.51049  22045309.180    22045316.0254
  21373119.138   -17787333.141 9 -13823603.70349  21373118.248    21373125.6184
 99  4 18 18 58  0.0000000  0  8 16 09 02 04 05 07 08 24
  24494633.641    -4697838.874 9  -3649721.93749  24494633.228    24494643.4444
  21149797.898   -21147987.615 9 -15932536.59349  21149797.420    21149803.0934
  23865514.855    15206680.140 9  11843044.59849  23865515.218    23865524.3714
  20338855.111   -23013898.023 9 -17899107.28449  20338854.804    20338860.0554
  22233424.826   -15788970.640 9 -12037173.53349  22233423.791    22233430.6824
  22545928.835     8998337.404 9   7013837.02749  22545927.899    22545934.7164
  22033309.981   -16478652.024 9 -12511377.79349  22033308.998    22033315.4604
  21358549.941   -17863894.231 9 -13883261.63849  21358549.234    21358556.2864
 99  4 18 18 58 30.0000000  0  8 16 09 02 04 05 07 08 24
  24491001.226    -4716927.900 9  -3664596.47549  24491001.123    24491010.0654
  21153614.831   -21127929.536 9 -15916906.94849  21153614.407    21153620.0294
  23881384.488    15290074.225 9  11908026.81649  23881383.892    23881394.1424
  20339034.965   -23012952.767 9 -17898370.71649  20339034.649    20339039.9044
  22218568.243   -15867041.996 9 -12098008.31149  22218567.126    22218573.4814
  22558814.816     9066053.340 9   7066602.62949  22558813.578    22558821.5664
  22021407.732   -16541198.955 9 -12560115.63249  22021407.147    22021413.4114
  21344054.214   -17940069.648 9 -13942619.05149  21344053.489    21344060.5614
 99  4 18 18 59  0.0000000  0  8 16 09 02 04 05 07 08 24
  24487457.174    -4735552.934 9  -3679109.46449  24487456.886    24487465.6874
  21157537.436   -21107316.376 9 -15900844.77449  21157537.102    21157542.8684
  23897295.982    15373688.480 9  11973180.59049  23897295.826    23897305.6774
  20339322.789   -23011439.997 9 -17897191.93149  20339322.420    20339327.6404
  22203735.000   -15944990.755 9 -12158747.55549  22203733.905    22203740.6484
  22571710.156     9133818.462 9   7119406.55549  22571709.181    22571716.9444
  22009599.923   -16603249.849 9 -12608466.94349  22009598.592    22009604.9874
  21329634.856   -18015843.619 9 -14001663.64849  21329634.461    21329641.6254
 99  4 18 18 59 30.0000000  0  8 16 09 02 04 05 07 08 24
  24483998.338    -4753730.043 9  -3693273.43049  24483997.731    24484007.7244
  21161560.834   -21086173.290 9 -15884369.66749  21161560.197    21161565.9394
  23913249.899    15457525.670 9  12038508.07549  23913249.852    23913259.6784
  20339719.411   -23009355.784 9 -17895567.86149  20339719.285    20339724.6444
  22188921.480   -16022836.542 9 -12219406.56649  22188920.770    22188927.1604
  22584617.260     9201645.718 9   7172258.89649  22584617.015    22584623.8864
  21997884.136   -16664816.941 9 -12656441.27249  21997883.272    21997890.3104
  21315292.896   -18091211.074 9 -14060391.48249  21315292.030    21315298.9684
 99  4 18 19  0  0.0000000  0  8 16 09 02 04 05 07 08 24
  24480626.204    -4771452.020 9  -3707082.74749  24480625.306    24480635.0424
  21165687.168   -21064489.123 9 -15867472.94349  21165686.660    21165692.3234
  23929245.213    15541580.961 9  12104005.49449  23929244.289    23929254.2284
  20340231.139   -23006666.790 9 -17893472.53649  20340230.941    20340236.0924
  22174127.549   -16100578.952 9 -12279985.02749  22174126.851    22174133.3144
  22597536.382     9269536.115 9   7225160.44149  22597536.001    22597543.4464
  21986261.901   -16725892.447 9 -12704032.55349  21986260.708    21986267.1644
  21301030.055   -18166162.439 9 -14118795.08649  21301029.344    21301036.5604
 99  4 18 19  0 30.0000000  0  8 16 09 02 04 05 07 08 24
  24477342.187    -4788709.602 9  -3720530.20649  24477340.780    24477351.4614
  21169918.756   -21042251.805 9 -15850145.18649  21169918.261    21169923.6664
  23945283.326    15625861.802 9  12169678.67949  23945282.526    23945293.2344
  20340861.475   -23003354.431 9 -17890891.47349  20340861.315    20340866.5644
  22159359.256   -16178186.666 9 -12340458.53549  22159358.865    22159364.5914
  22610470.299     9337503.659 9   7278122.10249  22610469.318    22610476.8784
  21974736.746   -16786457.716 9 -12751226.23849  21974735.787    21974741.7704
  21286850.764   -18240674.864 9 -14176856.65949  21286850.090    21286857.0634
 99  4 18 19  1  0.0000000  0  8 16 09 02 04 05 07 08 24
  24474150.563    -4805480.765 9  -3733598.59549  24474148.530    24474159.3994
  21174256.384   -21019457.251 9 -15832383.22049  21174255.808    21174261.4974
  23961362.890    15710359.978 9  12235521.20649  23961362.374    23961373.5584
  20341610.722   -22999417.123 9 -17887823.43549  20341610.316    20341615.5404
  22144620.069   -16255641.539 9 -12400812.94349  22144618.580    22144625.7744
  22623418.952     9405548.737 9   7331144.17949  22623418.193    22623425.3324
  21963312.621   -16846491.835 9 -12798006.03149  21963311.626    21963317.5824
  21272756.921   -18314738.058 9 -14234568.18149  21272756.457    21272763.4234
 99  4 18 19  1 30.0000000  0  8 16 09 02 04 05 07 08 24
  24471056.079    -4821742.116 9  -3746269.76649  24471054.881    24471064.9534
  21178701.218   -20996099.664 9 -15814182.53449  21178700.681    21178706.2674
  23977480.750    15795059.906 9  12301520.93849  23977480.775    23977491.3744
  20342482.968   -22994833.509 9 -17884251.78649  20342482.712    20342487.7204
  22129912.251   -16332931.330 9 -12461038.70949  22129911.751    22129917.8894
  22636381.627     9473667.930 9   7384224.00249  22636379.930    22636387.6554
  21951994.028   -16905970.982 9 -12844353.39549  21951992.722    21951999.7774
  21258747.604   -18388357.583 9 -14291933.99549  21258746.706    21258753.8944
 99  4 18 19  2  0.0000000  0  8 16 09 02 04 05 07 08 24
  24468062.795    -4837470.203 9  -3758525.38949  24468061.873    24468072.1084
  21183257.391   -20972156.814 9 -15795525.79549  21183256.747    21183262.4274
  23993639.803    15879975.648 9  12367688.83949  23993639.769    23993650.0014
  20343478.335   -22989602.691 9 -17880175.82149  20343478.023    20343483.1644
  22115240.683   -16410030.860 9 -12521116.22549  22115240.028    22115246.5894
  22649358.015     9541859.012 9   7437359.85349  22649357.496    22649364.2064
  21940783.611   -16964881.751 9 -12890257.86449  21940782.163    21940789.1534
  21244822.989   -18461531.538 9 -14348952.60549  21244822.515    21244829.2424
 99  4 18 19  2 30.0000000  0  8 16 09 02 04 05 07 08 24
  24465172.593    -4852658.266 9  -3770360.22949  24465171.424    24465181.2044
  21187924.638   -20947630.402 9 -15776414.33449  21187924.035    21187929.9064
  24009843.837    15965126.744 9  12434040.12749  24009844.630    24009854.7874
  20344594.333   -22983738.126 9 -17875606.02849  20344594.061    20344599.2134
  22100603.833   -16486948.137 9 -12581051.72449  22100603.171    22100609.6274
  22662348.044     9610121.776 9   7490551.55649  22662347.054    22662354.2644
  21929679.354   -17023234.478 9 -12935727.50149  21929678.060    21929684.7514
  21230981.960   -18534266.435 9 -14405629.09549  21230981.158    21230988.2234
 99  4 18 19  3  0.0000000  0  8 16 09 02 04 05 07 08 24
  24462386.814    -4867297.450 9  -3781767.36849  24462385.603    24462396.3294
  21192700.579   -20922532.547 9 -15756857.59349  21192699.939    21192705.5534
  24026093.812    16050519.285 9  12500579.56149  24026093.681    24026104.5224
  20345830.840   -22977239.994 9 -17870542.54549  20345830.764    20345835.8294
  22085997.384   -16563705.496 9 -12640862.61349  22085996.533    22086002.3684
  22675347.899     9678436.209 9   7543783.52449  22675346.744    22675354.0714
  21918682.244   -17081024.237 9 -12980758.45949  21918680.983    21918688.0574
  21217223.531   -18606567.082 9 -14461967.20849  21217222.872    21217229.8004
 99  4 18 19  3 30.0000000  0  8 16 09 02 04 05 07 08 24
  24459703.681    -4881397.990 9  -3792754.78149  24459702.071    24459713.1974
  21197584.642   -20896866.530 9 -15736858.13449  21197584.158    21197590.0044
  24042391.885    16136165.740 9  12567316.83049  24042391.509    24042402.4054
  20347186.527   -22970115.810 9 -17864991.23449  20347186.396    20347191.5724
  22071419.638   -16640311.800 9 -12700555.79349  22071418.465    22071424.8984
  22688356.904     9746798.594 9   7597052.84449  22688355.428    22688362.6674
  21907791.446   -17138255.411 9 -13025354.15749  21907790.602    21907797.5004
  21203547.728   -18678433.780 9 -14517967.18249  21203547.180    21203553.6314
 99  4 18 19  4  0.0000000  0  8 16 09 02 04 05 07 08 24
  24457120.137    -4894975.258 9  -3803334.45349  24457119.299    24457128.3734
  21202575.197   -20870640.738 9 -15716422.48049  21202574.653    21202580.5364
  24058740.007    16222074.919 9  12634258.83149  24058740.301    24058749.7184
  20348655.792   -22962394.900 9 -17858974.94249  20348655.559    20348660.6854
  22056871.116   -16716764.640 9 -12760129.39549  22056870.286    22056876.6934
  22701376.103     9815214.215 9   7650363.65749  22701374.965    22701382.9744
  21897002.524   -17194951.400 9 -13069532.83049  21897001.701    21897008.1934
  21189952.293   -18749877.929 9 -14573637.89849  21189951.772    21189958.7244
 99  4 18 19  4 30.0000000  0  8 16 09 02 04 05 07 08 24
  24454632.082    -4908049.979 9  -3813522.52749  24454631.141    24454641.8314
  21207669.917   -20843867.839 9 -15695560.50549  21207669.446    21207675.3334
  24075133.141    16308220.671 9  12701385.15849  24075132.563    24075144.2214
  20350234.422   -22954099.087 9 -17852510.66649  20350234.296    20350239.3714
  22042348.706   -16793080.193 9 -12819596.01149  22042347.141    22042353.4094
  22714404.226     9883677.336 9   7703711.48149  22714403.106    22714409.8484
  21886313.311   -17251123.683 9 -13113303.41649  21886312.151    21886318.6694
  21176436.293   -18820904.931 9 -14628983.55949  21176435.479    21176442.3874
 99  4 18 19  5  0.0000000  0  8 16 09 02 04 05 07 08 24
  24452236.455    -4920638.596 9  -3823331.82249  24452235.500    24452245.7874
  21212866.402   -20816560.216 9 -15674281.86649  21212866.018    21212871.8424
  24091565.087    16394570.804 9  12768670.75349  24091564.877    24091576.5394
  20351917.958   -22945252.314 9 -17845617.07649  20351917.751    20351922.8394
  22027853.725   -16869251.572 9 -12878950.29449  22027852.925    22027859.4524
  22727440.579     9952183.656 9   7757092.96249  22727439.341    22727446.4314
  21875725.270   -17306764.426 9 -13156659.81849  21875724.831    21875731.2734
  21162998.191   -18891522.486 9 -14684010.17349  21162997.612    21163004.5984
 99  4 18 19  5 30.0000000  0  8 16 09 02 04 05 07 08 24
  24449926.886    -4932774.691 9  -3832788.49849  24449925.659    24449935.7374
  21218162.070   -20788731.804 9 -15652597.41049  21218161.942    21218167.6424
  24108031.915    16481103.741 9  12836098.81449  24108031.547    24108043.2464
  20353701.145   -22935881.446 9 -17838315.09749  20353700.796    20353705.7614
  22013387.520   -16945271.966 9 -12938186.92349  22013386.769    22013392.9474
  22740485.994    10020737.628 9   7810511.58649  22740484.900    22740492.1204
  21865234.391   -17361894.548 9 -13199618.32949  21865233.624    21865239.9774
  21149637.017   -18961735.677 9 -14738721.70149  21149636.192    21149643.5604
 99  4 18 19  6  0.0000000  0  8 16 09 02 04 05 07 08 24
  24447701.584    -4944468.398 9  -3841900.46049  24447701.049    24447710.7104
  21223554.439   -20760395.343 9 -15630517.08249  21223554.129    21223559.7504
  24124530.948    16567805.862 9  12903658.67149  24124530.985    24124542.0094
  20355585.590   -22925978.376 9 -17830598.41849  20355585.292    20355590.4724
  21998947.543   -17021154.332 9 -12997316.00049  21998946.486    21998952.6694
  22753539.633    10089334.954 9   7863963.98749  22753538.613    22753545.9954
  21854840.664   -17416514.273 9 -13242179.12949  21854839.609    21854846.4704
  21136353.468   -19031540.952 9 -14793115.37449  21136352.837    21136359.7044
 99  4 18 19  6 30.0000000  0  8 16 09 02 04 05 07 08 24
  24445560.713    -4955719.616 9  -3850667.64549  24445560.081    24445569.6524
  21229043.587   -20731550.073 9 -15608040.27249  21229043.089    21229049.0134
  24141060.647    16654668.854 9  12971343.91749  24141059.832    24141070.5824
  20357575.040   -22915523.718 9 -17822451.92749  20357574.744    20357580.1224
  21984532.511   -17096905.745 9 -13056343.03249  21984531.565    21984537.4174
  22766600.032    10157968.000 9   7917444.22549  22766599.551    22766606.4354
  21844547.561   -17470604.576 9 -13284327.39649  21844546.595    21844552.6854
  21123151.930   -19100915.400 9 -14847173.33249  21123151.387    21123158.3564
 99  4 18 19  7  0.0000000  0  8 16 09 02 04 05 07 08 24
  24443507.450    -4966510.168 9  -3859075.87349  24443506.443    24443516.3034
  21234630.738   -20702189.622 9 -15585162.03249  21234630.201    21234636.0374
  24157624.419    16741710.725 9  13039168.51749  24157623.905    24157634.7324
  20359676.070   -22904482.722 9 -17813848.55649  20359675.780    20359680.9844
  21970146.545   -17172504.658 9 -13115251.23949  21970145.575    21970151.6294
  22779671.207    10226657.404 9   7970968.35949  22779671.132    22779678.3054
  21834357.924   -17524150.946 9 -13326051.82349  21834356.679    21834363.5684
  21110035.745   -19169841.284 9 -14900881.77449  21110035.287    21110041.9764
 99  4 18 19  7 30.0000000  0  8 16 09 02 04 05 07 08 24
  24441544.025    -4976826.702 9  -3867114.71149  24441543.641    24441553.2844
  21240317.136   -20672307.503 9 -15561877.29549  21240316.725    21240322.5954
  24174225.629    16828949.700 9  13107146.68149  24174225.212    24174237.1714
  20361895.276   -22892820.896 9 -17804761.42249  20361894.903    20361900.3234
  21955790.742   -17247944.969 9 -13174035.85649  21955789.623    21955795.7354
  22792755.274    10295414.429 9   8024545.20249  22792754.554    22792762.6874
  21824272.041   -17577152.505 9 -13367351.71749  21824271.331    21824277.7304
  21097008.263   -19238301.069 9 -14954227.01649  21097007.506    21097014.5324
 99  4 18 19  8  0.0000000  0  8 16 09 02 04 05 07 08 24
  24439679.677    -4986624.692 9  -3874749.51049  24439678.003    24439689.0844
  21246109.122   -20641870.442 9 -15538160.13249  21246108.625    21246114.4314
  24190867.723    16916403.521 9  13175292.26749  24190867.111    24190879.7274
  20364238.380   -22880507.964 9 -17795166.92749  20364238.321    20364243.3664
  21941469.183   -17323205.317 9 -13232680.24349  21941468.118    21941474.3584
  22805854.402    10364250.930 9   8078183.96749  22805854.106    22805861.2844
  21814294.148   -17629586.658 9 -13408209.47549  21814293.159    21814299.9384
  21084073.743   -19306272.104 9 -15007191.41349  21084072.930    21084080.2164
 99  4 18 19  8 30.0000000  0  8 16 09 02 04 05 07 08 24
  24437918.167    -4995881.329 9  -3881962.46849  24437917.382    24437927.0594
  21252009.973   -20610861.352 9 -15513997.23549  21252009.440    21252015.1614
  24207553.399    17004086.358 9  13243616.33049  24207553.529    24207564.9134
  20366705.335   -22867544.099 9 -17785065.21549  20366705.223    20366710.1964
  21927187.517   -17398255.818 9 -13291161.12149  21927186.635    21927192.7884
  22818969.040    10433168.919 9   8131886.24049  22818968.767    22818976.5744
  21804426.988   -17681438.662 9 -13448613.61149  21804425.850    21804432.6874
  21071231.915   -19373756.065 9 -15059776.27049  21071231.260    21071238.2294
 99  4 18 19  9  0.0000000  0  8 16 09 02 04 05 07 08 24
  24436261.704    -5004587.692 9  -3888746.66549  24436260.969    24436269.9284
  21258018.792   -20579284.716 9 -15489392.09249  21258018.150    21258024.0524
  24224286.289    17092017.842 9  13312134.16649  24224285.636    24224297.8584
  20369296.165   -22853929.223 9 -17774456.22049  20369295.850    20369301.1144
  21912946.993   -17473090.053 9 -13349473.47249  21912946.403    21912951.7574
  22832097.667    10502159.992 9   8185645.44049  22832097.188    22832104.9484
  21794670.618   -17732708.938 9 -13488564.44849  21794670.004    21794675.8034
  21058481.652   -19440759.095 9 -15111986.37449  21058480.847    21058487.8304
 99  4 18 19  9 30.0000000  0  8 16 09 02 04 05 07 08 24
  24434709.811    -5012741.662 9  -3895100.38549  24434709.063    24434718.5414
  21264135.943   -20547139.159 9 -15464343.63749  21264135.655    21264141.3134
  24241068.698    17180209.428 9  13380854.65549  24241067.988    24241080.4814
  20372006.872   -22839684.415 9 -17763356.37249  20372006.753    20372011.7044
  21898747.045   -17547711.286 9 -13407619.85049  21898746.313    21898751.8824
  22845237.374    10571209.137 9   8239449.90649  22845237.331    22845243.6264
  21785024.948   -17783397.301 9 -13528061.85449  21785023.702    21785030.1604
  21045822.201   -19507284.679 9 -15163824.44549  21045821.391    21045828.2834
 99  4 18 19 10  0.0000000  0  8 16 09 02 04 05 07 08 24
  24433259.799    -5020356.925 9  -3901034.34249  24433259.416    24433269.8864
  21270360.320   -20514430.109 9 -15438856.09549  21270359.916    21270365.7634
  24257899.264    17268653.581 9  13449771.94649  24257898.486    24257909.9614
  20374831.298   -22824841.767 9 -17751790.67249  20374831.158    20374836.1644
  21884584.172   -17622137.606 9 -13465614.35049  21884583.278    21884589.1134
  22858383.213    10640290.592 9   8293279.54349  22858383.081    22858390.1524
  21775489.635   -17833505.356 9 -13567107.07049  21775488.473    21775494.8484
  21033249.522   -19573354.376 9 -15215307.28149  21033248.575    21033255.6994
 99  4 18 19 10 30.0000000  0  8 16 09 02 04 05 07 08 24
  24431908.822    -5027458.418 9  -3906567.97149  24431908.102    24431918.3384
  21276687.283   -20481181.974 9 -15412948.49349  21276686.916    21276692.9474
  24274776.013    17357340.938 9  13518878.75349  24274775.962    24274786.9364
  20377764.464   -22809427.881 9 -17739779.85649  20377764.117    20377769.1814
  21870454.417   -17696389.770 9 -13523473.14949  21870453.700    21870458.9994
  22871534.547    10709400.841 9   8347131.61049  22871533.177    22871541.5674
  21766062.685   -17883043.934 9 -13605708.54149  21766061.439    21766068.0504
  21020761.033   -19638981.446 9 -15266445.21349  21020760.151    21020767.1454
 99  4 18 19 11  0.0000000  0  8 16 09 02 04 05 07 08 24
  24430653.091    -5034056.050 9  -3911708.98249  24430652.211    24430662.8824
  21283113.739   -20447410.687 9 -15386633.23449  21283113.267    21283119.2374
  24291694.511    17446246.983 9  13588155.96149  24291693.820    24291706.1864
  20380801.323   -22793468.976 9 -17727344.34749  20380801.135    20380806.0114
  21856353.692   -17770489.394 9 -13581213.07149  21856353.261    21856358.9734
  22884692.781    10778547.275 9   8401011.88949  22884691.608    22884699.4664
  21756739.827   -17932035.841 9 -13643884.02949  21756738.763    21756744.9704
  21008355.898   -19704170.661 9 -15317241.96449  21008355.278    21008362.1534
 99  4 18 19 11 30.0000000  0  8 16 09 02 04 05 07 08 24
  24429492.471    -5040157.211 9  -3916463.13249  24429492.045    24429501.9994
  21289638.720   -20413121.681 9 -15359914.56049  21289638.310    21289644.0874
  24308646.852    17535330.952 9  13657571.81849  24308646.754    24308658.1904
  20383937.357   -22776989.029 9 -17714502.83249  20383937.084    20383942.0004
  21842279.147   -17844451.379 9 -13638845.75249  21842277.886    21842284.2434
  22897856.565    10847723.578 9   8454915.42649  22897855.435    22897863.6034
  21747518.934   -17980491.663 9 -13681641.79349  21747517.687    21747524.9964
  20996032.346   -19768931.155 9 -15367704.63949  20996031.650    20996038.6384
 99  4 18 19 12  0.0000000  0  8 16 09 02 04 05 07 08 24
  24428427.426    -5045751.923 9  -3920822.64949  24428427.242    24428437.1894
  21296259.668   -20378328.444 9 -15332802.98049  21296259.137    21296265.2464
  24325628.437    17624568.762 9  13727107.53049  24325628.588    24325639.0384
  20387175.610   -22759971.904 9 -17701242.74249  20387175.472    20387180.2924
  21828229.978   -17918279.966 9 -13696374.48349  21828229.012    21828234.5974
  22911025.539    10916926.761 9   8508839.91449  22911025.107    22911033.6424
  21738400.065   -18028411.538 9 -13718981.94449  21738399.229    21738405.6854
  20983790.736   -19833261.373 9 -15417832.04149  20983790.284    20983796.7454
 99  4 18 19 12 30.0000000  0  7 16 09 04 05 07 08 24
  24427466.630    -5050799.395 9  -3924755.74649  24427467.036    24427476.8594
  21302981.610   -20343004.617 9 -15305277.95449  21302981.173    21302987.0854
  20390524.795   -22742371.912 9 -17687528.46549  20390524.574    20390529.8064
  21814215.025   -17991928.692 9 -13753763.05749  21814214.224    21814220.2644
  22924207.231    10986196.612 9   8562816.35649  22924206.202    22924214.9764
  21729388.664   -18075766.550 9 -13755881.93149  21729387.258    21729394.1814
  20971639.656   -19897115.790 9 -15467588.68249  20971639.246    20971645.6914
 99  4 18 19 13  0.0000000  0  7 16 09 04 05 07 08 24
  24426618.236    -5055259.202 9  -3928230.88749  24426618.834    24426628.7114
  21309814.524   -20307097.661 9 -15277298.54349  21309814.283    21309819.9194
  20393995.893   -22724131.258 9 -17673314.97349  20393995.661    20394000.8364
  21800243.307   -18065350.280 9 -13810974.64749  21800241.917    21800248.5514
  22937407.168    11055562.490 9   8616867.61949  22937405.854    22937414.3494
  21720495.848   -18122498.542 9 -13792296.45649  21720494.455    21720501.6354
  20959586.971   -19960452.834 9 -15516942.17749  20959586.330    20959593.1774
 99  4 18 19 13 30.0000000  0  7 16 09 04 05 07 08 24
  24425858.919    -5059251.997 9  -3931342.16749  24425858.530    24425868.5604
  21316737.886   -20270715.308 9 -15248948.69349  21316737.480    21316743.4864
  20397571.579   -22705340.911 9 -17658673.15049  20397571.315    20397576.6284
  21786294.539   -18138651.012 9 -13868092.05849  21786293.623    21786299.6624
  22950601.734    11124900.081 9   8670896.83649  22950601.040    22950609.5664
  21711702.900   -18168705.648 9 -13828301.97549  21711702.291    21711708.4794
  20947612.287   -20023380.067 9 -15565976.34249  20947611.780    20947618.6984
 99  4 18 19 14  0.0000000  0  7 16 09 04 05 07 08 24
  24425194.910    -5062740.352 9  -3934060.34649  24425194.220    24425204.5904
  21323760.718   -20233810.495 9 -15220191.72849  21323760.508    21323766.2134
  20401260.647   -22685954.599 9 -17643566.93349  20401260.501    20401265.4324
  21772379.731   -18211773.401 9 -13925070.50449  21772378.276    21772385.3674
  22963801.680    11194266.180 9   8724948.27449  22963800.692    22963808.4464
  21703020.225   -18214333.637 9 -13863856.23449  21703018.863    21703025.4244
  20935723.737   -20085854.602 9 -15614657.74949  20935723.300    20935729.9234
 99  4 18 19 14 30.0000000  0  7 16 09 04 05 07 08 24
  24424625.623    -5065731.220 9  -3936390.87449  24424624.734    24424635.8334
  21330887.562   -20196359.035 9 -15191008.80949  21330887.024    21330892.7624
  20405060.953   -22665983.764 9 -17628005.24749  20405060.640    20405065.7864
  21758504.850   -18284686.031 9 -13981885.50249  21758504.151    21758510.1894
  22977012.320    11263688.422 9   8779043.45549  22977011.586    22977019.2974
  21694452.406   -18259357.884 9 -13898940.04849  21694451.394    21694457.5154
  20923923.960   -20147862.489 9 -15662975.53849  20923923.319    20923930.0434
 99  4 18 19 15  0.0000000  0  7 16 09 04 05 07 08 24
  24424152.574    -5068220.621 9  -3938330.67249  24424151.062    24424161.3024
  21338115.555   -20158375.682 9 -15161411.42749  21338115.020    21338120.7794
  20408969.793   -22645442.768 9 -17611999.27849  20408969.604    20408974.5974
  21744669.720   -18357389.736 9 -14038537.70049  21744669.209    21744674.9634
  22990233.816    11333167.659 9   8833183.05749  22990233.033    22990240.7914
  21685999.659   -18303777.393 9 -13933552.63249  21685998.236    21686005.2744
  20912212.543   -20209406.205 9 -15710931.63249  20912211.777    20912218.5604
 99  4 18 19 15 30.0000000  0  7 16 09 04 05 07 08 24
  24423775.830    -5070200.032 9  -3939873.04749  24423774.253    24423784.4414
  21345441.006   -20119880.254 9 -15131415.02649  21345440.509    21345446.4604
  20412984.226   -22624346.782 9 -17595560.85249  20412984.005    20412989.0194
  21730873.925   -18429887.003 9 -14095029.03749  21730872.970    21730879.0514
  23003466.123    11402703.802 9   8887366.97749  23003465.033    23003473.6054
  21677658.228   -18347611.878 9 -13967709.35449  21677657.620    21677663.6694
  20900589.278   -20270486.682 9 -15758526.76249  20900588.823    20900595.3604
 99  4 18 19 16  0.0000000  0  7 16 09 04 05 07 08 24
  24423494.506    -5071678.717 9  -3941025.27149  24423493.048    24423502.7144
  21352858.505   -20080900.819 9 -15101041.47649  21352857.794    21352863.9344
  20417099.035   -22602723.505 9 -17578711.54649  20417098.897    20417103.7684
  21717115.118   -18502189.753 9 -14151368.79949  21717114.295    21717120.2564
  23016706.864    11472283.599 9   8941584.94349  23016705.247    23016713.6964
  21669425.059   -18390877.653 9 -14001422.92749  21669423.910    21669430.8624
  20889051.903   -20331116.130 9 -15805770.44449  20889051.251    20889057.9194
 99  4 18 19 16 30.0000000  0  7 16 09 04 05 07 08 24
  24423309.033    -5072652.893 9  -3941784.35649  24423308.076    24423318.8484
  21360365.204   -20041452.924 9 -15070302.88949  21360364.777    21360370.6014
  20421314.752   -22580569.887 9 -17561448.98449  20421314.638    20421319.6474
  21703390.135   -18574314.705 9 -14207570.02549  21703389.496    21703395.3844
  23029953.046    11541892.380 9   8995825.48249  23029952.266    23029959.8764
  21661297.635   -18433587.116 9 -14034703.01249  21661296.986    21661302.9884
  20877600.021   -20391296.008 9 -15852663.81249  20877599.389    20877606.1064
 99  4 18 19 17  0.0000000  0  7 16 09 04 05 07 08 24
  24423222.400    -5073109.693 9  -3942140.30549  24423220.866    24423231.6694
  21367961.818   -20001532.620 9 -15039196.19849  21367961.368    21367967.1304
  20425636.594   -22557858.448 9 -17543751.76249  20425636.506    20425641.4704
  21689697.537   -18646269.893 9 -14263638.96349  21689696.386    21689702.8254
  23043204.042    11611526.745 9   9050085.95949  23043202.523    23043210.8704
  21653275.959   -18475741.238 9 -14067550.36749  21653275.200    21653281.7274
  20866236.842   -20451009.928 9 -15899194.09549  20866236.265    20866242.9274
 99  4 18 19 17 30.0000000  0  7 16 09 04 05 07 08 24
  24423234.120    -5073048.191 9  -3942092.35449  24423233.008    24423242.9874
  21375653.361   -19961113.460 9 -15007700.78449  21375652.933    21375658.8964
  20430067.453   -22534574.119 9 -17525608.12849  20430067.319    20430072.3144
  21676038.789   -18718047.277 9 -14319569.35349  21676037.721    21676044.0464
  23056462.174    11681198.446 9   9104375.53249  23056460.724    23056469.0204
  21645362.595   -18517326.326 9 -14099954.31649  21645361.818    21645368.0304
  20854965.453   -20510241.323 9 -15945348.38549  20854964.638    20854971.3114
 99  4 18 19 18  0.0000000  0  7 16 09 04 05 07 08 24
  24423345.219    -5072465.392 9  -3941638.20349  24423343.361    24423354.2124
  21383440.174   -19920193.766 9 -14975815.34349  21383439.863    21383445.8504
  20434611.959   -22510692.471 9 -17506999.05149  20434611.813    20434616.9184
  21662417.058   -18789629.968 9 -14375348.03849  21662416.441    21662421.9614
  23069729.117    11750916.528 9   9158701.24449  23069728.160    23069735.8284
  21637561.936   -18558319.360 9 -14131896.91749  21637561.038    21637567.2384
  20843787.846   -20568979.505 9 -15991118.35349  20843787.176    20843793.7304
 99  4 18 19 18 30.0000000  0  7 16 09 04 05 07 08 24
  24423560.010    -5071336.058 9  -3940758.18649  24423558.942    24423569.4644
  21391328.103   -19878742.643 9 -14943515.80349  21391327.612    21391333.6784
  20439275.817   -22486183.778 9 -17487901.36749  20439275.624    20439280.8234
  21648837.785   -18860989.465 9 -14430952.80349  21648837.072    21648842.7784
  23083006.276    11820688.594 9   9213069.01049  23083005.008    23083012.6004
  21629877.017   -18598703.880 9 -14163365.36349  21629876.428    21629882.1884
  20832709.311   -20627197.389 9 -16036482.89649  20832708.646    20832715.1454
 99  4 18 19 19  0.0000000  0  7 16 09 04 05 07 08 24
  24423881.181    -5069646.467 9  -3939441.62749  24423879.420    24423890.1264
  21399319.690   -19836746.685 9 -14910791.71449  21399319.449    21399325.5404
  20444058.322   -22461051.426 9 -17468317.71249  20444057.943    20444063.2214
  21635305.851   -18932100.262 9 -14486363.77649  21635305.010    21635310.8784
  23096295.659    11890524.764 9   9267486.74349  23096294.538    23096302.1444
  21622310.613   -18638465.541 9 -14194348.45849  21622309.427    21622316.3674
  20821733.170   -20684877.267 9 -16081428.20649  20821732.555    20821739.0704
 99  4 18 19 19 30.0000000  0  7 16 09 04 05 07 08 24
  24424311.337    -5067386.519 9  -3937680.62449  24424310.192    24424320.0784
  21407413.772   -19794212.271 9 -14877648.05649  21407413.066    21407419.1014
  20448957.507   -22435306.138 9 -17448256.45349  20448957.361    20448962.3154
  21621821.764   -19002959.646 9 -14541578.84249  21621820.795    21621826.7324
  23109596.447    11960420.446 9   9321950.84849  23109596.179    23109602.9794
  21614864.323   -18677596.223 9 -14224839.88749  21614863.421    21614869.5194
  20810856.665   -20742033.385 9 -16125965.39849  20810856.114    20810862.6654
 99  4 18 19 20  0.0000000  0  7 16 09 04 05 07 08 24
  24424850.201    -5064554.614 9  -3935473.90849  24424848.739    24424859.8064
  21415610.672   -19751137.025 9 -14844082.96749  21415610.321    21415616.5094
  20453973.509   -22408947.058 9 -17427716.91149  20453973.339    20453978.4464
  21608387.809   -19073555.238 9 -14596588.35749  21608386.855    21608392.7924
  23122907.008    12030367.470 9   9376454.95249  23122906.695    23122914.4254
  21607538.424   -18716094.280 9 -14254838.36049  21607537.213    21607544.1234
  20800078.981   -20798670.304 9 -16170098.02049  20800078.215    20800084.9574
 99  4 18 19 20 30.0000000  0  7 16 09 04 05 07 08 24
  24425497.550    -5061152.245 9  -3932822.68649  24425497.400    24425505.6074
  21423914.272   -19707501.438 9 -14810081.23849  21423914.033    21423920.0804
  20459100.613   -22382003.961 9 -17406722.27849  20459100.479    20459105.4984
  21595000.827   -19143904.217 9 -14651405.69649  21594999.893    21595005.9044
  23136226.824    12100363.459 9   9430997.23649  23136226.354    23136234.0674
  21600330.859   -18753970.157 9 -14284352.00949  21600330.143    21600336.3484
  20789397.286   -20854802.554 9 -16213837.37649  20789396.670    20789403.4004
 99  4 18 19 21  0.0000000  0  7 16 09 04 05 07 08 24
  24426248.105    -5057207.708 9  -3929749.00849  24426246.401    24426256.1614
  21432319.907   -19663329.732 9 -14775661.77949  21432319.584    21432325.4934
  20464334.161   -22354501.587 9 -17385291.87049  20464333.836    20464338.9584
  21581655.169   -19214036.354 9 -14706054.08649  21581653.972    21581660.1414
  23149555.062    12170403.335 9   9485573.68149  23149555.336    23149561.4594
  21593240.315   -18791230.883 9 -14313386.34049  21593238.852    21593245.9934
  20778804.333   -20910468.902 9 -16257213.72049  20778803.654    20778810.2034
 99  4 18 19 21 30.0000000  0  7 16 09 04 05 07 08 24
  24427097.585    -5052743.341 9  -3926270.26349  24427096.403    24427106.2814
  21440825.108   -19618634.753 9 -14740834.56449  21440824.696    21440830.7274
  20469673.072   -22326445.274 9 -17363429.81049  20469672.690    20469677.7894
  21568346.719   -19283972.828 9 -14760550.00249  21568346.215    21568351.6004
  23162890.696    12240482.258 9   9540180.56649  23162889.505    23162898.0094
  21586263.860   -18827891.824 9 -14341953.29949  21586262.441    21586269.1544
  20768297.348   -20965683.521 9 -16300238.05849  20768296.887    20768303.2134
 99  4 18 19 22  0.0000000  0  7 16 09 04 05 07 08 24
  24428043.124    -5047774.740 9  -3922398.61749  24428042.488    24428052.8644
  21449428.328   -19573424.787 9 -14705606.06049  21449428.080    21449433.8774
  20475115.090   -22297847.089 9 -17341145.51249  20475114.973    20475119.9044
  21555075.939   -19353711.302 9 -14814891.63549  21555075.242    21555080.6944
  23176235.062    12310607.135 9   9594823.26349  23176235.186    23176242.1204
  21579398.572   -18863969.078 9 -14370065.44549  21579397.464    21579404.0524
  20757877.301   -21020441.198 9 -16342906.33849  20757876.761    20757883.1114
 99  4 18 19 22 30.0000000  0  7 16 09 04 05 07 08 24
  24429084.498    -5042302.956 9  -3918134.86349  24429082.528    24429092.9804
  21458124.373   -19527726.922 9 -14669997.36849  21458123.680    21458129.8774
  20480656.740   -22268725.491 9 -17318453.35749  20480656.547    20480661.6514
  21541839.431   -19423269.598 9 -14869092.86449  21541838.536    21541843.8054
  23189587.154    12380772.491 9   9649497.50149  23189586.084    23189593.9624
  21572642.720   -18899471.499 9 -14397729.65649  21572641.851    21572648.3464
  20747543.611   -21074744.899 9 -16385220.86649  20747542.915    20747549.4084
 99  4 18 19 23  0.0000000  0  7 16 09 04 05 07 08 24
  24430220.291    -5036334.141 9  -3913483.82649  24430220.180    24430228.9494
  21466908.153   -19481567.929 9 -14634029.36349  21466907.959    21466913.9184
  20486297.265   -22239084.245 9 -17295356.28249  20486297.052    20486302.2064
  21528639.688   -19492634.554 9 -14923143.44149  21528638.973    21528644.6314
  23202945.583    12450971.468 9   9704197.93649  23202944.386    23202952.8994
  21565994.814   -18934406.567 9 -14424951.78049  21565994.043    21566000.1154
  20737299.405   -21128578.267 9 -16427168.90449  20737298.857    20737305.1314
 99  4 18 19 23 30.0000000  0  7 16 09 04 05 07 08 24
  24431451.457    -5029864.310 9  -3908442.39949  24431450.739    24431459.8614
  21475777.727   -19434958.130 9 -14597710.08049  21475777.229    21475783.3634
  20492032.599   -22208945.016 9 -17271871.17749  20492032.381    20492037.4774
  21515477.788   -19561800.722 9 -14977039.12549  21515476.735    21515482.6884
  23216308.448    12521193.596 9   9758916.39949  23216306.346    23216315.7274
  21559453.578   -18968781.170 9 -14451737.18249  21559452.841    21559459.0144
  20727148.967   -21181919.015 9 -16468733.08449  20727148.574    20727154.9674
 99  4 18 19 24  0.0000000  0  8 16 09 04 05 07 08 30 24
  24432776.054    -5022902.870 9  -3903017.88849  24432775.252    24432785.3774
  21484727.492   -19387926.825 9 -14561062.36049  21484727.203    21484733.1794
  20497858.081   -22178331.927 9 -17248016.82849  20497857.948    20497862.9594
  21502351.922   -19630777.799 9 -15030787.46649  21502350.862    21502356.5164
  23229667.982    12591398.205 9   9813621.22949  23229667.616    23229675.8084
  21553015.833   -19002611.917 9 -14478098.79049  21553015.038    21553020.9684
  24572033.075    -4294345.781 9  -2743757.68649  24572033.645    24572041.9714
  20717086.716   -21234796.385 9 -16509936.18749  20717086.160    20717092.7224
 99  4 18 19 24 30.0000000  0  8 16 09 04 05 07 08 30 24
  24434200.079    -5015419.672 9  -3897186.81849  24434199.056    24434208.7454
  21493761.373   -19340453.751 9 -14524070.39649  21493760.759    21493767.0584
  20503779.432   -22147215.128 9 -17223769.97049  20503779.059    20503784.2704
  21489266.324   -19699542.918 9 -15084370.63649  21489265.401    21489270.9174
  23243025.648    12661592.660 9   9868318.13849  23243025.408    23243032.7054
  21546688.269   -19035863.295 9 -14504008.94749  21546687.289    21546693.7104
  24553027.983    -4394217.219 9  -2821579.49849  24553027.763    24553035.9094
  20707117.224   -21287186.249 9 -16550759.41249  20707116.621    20707122.9644
 99  4 18 19 25  0.0000000  0  8 16 09 04 05 07 08 30 24
  24435728.452    -5007387.866 9  -3890928.26449  24435728.207    24435737.4364
  21502889.253   -19292486.545 9 -14486693.39549  21502888.840    21502894.9034
  20509807.084   -22115539.659 9 -17199087.79149  20509806.926    20509811.8584
  21476229.287   -19768053.025 9 -15137755.09749  21476228.327    21476233.6524
  23256390.597    12731826.148 9   9923045.44649  23256389.616    23256397.3364
  21540480.258   -19068486.411 9 -14529429.55049  21540479.217    21540485.5694
  24534023.958    -4494083.446 9  -2899397.25749  24534022.959    24534031.4054
  20697247.659   -21339051.056 9 -16591173.50549  20697246.944    20697253.6034
 99  4 18 19 25 30.0000000  0  8 16 09 04 05 07 08 30 24
  24437359.879    -4998814.707 9  -3884247.86549  24437358.539    24437369.1984
  21512110.177   -19244030.318 9 -14448935.34549  21512109.766    21512115.9174
  20515942.931   -22083295.593 9 -17173962.55149  20515942.688    20515947.7674
  21463238.448   -19836320.306 9 -15190950.35149  21463237.420    21463243.0764
  23269762.630    12802096.441 9   9977801.45249  23269761.949    23269769.8514
  21534393.850   -19100470.459 9 -14554352.17649  21534392.920    21534399.4584
  24515025.461    -4593920.940 9  -2977192.62449  24515024.841    24515032.1684
  20687474.351   -21390410.007 9 -16631193.43149  20687473.950    20687480.3054
 99  4 18 19 26  0.0000000  0  8 16 09 04 05 07 08 30 24
  24439094.602    -4989697.940 9  -3877143.88849  24439093.558    24439104.0334
  21521427.393   -19195068.182 9 -14410783.07949  21521427.106    21521432.9674
  20522192.604   -22050453.427 9 -17148371.25349  20522192.522    20522197.4884
  21450295.725   -19904334.510 9 -15243948.39449  21450294.630    21450300.3224
  23283142.951    12872410.077 9  10032591.22949  23283142.316    23283150.1924
  21528429.659   -19131812.591 9 -14578774.61449  21528428.549    21528435.2004
  24496032.632    -4693727.966 9  -3054964.23749  24496032.120    24496041.2194
  20677796.331   -21441268.405 9 -16670823.31049  20677795.810    20677802.2464
 99  4 18 19 26 30.0000000  0  8 16 09 04 05 07 08 30 24
  24440932.427    -4980040.734 9  -3869618.79249  24440931.135    24440941.4534
  21530841.878   -19145594.965 9 -14372232.56349  21530841.399    21530847.7324
  20528555.392   -22017016.742 9 -17122316.69949  20528554.987    20528560.1204
  21437400.482   -19972099.381 9 -15296752.15749  21437399.597    21437405.0944
  23296534.790    12942784.745 9  10087428.56249  23296534.135    23296543.2954
  21522589.317   -19162503.786 9 -14602689.82449  21522588.592    21522594.8114
  24477048.043    -4793491.378 9  -3132701.87849  24477047.553    24477055.3634
  20668215.387   -21491616.446 9 -16710055.51149  20668214.743    20668221.1234
 99  4 18 19 27  0.0000000  0  8 16 09 04 05 07 08 30 24
  24442871.701    -4969850.105 9  -3861678.04649  24442870.103    24442880.8914
  21540352.503   -19095616.295 9 -14333288.19449  21540352.194    21540358.2074
  20535027.575   -21983005.268 9 -17095814.25949  20535027.386    20535032.2334
  21424552.031   -20039618.402 9 -15349364.34949  21424551.302    21424556.8294
  23309940.033    13013229.378 9  10142320.40149  23309939.445    23309947.5884
  21516870.804   -19192554.773 9 -14626106.17849  21516869.901    21516876.2574
  24458069.899    -4893220.655 9  -3210412.89349  24458069.461    24458077.5924
  20658729.755   -21541463.508 9 -16748897.34049  20658728.950    20658735.4634
 99  4 18 19 27 30.0000000  0  8 16 09 04 05 07 08 30 24
  24444914.305    -4959115.935 9  -3853313.74149  24444914.028    24444922.9214
  21549956.257   -19045148.541 9 -14293962.71349  21549955.986    21549961.9444
  20541604.348   -21948444.074 9 -17068883.46049  20541604.173    20541609.1234
  21411752.012   -20106882.861 9 -15401778.17749  21411751.123    21411756.3524
  23323354.125    13083720.150 9  10197248.20349  23323353.598    23323361.6474
  21511271.227   -19221980.987 9 -14649035.68749  21511270.347    21511276.7604
  24439094.201    -4992938.016 9  -3288114.62449  24439093.887    24439102.6494
  20649340.028   -21590806.606 9 -16787346.46349  20649339.450    20649345.7924
 99  4 18 19 28  0.0000000  0  8 16 09 04 05 07 08 30 24
  24447062.235    -4947828.588 9  -3844518.40749  24447060.482    24447071.1024
  21559652.791   -18994192.733 9 -14254256.94049  21559652.233    21559658.5164
  20548283.346   -21913345.563 9 -17041533.98049  20548283.040    20548288.1834
  21399001.359   -20173887.992 9 -15453989.93849  21399000.410    21399005.8674
  23336776.623    13154255.074 9  10252210.41249  23336775.576    23336784.6724
  21505786.269   -19250804.841 9 -14671495.83349  21505785.405    21505791.5524
  24420117.246    -5092662.137 9  -3365821.63249  24420116.755    24420124.3164
  20640047.067   -21639641.283 9 -16825399.42249  20640046.633    20640052.8714
 99  4 18 19 28 30.0000000  0  8 16 09 04 05 07 08 30 24
  24449313.607    -4935997.367 9  -3835299.28849  24449313.213    24449322.2174
  21569438.495   -18942768.942 9 -14214186.49849  21569438.089    21569444.3854
  20555060.676   -21877730.461 9 -17013781.95949  20555060.148    20555065.5904
  21386295.669   -20240656.552 9 -15506017.36049  21386294.516    21386300.3464
  23350206.772    13224830.468 9  10307204.14049  23350205.799    23350214.0294
  21500415.403   -19279028.806 9 -14693488.52349  21500414.623    21500420.7754
  24401137.234    -5192403.081 9  -3443541.74649  24401138.004    24401144.4884
  20630851.663   -21687963.357 9 -16863052.94949  20630851.039    20630857.6104
 99  4 18 19 29  0.0000000  0  8 16 09 04 05 07 08 30 24
  24451666.658    -4923632.060 9  -3825663.98249  24451665.594    24451676.5044
  21579312.470   -18890881.141 9 -14173754.49749  21579312.173    21579318.2694
  20561936.880   -21841595.642 9 -16985624.96449  20561936.817    20561941.7894
  21373635.405   -20307186.397 9 -15557858.76649  21373634.521    21373639.8244
  23363641.647    13295431.008 9  10362217.46249  23363641.238    23363648.9044
  21495155.698   -19306668.804 9 -14715026.18249  21495155.094    21495161.2934
  24382152.712    -5292166.928 9  -3521279.69749  24382152.147    24382160.6634
  20621753.488   -21735774.348 9 -16900308.23349  20621752.908    20621759.0344
 99  4 18 19 29 30.0000000  0  8 16 09 04 05 07 08 30 24
  24454121.981    -4910729.346 9  -3815609.92449  24454119.575    24454130.6684
  21589275.298   -18838526.317 9 -14132958.58249  21589274.936    21589281.1654
  20568916.523   -21804917.559 9 -16957044.64649  20568916.346    20568921.5684
  21361020.360   -20373478.998 9 -15609515.31049  21361019.374    21361025.2714
  23377080.377    13366051.764 9  10417246.54749  23377080.064    23377087.1104
  21490008.177   -19333719.146 9 -14736104.36849  21490007.028    21490013.9604
  24363168.338    -5391929.813 9  -3599016.89349  24363168.899    24363176.9264
  20612754.309   -21783065.161 9 -16937158.18349  20612753.678    20612760.0994
 99  4 18 19 30  0.0000000  0  8 16 09 04 05 07 08 30 24
  24456678.270    -4897295.759 9  -3805142.19849  24456677.554    24456687.0624
  21599328.228   -18785698.063 9 -14091793.76049  21599327.817    21599334.4464
  20576002.844   -21767678.685 9 -16928027.35249  20576002.480    20576007.7364
  21348448.335   -20439545.251 9 -15660995.47849  21348447.697    21348453.2234
  23390525.183    13436704.121 9  10472300.25449  23390524.677    23390533.4854
  21484974.624   -19360170.254 9 -14756715.62249  21484973.722    21484980.1534
  24344188.417    -5491670.343 9  -3676736.67849  24344188.139    24344196.9884
  20603854.691   -21829832.909 9 -16973600.54849  20603854.129    20603860.5664
 99  4 18 19 30 30.0000000  0  8 16 09 04 05 07 08 30 24
  24459333.837    -4883340.479 9  -3794267.94449  24459332.576    24459342.8464
  21609469.600   -18732404.946 9 -14050266.70649  21609469.496    21609475.4314
  20583194.997   -21729883.683 9 -16898576.70849  20583194.741    20583200.1154
  21335920.860   -20505377.576 9 -15712293.36549  21335920.000    21335925.7714
  23403973.902    13507377.023 9  10527369.96349  23403972.617    23403982.2054
  21480060.488   -19385994.341 9 -14776838.28749  21480059.554    21480066.1724
  24325214.904    -5591376.374 9  -3754429.60649  24325214.275    24325222.5084
  20595055.614   -21876072.138 9 -17009631.08249  20595054.980    20595061.5304
 99  4 18 19 31  0.0000000  0  8 16 09 04 05 07 08 30 24
  24462091.848    -4868845.441 9  -3782973.11249  24462089.888    24462101.8614
  21619699.300   -18678647.952 9 -14008378.19049  21619698.894    21619705.0004
  20590493.948   -21691527.470 9 -16868688.76049  20590493.758    20590498.6184
  21323444.302   -20570942.131 9 -15763382.59649  21323443.597    21323448.9544
  23417427.894    13578078.089 9  10582461.61149  23417426.403    23417435.7314
  21475268.320   -19411176.946 9 -14796461.09849  21475267.162    21475273.5564
  24306249.803    -5691038.339 9  -3832088.18849  24306249.524    24306256.5964
  20586357.244   -21921782.109 9 -17045249.20349  20586356.712    20586363.0914
 99  4 18 19 31 30.0000000  0  8 16 09 04 05 07 08 30 24
  24464955.770    -4853794.918 9  -3771245.41149  24464955.094    24464965.8684
  21630017.703   -18624424.546 9 -13966126.24049  21630017.331    21630023.4424
  20597896.979   -21652624.135 9 -16838374.49049  20597896.953    20597902.0504
  21311019.602   -20636234.390 9 -15814259.66049  21311018.879    21311024.1554
  23430890.971    13648826.641 9  10637590.27649  23430890.622    23430898.7274
  21470600.189   -19435708.207 9 -14815576.36949  21470599.543    21470605.4974
  24287291.913    -5790662.002 9  -3909716.92749  24287291.278    24287299.6994
  20577760.097   -21966960.407 9 -17080453.04149  20577759.773    20577766.0294
 99  4 18 19 32  0.0000000  0  8 16 09 04 05 07 08 30 24
  24467923.993    -4838195.913 9  -3759090.34349  24467922.740    24467932.8584
  21640422.577   -18569746.877 9 -13923520.31849  21640422.197    21640428.1634
  20605397.584   -21613208.440 9 -16807660.97549  20605397.340    20605402.4004
  21298647.194   -20701251.734 9 -15864922.50049  21298646.204    21298651.8114
  23444362.914    13719621.920 9  10692755.34549  23444362.036    23444370.1014
  21466056.982   -19459583.176 9 -14834180.24249  21466056.368    21466062.6064
  24268336.642    -5890271.912 9  -3987334.93849  24268336.600    24268345.0894
  20569262.912   -22011613.291 9 -17115247.46449  20569262.456    20569268.5784
 99  4 18 19 32 30.0000000  0  8 16 09 04 05 07 08 30 24
  24470997.279    -4822045.696 9  -3746505.75249  24470996.632    24471006.9804
  21650909.989   -18514635.235 9 -13880576.23049  21650909.237    21650915.8814
  20612990.485   -21573307.491 9 -16776569.33849  20612990.214    20612995.0904
  21286325.653   -20766001.792 9 -15915377.06149  21286324.524    21286330.3964
  23457844.696    13790468.962 9  10747960.75349  23457843.883    23457852.6594
  21461638.647   -19482801.742 9 -14852272.62849  21461637.727    21461644.0984
  24249380.131    -5989888.909 9  -4064958.47349  24249380.183    24249387.9714
  20560864.563   -22055746.778 9 -17149637.15749  20560863.860    20560870.2604
 99  4 18 19 33  0.0000000  0  8 16 09 04 05 07 08 30 24
  24474174.526    -4805349.428 9  -3733495.66349  24474173.442    24474183.0884
  21661479.730   -18459091.219 9 -13837295.23449  21661479.440    21661485.6124
  20620671.906   -21532941.332 9 -16745115.20449  20620671.766    20620677.1034
  21274051.866   -20830500.720 9 -15965635.93849  21274050.811    21274056.4774
  23471336.837    13861369.641 9  10803207.96249  23471335.742    23471343.6064
  21457339.625   -19505393.213 9 -14869876.37549  21457338.284    21457344.8624
  24230420.361    -6089523.448 9  -4142595.69749  24230420.409    24230427.7074
  20552561.506   -22099379.541 9 -17183636.68349  20552561.198    20552567.5654
 99  4 18 19 33 30.0000000  0  8 16 09 04 05 07 08 30 24
  24477452.345    -4788124.412 9  -3720073.57649  24477451.403    24477461.5454
  21672130.587   -18403120.788 9 -13793681.96749  21672130.077    21672136.2744
  20628436.029   -21492140.692 9 -16713322.51149  20628435.911    20628441.0784
  21261820.240   -20894778.220 9 -16015722.28249  21261819.129    21261824.7704
  23484833.761    13932296.294 9  10858475.39849  23484832.219    23484841.5234
  21453155.779   -19527379.473 9 -14887008.52749  21453154.830    21453160.8844
  24211455.781    -6189182.996 9  -4220252.41249  24211455.718    24211463.4094
  20544349.758   -22142532.387 9 -17217262.24449  20544349.253    20544355.6674
 99  4 18 19 34  0.0000000  0  8 16 09 04 05 07 08 30 24
  24480825.000    -4770401.294 9  -3706263.36549  24480824.278    24480833.7674
  21682857.997   -18346747.858 9 -13749755.06749  21682857.820    21682864.0274
  20636281.573   -21450912.250 9 -16681196.46549  20636281.540    20636286.7744
  21249627.763   -20958850.006 9 -16065648.32049  21249626.480    21249632.4744
  23498328.312    14003210.156 9  10913732.86349  23498327.107    23498335.7974
  21449083.723   -19548777.878 9 -14903682.61349  21449082.839    21449089.1444
  24192483.685    -6288882.145 9  -4297939.97349  24192483.712    24192491.0204
  20536226.521   -22185220.168 9 -17250525.42049  20536225.837    20536232.2334
 99  4 18 19 34 30.0000000  0  8 16 09 04 05 07 08 30 24
  24484293.131    -4752176.178 9  -3692061.97749  24484292.937    24484302.1714
  21693665.106   -18289956.372 9 -13705502.02049  21693665.128    21693671.0804
  20644212.537   -21409234.815 9 -16648720.55549  20644212.459    20644217.6644
  21237477.370   -21022700.554 9 -16115401.97349  21237476.431    21237482.1134
  23511818.345    14074100.282 9  10968971.84749  23511817.378    23511825.6934
  21445120.692   -19569603.896 9 -14919910.68349  21445119.643    21445126.0914
  24173506.620    -6388607.236 9  -4375647.76449  24173505.530    24173514.4544
  20528192.134   -22227441.016 9 -17283424.75649  20528191.489    20528197.8814
 99  4 18 19 35  0.0000000  0  8 16 09 04 05 07 08 30 24
  24487859.279    -4733436.367 9  -3677459.53249  24487858.788    24487867.3774
  21704559.431   -18232706.545 9 -13660891.81949  21704558.927    21704565.2614
  20652238.193   -21367059.742 9 -16615856.87249  20652238.023    20652243.1994
  21225376.776   -21086289.214 9 -16164951.55349  21225375.728    21225381.7094
  23525305.800    14144977.114 9  11024200.46449  23525305.190    23525313.6914
  21441268.669   -19589846.069 9 -14935683.80849  21441267.399    21441273.9784
  24154531.810    -6488319.533 9  -4453345.57949  24154530.976    24154538.8864
  20520249.521   -22269179.588 9 -17315948.28849  20520249.027    20520255.1574
 99  4 18 19 35 30.0000000  0  8 16 09 04 05 07 08 30 24
  24491528.257    -4714156.016 9  -3662435.87749  24491527.378    24491537.3484
  21715547.881   -18174961.904 9 -13615896.05549  21715547.459    21715554.0624
  20660370.485   -21324324.271 9 -16582556.51849  20660370.373    20660375.5404
  21213334.659   -21149570.657 9 -16214261.74849  21213333.785    21213339.6894
  23538798.129    14215879.638 9  11079449.10649  23538798.489    23538805.3684
  21437537.660   -19609452.599 9 -14950961.63449  21437536.662    21437543.3454
  24135566.985    -6587979.595 9  -4531002.68449  24135566.195    24135574.2964
  20512407.315   -22310390.656 9 -17348060.78049  20512406.756    20512413.1144
 99  4 18 19 36  0.0000000  0  8 16 09 04 05 07 08 30 24
  24495295.497    -4694359.541 9  -3647010.06249  24495295.170    24495303.9644
  21726625.258   -18116750.330 9 -13570536.44149  21726624.761    21726631.3704
  20668610.727   -21281021.549 9 -16548814.15049  20668610.439    20668615.6954
  21201348.928   -21212555.933 9 -16263341.15849  21201348.082    21201353.8464
  23552295.620    14286809.053 9  11134718.70149  23552294.786    23552304.3764
  21433925.029   -19628437.302 9 -14965754.91849  21433924.283    21433930.2204
  24116609.787    -6687599.856 9  -4608628.78749  24116610.858    24116617.1354
  20504665.014   -22351076.582 9 -17379764.07149  20504664.346    20504670.9734
